[[{"header":{"parameterUnit":"m.s-1","parameterCategory":1,"la1":30.6,"la2":28.766,"lo1":-90.7593,"lo2":-88.6598,"dx":0.0162,"dy":0.0183,"nx":116,"ny":114,"refTime":"2022-12-20T00:00:00:Z","depth":0,"parameterNumber":2,"parameterNumberName":"U-component_of_WINDS"},"data":[0.0,0.0,0.0,0.0,0.0,0.0,0.0,0.0,0.0,0.0,0.0,0.0,0.0,0.0,0.0,0.0,0.0,0.0,0.0,0.0,0.0,0.0,0.0,0.0,0.0,0.0,0.0,0.0,0.0,0.0,0.0,0.0,0.0,0.0,0.0,0.0,0.0,0.0,0.0,0.0,0.0,0.0,0.0,0.0,0.0,0.0,0.0,0.0,0.0,0.0,0.0,0.0,0.0,0.0,0.0,0.0,0.0,0.0,0.0,0.0,0.0,0.0,0.0,0.0,0.0,0.0,0.0,0.0,0.0,0.0,0.0,0.0,0.0,0.0,0.0,0.0,0.0,0.0,0.0,0.0,0.0,0.0,0.0,0.0,0.0,0.0,0.0,0.0,0.0,0.0,0.0,0.0,0.0,0.0,0.0,0.0,0.0,0.0,0.0,0.0,0.0,0.0,0.0,0.0,0.0,0.0,0.0,0.0,0.0,0.0,0.0,0.0,0.0,0.0,0.0,0.0,0.0,0.0,0.0,0.0,0.0,0.0,0.0,0.0,0.0,0.0,0.0,0.0,0.0,0.0,0.0,0.0,0.0,0.0,0.0,0.0,0.0,0.0,0.0,0.0,0.0,0.0,0.0,0.0,0.0,0.0,0.0,0.0,0.0,0.0,0.0,0.0,0.0,0.0,0.0,0.0,0.0,0.0,0.0,0.0,0.0,0.0,0.0,0.0,0.0,0.0,0.0,0.0,0.0,0.0,0.0,0.0,0.0,0.0,0.0,0.0,0.0,0.0,0.0,0.0,0.0,0.0,0.0,0.0,0.0,0.0,0.0,0.0,0.0,0.0,0.0,0.0,0.0,0.0,0.0,0.0,0.0,0.0,0.0,0.0,0.0,0.0,0.0,0.0,0.0,0.0,0.0,0.0,0.0,0.0,0.0,0.0,0.0,0.0,0.0,0.0,0.0,0.0,0.0,0.0,0.0,0.0,0.0,0.0,0.0,0.0,0.0,0.0,0.0,0.0,0.0,0.0,0.0,0.0,0.0,0.0,0.0,0.0,0.0,0.0,0.0,0.0,0.0,0.0,0.0,0.0,0.0,0.0,0.0,0.0,0.0,0.0,0.0,0.0,0.0,0.0,0.0,0.0,0.0,0.0,0.0,0.0,0.0,0.0,0.0,0.0,0.0,0.0,0.0,0.0,0.0,0.0,0.0,0.0,0.0,0.0,0.0,0.0,0.0,0.0,0.0,0.0,0.0,0.0,0.0,0.0,0.0,0.0,0.0,0.0,0.0,0.0,0.0,0.0,0.0,0.0,0.0,0.0,0.0,0.0,0.0,0.0,0.0,0.0,0.0,0.0,0.0,0.0,0.0,0.0,0.0,0.0,0.0,0.0,0.0,0.0,0.0,0.0,0.0,0.0,0.0,0.0,0.0,0.0,0.0,0.0,0.0,0.0,0.0,0.0,0.0,0.0,0.0,0.0,0.0,0.0,0.0,0.0,0.0,0.0,0.0,0.0,0.0,0.0,0.0,0.0,0.0,0.0,0.0,0.0,0.0,0.0,0.0,0.0,0.0,0.0,0.0,0.0,0.0,0.0,0.0,0.0,0.0,0.0,0.0,0.0,0.0,0.0,0.0,0.0,0.0,0.0,0.0,0.0,0.0,0.0,0.0,0.0,0.0,0.0,0.0,0.0,0.0,0.0,0.0,0.0,0.0,0.0,0.0,0.0,0.0,0.0,0.0,0.0,0.0,0.0,0.0,0.0,0.0,0.0,0.0,0.0,0.0,0.0,0.0,0.0,0.0,0.0,0.0,0.0,0.0,0.0,0.0,0.0,0.0,0.0,0.0,0.0,0.0,0.0,0.0,0.0,0.0,0.0,0.0,0.0,0.0,0.0,0.0,0.0,0.0,0.0,0.0,0.0,0.0,0.0,0.0,0.0,0.0,0.0,0.0,0.0,0.0,0.0,0.0,0.0,0.0,0.0,0.0,0.0,0.0,0.0,0.0,0.0,0.0,0.0,0.0,0.0,0.0,0.0,0.0,0.0,0.0,0.0,0.0,0.0,0.0,0.0,0.0,0.0,0.0,0.0,0.0,0.0,0.0,0.0,0.0,0.0,0.0,0.0,0.0,0.0,0.0,0.0,0.0,0.0,0.0,0.0,0.0,0.0,0.0,0.0,0.0,0.0,0.0,0.0,0.0,0.0,0.0,0.0,0.0,0.0,0.0,0.0,0.0,0.0,0.0,0.0,0.0,0.0,0.0,0.0,0.0,0.0,0.0,0.0,0.0,0.0,0.0,0.0,0.0,0.0,0.0,0.0,0.0,0.0,0.0,0.0,0.0,0.0,0.0,0.0,0.0,0.0,0.0,0.0,0.0,0.0,0.0,0.0,0.0,0.0,0.0,0.0,0.0,0.0,0.0,0.0,0.0,0.0,0.0,0.0,0.0,0.0,0.0,0.0,0.0,0.0,0.0,0.0,0.0,0.0,0.0,0.0,0.0,0.0,0.0,0.0,0.0,0.0,0.0,0.0,0.0,0.0,0.0,0.0,0.0,0.0,0.0,0.0,0.0,0.0,0.0,0.0,0.0,0.0,0.0,0.0,0.0,0.0,0.0,0.0,0.0,0.0,0.0,0.0,0.0,0.0,0.0,0.0,0.0,0.0,0.0,0.0,0.0,0.0,0.0,0.0,0.0,0.0,0.0,0.0,0.0,0.0,0.0,0.0,0.0,0.0,0.0,0.0,0.0,0.0,0.0,0.0,0.0,0.0,0.0,0.0,0.0,0.0,0.0,0.0,0.0,0.0,0.0,0.0,0.0,0.0,0.0,0.0,0.0,0.0,0.0,0.0,0.0,0.0,0.0,0.0,0.0,0.0,0.0,0.0,0.0,0.0,0.0,0.0,0.0,0.0,0.0,0.0,0.0,0.0,0.0,0.0,0.0,0.0,0.0,0.0,0.0,0.0,0.0,0.0,0.0,0.0,0.0,0.0,0.0,0.0,0.0,0.0,0.0,0.0,0.0,0.0,0.0,0.0,0.0,0.0,0.0,0.0,0.0,0.0,0.0,0.0,0.0,0.0,0.0,0.0,0.0,0.0,0.0,0.0,0.0,0.0,0.0,0.0,0.0,0.0,0.0,0.0,0.0,0.0,0.0,0.0,0.0,0.0,0.0,0.0,0.0,0.0,0.0,0.0,0.0,0.0,0.0,0.0,0.0,0.0,0.0,0.0,0.0,0.0,0.0,0.0,0.0,0.0,0.0,0.0,0.0,0.0,0.0,0.0,0.0,0.0,0.0,0.0,0.0,0.0,0.0,0.0,0.0,0.0,0.0,0.0,0.0,0.0,0.0,0.0,0.0,0.0,0.0,0.0,0.0,0.0,0.0,0.0,0.0,0.0,0.0,0.0,0.0,0.0,0.0,0.0,0.0,0.0,0.0,0.0,0.0,0.0,0.0,0.0,0.0,0.0,0.0,0.0,0.0,0.0,0.0,0.0,0.0,0.0,0.0,0.0,0.0,0.0,0.0,0.0,0.0,0.0,0.0,0.0,0.0,0.0,0.0,0.0,0.0,0.0,0.0,0.0,0.0,0.0,0.0,0.0,0.0,0.0,0.0,0.0,0.0,0.0,0.0,0.0,0.0,0.0,0.0,0.0,0.0,0.0,0.0,0.0,0.0,0.0,0.0,0.0,0.0,0.0,0.0,0.0,0.0,0.0,0.0,0.0,0.0,0.0,0.0,0.0,0.0,0.0,0.0,0.0,0.0,0.0,0.0,0.0,0.0,0.0,0.0,0.0,0.0,0.0,0.0,0.0,0.0,0.0,0.0,0.0,0.0,0.0,0.0,0.0,0.0,0.0,0.0,0.0,0.0,0.0,0.0,0.0,0.0,0.0,0.0,0.0,0.0,0.0,0.0,0.0,0.0,0.0,0.0,0.0,0.0,0.0,0.0,0.0,0.0,0.0,0.0,0.0,0.0,0.0,0.0,0.0,0.0,0.0,0.0,0.0,0.0,0.0,0.0,0.0,0.0,0.0,0.0,0.0,0.0,0.0,0.0,0.0,0.0,0.0,0.0,0.0,0.0,0.0,0.0,0.0,0.0,0.0,0.0,0.0,0.0,0.0,0.0,0.0,0.0,0.0,0.0,0.0,0.0,0.0,0.0,0.0,0.0,0.0,0.0,0.0,0.0,0.0,0.0,0.0,0.0,0.0,0.0,0.0,0.0,0.0,0.0,0.0,0.0,0.0,0.0,0.0,0.0,0.0,0.0,0.0,0.0,0.0,0.0,0.0,0.0,0.0,0.0,0.0,0.0,0.0,0.0,0.0,0.0,0.0,0.0,0.0,0.0,0.0,0.0,0.0,0.0,0.0,0.0,0.0,0.0,0.0,0.0,0.0,0.0,0.0,0.0,0.0,0.0,0.0,0.0,0.0,0.0,0.0,0.0,0.0,0.0,0.0,0.0,0.0,0.0,0.0,0.0,0.0,0.0,0.0,0.0,0.0,0.0,0.0,0.0,0.0,0.0,0.0,0.0,0.0,0.0,0.0,0.0,0.0,0.0,0.0,0.0,0.0,0.0,0.0,0.0,0.0,0.0,0.0,0.0,0.0,0.0,0.0,0.0,0.0,0.0,0.0,0.0,0.0,0.0,0.0,0.0,0.0,0.0,0.0,0.0,0.0,0.0,0.0,0.0,0.0,0.0,0.0,0.0,0.0,0.0,0.0,0.0,0.0,0.0,0.0,0.0,0.0,0.0,0.0,0.0,0.0,0.0,0.0,0.0,0.0,0.0,0.0,0.0,0.0,0.0,0.0,0.0,0.0,0.0,0.0,0.0,0.0,0.0,0.0,0.0,0.0,0.0,0.0,0.0,0.0,0.0,0.0,0.0,0.0,0.0,0.0,0.0,0.0,0.0,0.0,0.0,0.0,0.0,0.0,0.0,0.0,0.0,0.0,0.0,0.0,0.0,0.0,0.0,0.0,0.0,0.0,0.0,0.0,0.0,0.0,0.0,0.0,0.0,0.0,0.0,0.0,0.0,0.0,0.0,0.0,0.0,0.0,0.0,0.0,0.0,0.0,0.0,0.0,0.0,0.0,0.0,0.0,0.0,0.0,0.0,0.0,0.0,0.0,0.0,0.0,0.0,0.0,0.0,0.0,0.0,0.0,0.0,0.0,0.0,0.0,0.0,0.0,0.0,0.0,0.0,0.0,0.0,0.0,0.0,0.0,0.0,0.0,0.0,0.0,0.0,0.0,0.0,0.0,0.0,0.0,0.0,0.0,0.0,0.0,0.0,0.0,0.0,0.0,0.0,0.0,0.0,0.0,0.0,0.0,0.0,0.0,0.0,0.0,0.0,0.0,0.0,0.0,0.0,0.0,0.0,0.0,0.0,0.0,0.0,0.0,0.0,0.0,0.0,0.0,0.0,0.0,0.0,0.0,0.0,0.0,0.0,0.0,0.0,0.0,0.0,0.0,0.0,0.0,0.0,0.0,0.0,0.0,0.0,0.0,0.0,0.0,0.0,0.0,0.0,0.0,0.0,0.0,0.0,0.0,0.0,0.0,0.0,0.0,0.0,0.0,0.0,0.0,0.0,0.0,0.0,0.0,0.0,0.0,0.0,0.0,0.0,0.0,0.0,0.0,0.0,0.0,0.0,0.0,0.0,0.0,0.0,0.0,0.0,0.0,0.0,0.0,0.0,0.0,0.0,0.0,0.0,0.0,0.0,0.0,0.0,0.0,0.0,0.0,0.0,0.0,0.0,0.0,0.0,0.0,0.0,0.0,0.0,0.0,0.0,0.0,0.0,0.0,0.0,0.0,0.0,0.0,0.0,0.0,0.0,0.0,0.0,0.0,0.0,0.0,0.0,0.0,0.0,0.0,0.0,0.0,0.0,0.0,0.0,0.0,0.0,0.0,0.0,0.0,0.0,0.0,0.0,0.0,0.0,0.0,0.0,0.0,0.0,0.0,0.0,0.0,0.0,0.0,0.0,0.0,0.0,0.0,0.0,0.0,0.0,0.0,0.0,0.0,0.0,0.0,0.0,0.0,0.0,0.0,0.0,0.0,0.0,0.0,0.0,0.0,0.0,0.0,0.0,0.0,3.5958,3.4603,0.0,0.0,0.0,0.0,0.0,0.0,0.0,0.0,0.0,0.0,0.0,0.0,0.0,0.0,0.0,0.0,0.0,0.0,0.0,0.0,0.0,0.0,0.0,1.5396,1.5396,1.5396,1.5396,0.0,0.0,0.0,0.0,0.0,0.0,0.0,0.0,0.0,1.5965,1.7122,1.7562,1.8908,2.1012,2.0732,2.0518,2.0395,0.0,0.0,0.0,0.0,0.0,0.0,0.0,0.0,0.0,0.0,0.0,0.0,0.0,0.0,0.0,0.0,0.0,0.0,0.0,0.0,0.0,0.0,0.0,0.0,0.0,0.0,0.0,0.0,0.0,0.0,0.0,0.0,0.0,0.0,0.0,0.0,0.0,0.0,0.0,0.0,0.0,0.0,0.0,0.0,0.0,0.0,0.0,0.0,0.0,0.0,0.0,0.0,0.0,0.0,0.0,0.0,0.0,0.0,0.0,0.0,0.0,0.0,0.0,0.0,0.0,0.0,0.0,0.0,0.0,0.0,3.8316,3.7249,0.0,0.0,0.0,0.0,0.0,0.0,0.0,0.0,0.0,0.0,0.0,0.0,0.0,0.0,0.0,0.0,0.0,0.0,0.0,0.0,0.0,1.4988,1.5469,1.552,1.5559,1.563,1.563,1.5598,1.5527,1.552,0.0,0.0,0.0,0.0,1.5734,1.5742,1.6649,1.8494,1.9324,2.1179,2.3935,2.3685,2.347,2.3253,2.2173,0.0,0.0,0.0,0.0,0.0,0.0,0.0,0.0,0.0,0.0,0.0,0.0,0.0,0.0,0.0,0.0,0.0,0.0,0.0,0.0,0.0,0.0,0.0,0.0,0.0,0.0,0.0,0.0,0.0,0.0,0.0,0.0,0.0,0.0,0.0,0.0,0.0,0.0,0.0,0.0,0.0,0.0,0.0,0.0,0.0,0.0,0.0,0.0,0.0,0.0,0.0,0.0,0.0,0.0,0.0,0.0,0.0,0.0,0.0,0.0,0.0,0.0,0.0,3.9647,3.9798,4.0425,4.0864,4.1316,4.1679,4.0802,4.0249,3.9848,3.8278,0.0,0.0,0.0,0.0,0.0,0.0,0.0,0.0,0.0,0.0,0.0,0.0,0.0,0.0,0.0,0.0,0.0,0.0,0.0,1.5099,1.5909,1.6014,1.6148,1.65,1.6531,1.6371,1.6026,1.6014,1.5823,1.5422,1.5396,1.594,1.7098,1.7141,1.8493,2.1261,2.4349,2.6621,2.8091,2.761,2.7365,2.7181,2.3919,2.2188,2.1755,0.0,0.0,0.0,0.0,0.0,0.0,0.0,0.0,0.0,0.0,0.0,0.0,0.0,0.0,0.0,0.0,0.0,0.0,0.0,0.0,0.0,0.0,0.0,0.0,0.0,0.0,0.0,0.0,0.0,0.0,0.0,0.0,0.0,0.0,0.0,0.0,0.0,0.0,0.0,0.0,0.0,3.4502,3.5118,0.0,0.0,0.0,0.0,0.0,0.0,0.0,0.0,0.0,0.0,0.0,0.0,0.0,3.7337,3.8115,3.9019,4.001,4.1088,4.1544,4.2286,4.3263,4.3338,4.3413,4.3449,4.3313,0.0,4.0988,3.9848,0.0,0.0,0.0,0.0,0.0,0.0,0.0,0.0,0.0,0.0,0.0,0.0,0.0,0.0,0.0,0.0,0.0,0.0,0.0,0.0,0.0,1.6535,1.6891,1.709,1.7308,1.7257,1.686,1.6821,1.6609,1.6149,1.6129,1.6406,1.6984,1.8105,2.0517,2.4268,2.689,2.8743,2.986,2.992,2.9955,2.9875,2.8266,2.6405,2.442,2.4149,0.0,0.0,0.0,0.0,0.0,0.0,0.0,0.0,0.0,0.0,0.0,0.0,0.0,0.0,0.0,0.0,0.0,0.0,0.0,0.0,0.0,0.0,0.0,0.0,0.0,0.0,0.0,0.0,0.0,0.0,0.0,0.0,0.0,0.0,0.0,0.0,0.0,0.0,0.0,3.4226,3.5029,3.5907,3.523,3.4828,0.0,0.0,0.0,0.0,0.0,0.0,0.0,0.0,0.0,3.8655,3.8919,3.9622,4.079,4.1004,4.1644,4.2696,4.2674,4.3201,4.4252,4.4593,4.4758,4.4758,4.4758,4.4342,4.3499,4.1441,3.9985,3.8969,0.0,0.0,0.0,0.0,3.78,3.8052,0.0,0.0,0.0,0.0,0.0,0.0,0.0,0.0,0.0,0.0,0.0,0.0,1.6378,1.7204,1.7762,1.7888,1.8164,1.8155,1.7734,1.7606,1.7344,1.6898,1.6765,1.7022,1.7734,2.0722,2.3864,2.7061,2.9413,3.0918,3.1667,3.1566,3.1711,3.2014,3.1531,2.9821,2.7295,2.6699,2.5737,2.4539,0.0,0.0,0.0,0.0,0.0,0.0,0.0,0.0,0.0,0.0,0.0,0.0,0.0,0.0,0.0,0.0,0.0,0.0,0.0,0.0,0.0,0.0,0.0,0.0,0.0,0.0,0.0,0.0,0.0,0.0,0.0,0.0,0.0,0.0,0.0,0.0,0.0,3.5492,3.6145,3.7136,3.6371,3.5869,0.0,0.0,0.0,0.0,0.0,0.0,3.8002,3.8052,3.8919,4.0877,4.1078,4.1806,4.3176,4.2939,4.3201,4.4016,4.3589,4.3915,4.4855,4.5311,4.5512,4.5512,4.5512,4.5412,4.5095,4.3009,4.1754,4.1053,4.0276,3.9509,3.8931,3.9685,3.9949,4.0225,0.0,0.0,0.0,0.0,0.0,0.0,0.0,0.0,0.0,0.0,0.0,1.6398,1.7243,1.8058,1.8713,1.9178,1.9228,1.9043,1.8559,1.8186,1.7793,1.7371,1.6937,1.793,2.0547,2.6305,2.9332,2.9421,3.2783,3.4432,3.4455,3.2707,3.2544,3.3691,3.1832,3.0492,2.9588,2.8982,2.7821,2.6273,2.5126,0.0,0.0,0.0,0.0,0.0,0.0,0.0,0.0,0.0,0.0,0.0,0.0,0.0,0.0,0.0,0.0,0.0,0.0,0.0,0.0,0.0,0.0,0.0,0.0,0.0,0.0,0.0,0.0,0.0,0.0,0.0,0.0,0.0,0.0,0.0,0.0,0.0,0.0,3.9484,3.9032,0.0,0.0,0.0,0.0,3.7914,3.8454,3.9233,4.0287,4.0337,4.0877,4.2073,4.2612,4.3151,4.374,4.4227,4.4503,4.4564,4.4514,4.4855,4.5462,4.5487,4.5512,4.5512,4.5512,4.5171,4.4614,4.4489,4.3815,4.2875,4.2799,4.2108,4.1277,4.2384,4.2788,4.2964,0.0,0.0,0.0,0.0,0.0,1.3112,1.3112,1.3248,1.3568,1.4264,1.5366,1.6437,1.7301,1.8896,1.9951,2.0126,2.0644,2.0781,2.0294,1.9601,1.9297,1.9461,1.8759,1.9947,2.3296,2.6532,2.8712,2.9795,3.1367,3.2124,3.2112,3.1444,3.1376,3.1809,3.1122,3.0457,2.9889,3.0319,2.9553,2.7937,2.6841,2.5544,0.0,0.0,0.0,0.0,0.0,0.0,0.0,0.0,0.0,0.0,0.0,0.0,0.0,0.0,0.0,0.0,0.0,0.0,0.0,0.0,0.0,0.0,0.0,0.0,0.0,0.0,0.0,0.0,0.0,0.0,0.0,0.0,0.0,0.0,0.0,0.0,0.0,3.8642,3.8442,0.0,3.9044,3.9094,3.9396,4.0073,4.069,4.1331,4.2071,4.2434,4.2986,4.3714,4.394,4.4127,4.4303,4.4489,4.4805,4.5171,4.5171,4.5472,4.6024,4.6024,4.6024,4.6024,4.6024,4.5884,4.5683,4.5683,4.5031,4.4027,4.4027,4.3776,4.351,4.4331,4.4608,4.4708,0.0,0.0,0.0,0.0,1.2981,1.2909,1.2909,1.3026,1.3457,1.4406,1.5711,1.6977,1.8114,1.9775,2.0879,2.1026,2.1563,2.1699,2.1239,2.0537,2.0195,2.0351,2.0538,2.1918,2.462,2.7413,2.9386,3.0497,3.1928,3.2613,3.2613,3.2156,3.2181,3.2601,3.2144,3.1893,3.181,3.2305,3.1141,2.8853,2.7815,2.69,2.6064,0.0,0.0,0.0,0.0,0.0,0.0,0.0,0.0,0.0,0.0,0.0,0.0,0.0,0.0,0.0,0.0,0.0,0.0,0.0,0.0,0.0,0.0,0.0,0.0,0.0,0.0,0.0,0.0,0.0,0.0,0.0,0.0,0.0,0.0,3.809,3.9082,3.8856,3.9006,3.9408,4.0161,4.0576,4.1103,4.1818,4.2598,4.3151,4.3528,4.389,4.4342,4.488,4.4905,4.498,4.5181,4.5181,4.5382,4.5773,4.5773,4.5949,4.6286,4.6286,4.6286,4.6286,4.6286,4.6286,4.6311,4.6486,4.612,4.5417,4.5242,4.5181,4.5231,4.5623,4.549,4.5216,0.0,0.0,0.0,1.3509,1.317,1.2903,1.2909,1.3242,1.3958,1.522,1.659,1.8055,1.9717,2.0693,2.1415,2.1885,2.1924,2.1738,2.1278,2.085,2.0429,2.001,2.2214,2.3811,2.4522,2.9361,3.1786,3.1649,3.4679,3.6156,3.6108,3.4812,3.4896,3.6084,3.4824,3.4655,3.5309,3.4842,3.2485,2.9029,2.8122,2.7627,2.7234,0.0,0.0,0.0,0.0,0.0,0.0,0.0,0.0,0.0,0.0,0.0,0.0,0.0,0.0,0.0,0.0,0.0,0.0,0.0,0.0,0.0,0.0,0.0,0.0,0.0,0.0,0.0,0.0,0.0,0.0,0.0,0.0,0.0,3.8982,3.9409,3.9948,4.0462,4.1026,4.1339,4.1339,4.2384,4.3065,4.3065,4.4027,4.4629,4.4629,4.464,4.493,4.5512,4.5537,4.5773,4.6286,4.6311,4.6311,4.6311,4.6336,4.6336,4.6336,4.6336,4.6336,4.6336,4.6336,4.6336,4.6386,4.6898,4.7124,4.7074,4.6562,4.6336,4.6336,4.6336,4.5558,4.4579,0.0,0.0,0.0,1.3548,1.3418,1.3248,1.2942,1.3242,1.3958,1.522,1.6828,1.8351,1.9756,2.123,2.2186,2.2314,2.2596,2.2596,2.2166,2.1445,2.1249,2.1767,2.5306,2.7438,2.7731,2.9911,3.0912,3.0683,3.058,3.0527,3.0514,3.0146,3.0172,3.0553,3.1158,3.1543,3.179,3.2615,3.235,3.1392,3.1543,3.1065,3.0228,0.0,0.0,0.0,0.0,0.0,0.0,0.0,0.0,0.0,0.0,0.0,0.0,0.0,0.0,0.0,0.0,0.0,0.0,0.0,0.0,0.0,0.0,0.0,0.0,0.0,0.0,0.0,0.0,0.0,0.0,0.0,3.8567,3.9509,3.8982,4.0414,4.1393,4.1127,4.1943,4.2534,4.2534,4.3514,4.4152,4.4152,4.4844,4.5246,4.5246,4.5608,4.5909,4.606,4.6075,4.615,4.6286,4.6687,4.6873,4.6873,4.7265,4.7465,4.7465,4.7465,4.7465,4.7465,4.7465,4.7465,4.7465,4.7616,4.7666,4.7666,4.7516,4.7465,4.7465,4.7465,4.7246,4.6965,0.0,0.0,0.0,1.4082,1.4043,1.3971,1.3724,1.4193,1.5105,1.6547,1.7785,1.918,2.081,2.1904,2.2567,2.2732,2.2975,2.2858,2.2285,2.1932,2.2515,2.4258,2.656,2.8004,2.8444,2.9806,3.0459,3.0294,3.0656,3.0871,3.0871,3.0871,3.1158,3.1698,3.1914,3.2318,3.2907,3.37,3.402,3.4036,3.4356,3.3599,3.2174,3.132,3.0838,3.0588,3.0122,2.9945,2.9986,3.0211,0.0,0.0,0.0,0.0,0.0,0.0,0.0,0.0,0.0,0.0,0.0,0.0,0.0,0.0,0.0,0.0,0.0,0.0,0.0,0.0,0.0,0.0,0.0,0.0,4.0062,4.0966,4.0652,4.1708,4.2411,4.2044,4.2972,4.3664,4.3664,4.4468,4.498,4.498,4.5522,4.5824,4.5824,4.6125,4.6411,4.6637,4.6637,4.6737,4.6979,4.729,4.744,4.744,4.7741,4.7908,4.7908,4.7908,4.7908,4.7908,4.7908,4.8033,4.8284,4.851,4.8736,4.8871,0.0,0.0,0.0,0.0,4.5601,4.6365,1.5415,1.5163,1.4936,1.4877,1.4916,1.4936,1.4877,1.5569,1.6695,1.8372,1.9053,2.0166,2.2275,2.2548,2.2713,2.3073,2.3151,2.2899,2.2237,2.2686,2.4137,2.6727,2.6794,2.7161,2.7989,2.9517,3.0294,3.0294,3.2592,3.3711,3.3711,3.3711,3.4349,3.5439,3.4398,3.4593,3.5702,3.5882,3.5941,3.5941,3.5941,3.5061,3.3506,3.1681,3.192,3.3136,3.2136,3.1766,3.1838,3.233,0.0,0.0,0.0,0.0,0.0,0.0,0.0,0.0,0.0,0.0,0.0,0.0,0.0,0.0,0.0,0.0,0.0,0.0,0.0,0.0,0.0,0.0,0.0,0.0,4.177,4.3176,4.3176,4.3226,4.3266,4.3176,4.4091,4.4704,4.4704,4.5246,4.5587,4.5587,4.61,4.6386,4.6386,4.6436,0.0,0.0,0.0,4.74,4.7908,4.7983,4.8008,4.8008,4.8118,4.8168,4.8168,4.8243,4.8284,4.8284,4.8284,4.8601,4.912,4.9606,5.0067,5.0352,4.8846,4.716,4.5263,4.287,4.2953,4.4373,1.5481,1.564,1.5725,1.5352,1.5601,1.5725,1.5344,1.5745,1.6695,1.8372,1.9298,2.0479,2.2314,2.2791,2.3014,2.3081,2.3446,2.375,2.3914,2.5254,2.6171,2.648,2.815,2.93,2.9779,3.0143,3.0294,3.0294,2.9741,2.9474,2.9474,2.9474,2.9631,2.9898,3.0721,3.1248,3.1546,3.2632,3.3082,3.3082,3.3082,3.3896,3.5075,3.4678,3.4453,3.4354,3.4153,3.4059,3.4076,3.4176,3.3509,3.2627,3.2738,3.2376,0.0,0.0,0.0,0.0,0.0,0.0,0.0,0.0,0.0,0.0,0.0,0.0,0.0,0.0,0.0,0.0,0.0,0.0,0.0,4.1607,4.3176,4.4278,4.4278,4.4719,4.4834,4.4353,4.4895,4.5321,4.5321,4.5824,4.615,4.615,4.6622,4.6948,4.6948,4.7365,4.7657,4.7741,4.7741,4.7807,4.7908,4.8375,4.8626,4.8626,4.9515,0.0,4.9925,5.0419,5.0636,5.0636,5.0636,5.0711,5.0812,5.0937,5.1038,5.1071,5.0761,4.9435,4.7627,4.713,4.6176,4.5162,1.6098,1.6242,1.6328,1.609,1.6434,1.6676,1.6434,1.6934,1.7804,1.9074,1.9834,2.0752,2.2051,2.2372,2.2509,2.2509,2.291,2.3773,2.5241,2.595,2.6794,2.7907,2.8621,2.9093,2.9289,2.9289,2.9289,2.9289,2.9289,2.9644,3.0294,3.0294,3.1043,3.2331,3.1622,3.1695,3.2404,3.3068,3.3341,3.3403,3.4081,3.4992,3.5886,3.5213,3.461,3.4241,3.5198,3.5367,3.5143,3.5454,3.5002,3.4237,3.3997,3.352,3.3058,0.0,0.0,0.0,0.0,0.0,0.0,0.0,0.0,0.0,0.0,0.0,0.0,0.0,0.0,3.8881,4.0276,0.0,4.2434,4.3277,4.4342,4.5045,4.5045,4.5547,4.5698,4.5121,4.5547,4.5899,4.5899,4.6386,4.6712,4.6712,4.7214,4.7516,4.7516,4.7741,4.8033,4.835,4.8611,4.8887,4.9147,4.9757,5.0033,5.0058,5.0594,5.0845,5.087,5.1163,5.1289,5.1289,5.1289,5.0895,5.0252,5.0814,5.1052,5.118,5.246,5.0482,4.6742,4.5034,4.455,4.477,1.6949,1.6941,1.6929,1.6851,1.7277,1.7637,1.7637,1.8264,1.9044,1.9912,2.0371,2.0928,2.1807,2.1905,2.1924,2.2003,2.2683,2.3992,2.6044,2.65,2.7491,2.9183,2.8897,2.8575,2.8314,2.8314,2.8428,2.8694,2.9768,3.0991,3.2293,3.2293,3.3479,3.5511,3.3281,3.2943,3.3982,3.3982,3.3982,3.408,3.5174,3.5595,3.5511,3.4714,3.4245,3.4269,3.584,3.6093,3.5757,3.623,3.5931,3.5294,3.4954,3.4488,3.4073,3.4187,3.4299,0.0,0.0,0.0,0.0,0.0,0.0,0.0,0.0,3.858,3.8203,3.9446,4.0036,4.0815,4.2386,4.3115,4.3779,4.4629,4.5271,4.5663,4.5663,4.6125,4.6301,4.5849,4.6185,4.6461,4.6461,4.6923,4.7249,4.7249,4.7767,4.8083,4.8083,4.8284,4.8611,4.9104,4.9656,5.0142,5.0553,5.1063,5.1289,5.1289,5.1414,5.1465,5.1465,5.1548,5.1666,5.1766,5.1892,5.1266,5.021,5.0717,5.1165,5.1609,5.2483,5.0094,4.5821,4.306,4.2786,4.3879,1.7776,1.7854,1.7745,1.7391,1.796,1.847,1.847,1.8897,1.954,2.04,2.0556,2.0928,2.1807,2.1905,2.2042,2.2392,2.4155,2.5406,2.5741,2.8609,2.9751,2.8483,2.9493,2.9526,2.8341,2.8314,2.8873,3.0081,3.0237,3.0991,3.2293,3.2293,3.2457,3.2745,3.2444,3.2381,3.2532,3.2532,3.2532,3.2545,3.2695,3.2758,3.287,3.3982,3.5102,3.6092,3.6321,3.6368,3.6318,3.6368,3.5691,3.4853,3.5294,3.5043,3.4703,3.5193,3.5693,3.6029,3.5595,3.6234,3.7299,3.8492,3.907,3.9622,0.0,4.0549,4.0601,4.221,4.2587,4.2975,4.4127,4.4819,4.5261,4.5386,4.5849,4.621,4.621,4.6672,4.6998,4.6923,4.6973,4.7023,4.7023,4.749,4.7817,4.7817,4.8375,4.8718,4.8718,4.9615,5.0151,5.0201,5.0795,5.1138,5.1214,5.1264,5.1289,5.1314,5.1774,5.2026,5.2026,5.2511,5.2988,5.3457,5.4002,5.4147,5.3854,5.2085,5.2459,5.3671,4.847,4.7144,4.8119,4.7752,4.5485,4.2883,1.796,1.7999,1.8019,1.8097,1.8372,1.8598,1.8598,1.9201,1.9697,1.9823,2.0283,2.0625,2.0723,2.0977,2.1309,2.1718,2.3246,2.4531,2.529,2.8147,2.935,2.8335,2.9592,2.9663,2.8341,2.9072,2.9728,3.0294,3.1094,3.2167,3.3515,3.3515,3.3934,3.4654,3.386,3.3515,3.3515,3.3515,3.3515,3.3576,3.4362,3.4703,3.4751,3.5331,3.5683,3.5919,3.6256,3.6168,0.0,3.6281,3.5842,3.528,3.5855,3.5417,3.4929,3.6145,3.5981,3.5705,3.7111,3.8291,3.9396,4.054,4.074,4.1001,4.2445,4.2333,4.2333,4.3664,4.4206,4.4583,4.5045,4.5598,4.5974,4.5974,4.6135,4.6411,4.6722,4.6948,4.7224,4.7541,4.7883,4.7958,4.7591,4.8083,4.8551,4.8862,4.9414,4.9866,5.0234,5.0686,5.0921,5.0921,5.1473,5.1749,5.1749,5.2076,5.2402,5.2703,5.2929,5.3206,5.3575,5.3801,5.4027,5.4175,5.3246,5.2175,5.0998,5.0405,4.9995,4.9602,4.8518,4.8005,4.7684,4.5677,4.4037,4.2973,1.8147,1.8175,1.8303,1.8713,1.8879,1.8957,1.8957,1.9591,1.999,1.9706,2.0204,2.0468,2.0137,2.039,2.0732,2.1006,2.2227,2.3704,2.538,2.7929,2.939,2.9407,3.032,3.0216,2.8873,2.9794,3.0475,3.085,3.2205,3.3589,3.4945,3.4945,3.5475,3.6358,3.5391,3.4945,3.4945,3.4945,3.4945,3.503,3.6001,3.6393,3.6368,3.623,3.5869,3.557,3.5981,3.578,3.5344,3.578,3.5643,3.5369,3.5956,3.5716,3.5479,3.6972,3.6684,3.6383,3.8705,4.0023,4.0989,4.2135,4.2308,4.2532,4.3725,4.3714,4.3714,4.4654,4.5196,4.5562,4.5673,4.605,4.6336,4.6512,4.6537,4.6712,4.7249,4.745,4.7716,4.8109,4.8802,4.9079,4.8636,4.8987,4.9405,4.9791,5.0327,5.0845,5.1264,5.144,5.1515,5.1515,5.2176,5.2553,5.2553,5.3088,5.3557,5.3934,5.3934,5.4177,5.4579,5.417,5.428,5.4681,5.2224,5.0684,4.9882,4.9129,4.8335,4.7677,4.8361,4.8223,4.7316,4.4235,4.3319,4.3755,1.8509,1.8578,1.8723,1.9208,1.96,1.9873,1.9873,2.0263,2.0576,2.0556,2.0576,2.0595,2.0576,2.0595,2.0595,2.0625,2.1777,2.3632,2.6277,2.8916,3.0893,3.2125,3.2217,3.1609,3.0276,3.0268,3.094,3.2243,3.3661,3.5017,3.6334,3.6334,3.6358,3.6393,3.6358,3.6334,3.6334,3.6334,3.6334,3.6346,3.6381,3.6393,3.6343,3.5757,3.5508,3.5508,3.5508,3.5193,3.4728,3.4753,3.4753,3.4828,3.5369,3.5906,3.6569,3.7663,3.8354,3.9019,4.0149,4.0851,4.1553,4.2699,4.374,4.4514,4.4564,4.4564,4.4729,4.5361,4.5487,4.5663,4.6175,4.6286,4.6461,4.6998,4.7074,4.7249,4.7792,4.8375,4.8752,4.8768,4.9715,5.0352,5.0327,5.0352,5.0352,5.0377,5.0921,5.1289,5.1289,5.18,5.2076,5.2076,5.3105,5.3658,5.3658,5.4253,5.4572,5.4572,5.4572,5.4572,5.4551,5.3059,5.3466,5.5192,5.1605,5.1377,5.3229,4.921,4.8968,5.0755,4.6714,4.6357,4.7838,4.5705,4.494,4.5237,1.8578,1.8598,1.8831,1.9581,1.9815,1.9991,2.0332,2.0498,2.0498,2.0185,2.0146,0.0,0.0,0.0,0.0,0.0,2.209,2.3499,2.583,2.8745,3.0581,3.0965,3.1825,3.2091,3.1635,3.1622,3.2306,3.3698,3.5054,3.5953,3.6393,3.6393,3.6393,3.6393,3.6393,3.6393,3.6393,3.6393,3.6393,3.6368,3.5956,3.5794,3.5782,3.5595,3.5068,3.4488,0.0,3.4628,3.4212,3.4577,3.4463,3.4388,3.5691,3.5705,3.5479,3.6607,3.8115,3.9647,4.0725,4.1704,4.2685,4.379,4.4328,4.469,4.5121,4.5196,4.5347,4.5924,4.6311,4.6637,4.6813,4.7114,4.7415,4.7591,4.7641,4.7817,4.8426,4.8677,4.9053,4.9766,5.0176,5.0569,5.0946,5.1013,5.1147,5.1498,5.1724,5.2,5.2335,5.2879,5.3155,5.3155,5.3901,5.4303,5.4303,5.4496,5.4773,5.5132,5.5509,5.5063,5.4007,5.3475,5.3032,5.2605,5.1377,5.0543,4.9993,5.0053,4.8925,4.7131,4.7172,4.6916,4.6414,4.5728,4.5625,4.5907,1.9044,1.9065,1.9289,2.0019,2.0137,0.0,0.0,0.0,0.0,0.0,0.0,0.0,0.0,0.0,0.0,0.0,0.0,2.3332,2.5826,2.8034,2.9695,3.0758,3.1252,3.1642,3.2012,3.1664,3.2237,3.3791,3.4905,3.5668,3.6093,3.6318,3.6281,3.6093,3.6093,3.5968,3.5792,3.5792,3.5892,3.6043,3.5456,3.5332,3.5458,3.5068,3.4502,0.0,3.4062,3.3897,3.3682,3.4022,3.4137,3.4363,3.5465,3.583,3.607,3.7009,3.8705,4.0512,4.1617,4.2721,4.379,4.4694,4.5081,4.5307,4.5698,4.5773,4.5874,4.6225,4.6587,4.6873,4.7074,4.7375,4.7817,4.841,4.867,4.9012,4.9606,4.9857,5.0159,5.067,5.0879,5.1172,5.1548,5.1749,5.1925,5.2101,5.2452,5.2812,5.3163,5.3708,5.4027,5.4027,5.4579,5.4898,5.4898,5.5082,5.5054,5.482,5.5952,5.5607,5.4012,5.405,5.3907,5.3532,5.1244,4.9956,4.9515,4.9412,4.7815,4.5597,4.703,4.6893,4.592,4.592,4.6074,4.6269,1.9854,1.9932,2.0049,0.0,0.0,0.0,0.0,0.0,0.0,0.0,0.0,0.0,0.0,0.0,0.0,0.0,0.0,0.0,2.6279,2.6853,2.842,3.1449,3.0476,3.0407,3.1502,3.0534,3.0924,3.2804,3.3445,3.4335,3.5458,3.5984,3.5936,3.5377,3.5377,3.5077,3.4624,3.468,3.4993,3.5408,3.4867,3.4968,3.5319,3.4288,3.3872,3.3807,3.3305,3.314,3.314,3.314,3.3897,3.4828,3.4904,3.6371,3.8216,3.8831,4.0124,4.1603,4.2774,4.384,4.478,4.5372,4.5924,4.6286,4.6286,4.6286,4.6311,4.6351,4.6361,4.6537,4.7074,4.7224,4.7767,4.9389,5.0067,5.0619,5.1214,5.1724,5.1875,5.1389,5.1774,5.2126,5.2176,5.2636,5.2737,5.2277,5.3155,5.3708,5.3733,5.4303,5.4647,5.4647,5.5157,5.544,5.5483,5.6018,5.5497,5.3947,5.6053,5.6192,5.4639,5.4577,5.5612,5.7132,5.0888,4.958,5.1492,4.7529,4.6068,4.6308,4.642,4.6398,4.6308,4.6308,4.6308,4.633,0.0,0.0,0.0,0.0,0.0,0.0,0.0,0.0,0.0,0.0,0.0,0.0,0.0,0.0,0.0,0.0,0.0,0.0,2.6098,2.6489,2.7654,2.9888,2.8894,2.9469,3.1972,3.0798,3.1472,3.4202,3.4348,3.4583,3.4881,3.4131,3.3712,3.3567,3.3567,3.3495,3.3432,3.4315,3.4778,3.4853,3.4313,3.4187,3.4288,3.3997,3.3657,3.3341,3.3607,3.3707,3.3707,3.3707,3.4977,3.6709,3.755,3.8504,3.9446,4.0412,4.1304,4.2297,4.379,4.4719,4.5397,4.5974,4.62,4.6286,4.6286,4.6286,4.6411,4.6798,4.7214,4.7682,4.8275,4.8686,4.9222,5.0051,5.0302,5.0619,5.1214,5.1414,5.1599,5.1875,5.2026,5.2427,5.3206,5.3432,5.3632,5.3926,5.3783,5.3884,5.4353,5.4906,5.5207,5.5207,5.5717,5.6194,5.6602,5.7154,5.7262,5.6834,5.7387,5.6802,5.5142,5.3514,5.2387,5.1534,4.8242,4.7186,4.7805,4.8384,4.7693,4.6464,4.8117,4.775,4.6308,4.6308,4.6308,4.6529,0.0,0.0,0.0,0.0,0.0,0.0,0.0,0.0,0.0,0.0,0.0,0.0,0.0,0.0,0.0,0.0,0.0,0.0,0.0,2.6397,2.7414,2.8901,2.8466,2.917,3.1272,3.0193,3.0909,3.3599,3.3069,3.3338,3.4315,3.3661,3.3355,3.3355,3.3355,3.3197,3.3023,3.3695,3.4137,0.0,0.0,3.3696,3.3872,3.3632,3.3355,3.314,3.3431,3.4159,3.5114,3.5842,3.6746,3.7751,3.8881,3.9772,4.0563,4.1441,4.2434,4.3503,4.4669,4.5422,4.5924,4.621,4.6286,4.6361,4.6612,4.6461,4.6461,4.6998,4.7324,4.7716,4.83,4.9079,4.9866,5.067,5.118,5.1607,5.195,5.2201,5.2377,5.2435,5.2678,5.303,5.3632,5.3934,5.4328,5.4906,5.4655,5.4587,5.4931,5.5458,5.5867,5.6075,5.6401,5.6828,5.738,5.7725,5.7523,5.6805,5.6805,5.643,5.5668,5.3455,5.2468,5.232,4.9127,4.775,4.7772,4.8052,4.7988,4.788,4.9126,4.8827,4.775,4.775,4.7141,4.6444,0.0,0.0,0.0,0.0,0.0,0.0,0.0,0.0,0.0,2.5298,2.4362,2.393,0.0,0.0,0.0,0.0,0.0,0.0,0.0,0.0,2.7415,2.832,2.8453,2.8975,3.0017,2.924,2.9887,3.2104,3.1063,3.1558,3.3571,3.3393,3.3327,3.3327,3.3327,3.3102,3.275,3.2914,3.3316,3.3746,3.3291,3.338,3.3746,0.0,3.314,3.3205,3.3366,3.4748,3.677,3.8441,3.8756,3.8655,3.9848,4.0889,4.1754,4.2436,4.3628,4.4855,4.5447,4.5949,4.6286,4.6286,4.6286,4.6411,4.6873,4.6622,4.6461,4.6998,4.7149,4.7375,4.7933,4.8937,5.0058,5.1138,5.2151,5.2837,5.2895,5.3364,5.3532,5.3063,5.3507,5.3858,5.3909,5.4403,5.4931,5.5483,5.5566,5.5616,5.5616,5.605,5.6552,5.7085,5.7186,5.7481,5.8001,5.8077,5.7364,5.5924,5.5924,5.6025,5.6115,5.3906,5.3804,5.5124,5.126,4.9595,4.9467,4.7858,4.8118,4.9595,4.9595,4.9424,4.9148,4.9106,4.7885,4.6196,0.0,0.0,0.0,0.0,0.0,0.0,0.0,0.0,0.0,0.0,2.5636,2.5105,0.0,0.0,0.0,0.0,0.0,0.0,0.0,0.0,0.0,2.8112,2.7346,2.7591,2.9099,2.8974,2.9769,3.1547,3.1327,3.1427,3.1803,3.0817,3.0348,3.0348,3.0348,3.054,3.0917,3.1928,3.2692,3.3241,3.314,3.3165,3.3241,3.3151,3.3391,0.0,3.4778,3.5944,3.7311,3.9007,4.0086,4.0988,4.2585,4.3212,4.3575,4.4633,4.5135,4.5447,4.6024,4.6225,4.6286,4.6286,4.6286,4.6311,4.6411,4.6361,4.6461,4.6998,4.745,4.7942,4.8526,4.9515,5.0494,5.1188,5.1825,5.2385,5.2837,5.3364,5.3658,5.3565,5.4077,5.4604,5.5039,5.5207,5.5483,5.6018,5.6477,5.6728,5.6728,5.6809,5.7129,5.7725,5.8158,5.8459,5.856,5.9006,5.9083,5.8791,5.8791,5.7874,5.6115,5.3906,5.2114,5.0715,4.9934,4.9595,4.9701,5.1177,5.0904,4.9595,4.9595,4.8483,4.6819,4.6484,4.6129,4.6005,0.0,0.0,0.0,0.0,0.0,0.0,0.0,2.7302,2.7604,2.8492,2.7677,2.7244,2.7743,2.7996,2.803,0.0,0.0,0.0,0.0,0.0,0.0,2.8969,2.848,2.858,2.9346,2.938,2.99,3.0984,0.0,3.0844,3.1386,3.0526,3.0269,3.0549,3.0818,3.1087,3.1398,3.2283,3.2828,3.309,3.309,3.309,3.314,3.3406,3.3847,0.0,3.5218,3.6409,3.7801,3.8906,4.0388,4.2021,4.3363,4.3976,4.4378,4.5261,4.5698,4.5974,4.6225,4.6286,4.6286,4.6286,4.6286,4.6361,4.6662,4.6512,4.6461,4.6998,4.7299,4.7666,4.8225,4.9464,5.0603,5.1214,5.1975,5.2711,5.3239,5.3557,5.3808,5.4127,5.4655,5.5107,5.5383,5.5917,5.6326,5.6602,5.7154,5.733,5.701,5.7562,5.8033,5.8328,5.8855,5.9131,5.9131,5.9382,5.9483,5.9463,5.7174,5.6713,5.7751,5.3251,5.1865,5.2962,5.1823,5.1323,5.1323,5.1219,5.1907,5.2919,5.1761,5.0544,4.9407,4.9428,4.7862,4.5817,0.0,0.0,0.0,0.0,0.0,0.0,0.0,2.7846,2.8197,2.9754,2.9669,2.9383,2.9283,2.9048,2.8784,0.0,0.0,0.0,0.0,0.0,0.0,0.0,2.9814,2.9814,2.9814,0.0,0.0,3.0588,3.0055,0.0,0.0,0.0,0.0,0.0,3.1677,3.1978,3.2229,3.2577,3.2889,0.0,0.0,3.3165,3.3366,0.0,0.0,0.0,0.0,3.6961,3.8291,3.8856,4.0376,4.221,4.3302,4.4091,4.4729,4.5321,4.5874,4.6286,4.6286,4.6286,4.6286,4.6286,4.6286,4.6411,4.6823,4.6612,4.6411,4.6848,4.7099,4.744,4.7983,4.9464,5.082,5.1523,5.2452,5.3264,5.3808,5.3984,5.4253,5.4723,5.5257,5.5616,5.5717,5.6502,5.7035,5.7179,5.7732,5.7857,5.7387,5.8334,5.8861,5.8861,5.9282,5.9483,5.9483,5.9483,5.9483,5.9444,5.5971,5.5871,5.8623,5.3394,5.2653,5.5409,5.4151,5.3599,5.3517,5.2239,5.3495,5.5968,5.367,5.2341,5.1688,5.1328,4.888,4.575,0.0,0.0,0.0,0.0,0.0,0.0,0.0,2.8455,2.9183,3.0372,3.0909,3.0984,3.0487,2.9524,2.9094,0.0,0.0,0.0,0.0,0.0,0.0,0.0,0.0,0.0,0.0,0.0,0.0,3.0588,3.0055,0.0,0.0,0.0,0.0,0.0,0.0,3.1301,3.2179,3.1738,0.0,0.0,0.0,0.0,0.0,0.0,0.0,0.0,0.0,3.8216,3.8894,3.9434,4.0412,4.1578,4.2724,4.379,4.4729,4.5321,4.5874,4.6286,4.6286,4.6286,4.6286,4.6286,4.6286,4.6311,4.6361,4.6351,4.6311,4.6361,4.7139,4.8008,4.8601,5.0083,5.1548,5.2586,5.3239,5.3833,5.4446,5.4931,5.5239,5.5333,5.5792,5.6326,5.6809,5.6935,5.723,5.7775,5.8309,5.861,5.856,5.9106,5.9433,5.9433,5.9458,5.9483,5.9483,5.9483,5.9483,5.9483,5.907,5.805,5.6479,5.5875,5.4723,5.3292,5.5107,5.5915,5.6028,5.7849,5.7652,5.5948,5.3341,5.1324,4.9491,4.6758,4.5715,4.5928,0.0,0.0,0.0,0.0,0.0,0.0,2.8355,2.848,2.9067,3.0859,3.1271,3.1321,3.111,3.0683,3.0231,2.9839,0.0,0.0,0.0,0.0,0.0,0.0,0.0,0.0,0.0,0.0,3.0397,3.0588,3.0708,0.0,0.0,0.0,0.0,0.0,0.0,3.1792,3.2204,3.2351,0.0,0.0,0.0,0.0,0.0,0.0,0.0,0.0,0.0,0.0,3.8969,3.9509,4.0412,4.1453,4.2261,4.3251,4.4303,4.5236,4.5648,4.5899,4.621,4.6286,4.6286,4.6286,4.6286,4.6286,4.6286,4.6562,4.6772,4.6772,4.7365,4.8083,4.8677,4.9882,5.1105,5.2234,5.3155,5.4009,5.4956,5.5541,5.5892,5.5892,5.6671,5.7154,5.701,5.7612,5.8259,5.883,5.9056,5.9182,5.9182,5.9382,5.9483,5.9483,5.9483,5.9483,5.9483,5.9483,5.9483,5.9463,5.8148,5.7751,5.8148,5.6797,5.6459,5.6936,5.779,5.8187,5.8143,5.7706,5.6995,5.6139,5.5402,5.3729,5.1804,5.2502,5.1659,5.029,0.0,0.0,0.0,0.0,0.0,2.7043,2.8656,2.8731,2.9327,3.1361,3.1637,3.1637,3.1637,3.1361,3.0859,3.0105,2.9889,0.0,0.0,0.0,0.0,0.0,0.0,0.0,0.0,0.0,3.0673,3.0849,3.121,3.1472,0.0,0.0,3.1637,3.1662,0.0,0.0,0.0,0.0,0.0,0.0,0.0,0.0,0.0,0.0,0.0,0.0,0.0,0.0,0.0,0.0,0.0,4.1642,4.206,4.2838,4.374,4.4733,4.5236,4.5587,4.5974,4.6175,4.6286,4.6286,4.6286,4.6286,4.6286,4.6697,4.7099,4.7099,4.7666,4.8335,4.8928,4.9916,5.1046,5.2159,5.3256,5.4378,5.5465,5.6118,5.6502,5.6677,5.7424,5.7801,5.7512,5.8384,5.9106,5.9458,5.9483,5.9483,5.9483,5.9483,5.9483,5.9483,5.9483,5.9483,5.9483,5.9483,5.9483,5.9463,5.7932,5.7991,5.9444,5.7869,5.8031,5.9483,5.9483,5.9483,5.9392,5.7976,5.7411,5.738,5.6969,5.5764,5.4423,5.5766,5.4879,5.309,0.0,0.0,0.0,0.0,0.0,0.0,2.8656,2.9393,3.0357,3.1978,3.2204,3.2204,3.2204,3.125,3.0588,3.0588,3.0105,0.0,0.0,0.0,0.0,0.0,0.0,0.0,0.0,0.0,3.0849,3.1396,3.1396,3.1662,3.2204,3.2204,3.2204,3.2204,0.0,0.0,0.0,0.0,0.0,0.0,0.0,0.0,3.5683,0.0,0.0,0.0,0.0,0.0,0.0,0.0,0.0,0.0,0.0,4.2576,4.3101,4.3664,4.4633,4.5512,4.5512,4.5899,4.6286,4.6286,4.6286,4.6286,4.6286,4.6697,4.7099,4.7099,4.8008,4.8953,4.949,5.0535,5.1624,5.2711,5.3833,5.4956,5.6043,5.6634,5.7211,5.7801,5.7901,5.8102,5.8635,5.9182,5.9483,5.9483,5.9483,5.9483,5.9483,5.9483,5.9483,5.9483,5.9483,5.9483,5.9483,5.9483,5.9483,5.9483,5.9489,5.9489,5.9483,5.9489,5.9489,5.9483,5.9483,5.9483,5.9533,6.0046,6.0272,6.0001,5.7407,5.6645,5.6591,5.3503,5.2579,5.2901,0.0,0.0,0.0,0.0,0.0,0.0,0.0,2.8514,2.9217,3.0899,3.11,3.125,3.1612,3.1024,3.0748,3.111,3.0316,0.0,0.0,0.0,0.0,0.0,0.0,0.0,0.0,0.0,3.1235,3.1396,3.2175,3.2652,3.2813,3.2813,3.2813,3.2813,3.2813,0.0,0.0,0.0,0.0,0.0,0.0,3.5266,3.6244,0.0,0.0,0.0,0.0,0.0,0.0,0.0,0.0,0.0,0.0,0.0,0.0,4.3201,4.4041,4.498,4.5372,4.5899,4.6386,4.6763,4.6587,4.6486,4.723,4.7516,4.7767,4.8174,4.8853,4.9515,5.0067,5.0787,5.1917,5.3775,5.468,5.5659,5.7148,5.7524,5.77,5.7876,5.8227,5.866,5.9207,5.9408,5.9483,5.9483,5.9483,5.9483,5.9483,5.9483,5.9483,5.9483,5.9483,5.9483,5.9483,5.9483,5.9483,5.9483,5.9483,5.9483,5.9483,5.9483,5.9483,5.9483,5.9483,5.9709,6.0041,6.0217,5.9638,5.875,5.9826,5.9362,5.8228,5.8737,5.8778,5.8519,0.0,0.0,0.0,0.0,0.0,0.0,0.0,2.8138,2.8866,3.0121,3.0472,3.0799,3.1346,3.0733,3.0608,3.1346,3.0608,0.0,0.0,0.0,0.0,0.0,0.0,0.0,0.0,3.0959,3.1497,3.1712,3.2627,3.309,3.309,3.309,3.309,3.309,3.309,3.309,0.0,0.0,0.0,0.0,3.4703,3.5378,3.6494,0.0,0.0,0.0,0.0,0.0,0.0,0.0,0.0,0.0,0.0,0.0,0.0,0.0,4.3765,4.4729,4.5321,4.5723,4.6175,4.6923,4.6848,4.6788,4.744,4.7933,4.835,4.8718,4.938,5.0017,5.0327,5.1071,5.2118,5.3683,5.4604,5.5609,5.7047,5.7625,5.8052,5.8453,5.8805,5.9112,5.9458,5.9483,5.9483,5.9483,5.9483,5.9483,5.9483,5.9483,5.9483,5.9483,5.9483,5.9483,5.9483,5.9483,5.9483,5.9483,5.9483,5.9483,5.9483,5.9483,5.9608,5.9784,5.9583,5.9809,0.0,6.0292,5.9717,5.8992,6.0672,6.0515,5.9451,6.0612,6.0839,6.0389,0.0,0.0,0.0,0.0,0.0,0.0,0.0,2.8138,2.9007,2.9654,3.0171,3.0698,3.122,3.0392,3.0241,3.1321,0.0,0.0,0.0,0.0,0.0,0.0,0.0,0.0,3.0588,3.116,3.1712,3.2204,3.2803,3.309,3.309,3.309,3.309,3.309,3.309,3.309,0.0,0.0,0.0,0.0,3.4753,3.5429,0.0,0.0,0.0,0.0,0.0,0.0,0.0,0.0,0.0,0.0,0.0,0.0,0.0,0.0,0.0,0.0,0.0,4.5512,4.5748,4.6772,4.7048,4.7074,4.7199,4.8033,0.0,4.8843,4.9665,5.0402,5.0452,5.1331,5.2277,5.2962,5.3934,5.5006,5.6168,5.7273,5.8328,5.9307,5.9483,5.9483,5.9483,5.9483,5.9483,5.9483,5.9483,5.9483,5.9483,5.9483,5.9483,5.9483,5.9483,5.9483,5.9483,5.9483,5.9483,5.9483,5.9458,5.9433,5.9433,5.9433,5.9689,6.0166,5.9709,5.9809,6.0292,6.0292,6.0317,6.0367,6.0367,6.0367,6.0292,5.9759,5.9461,5.9023,0.0,0.0,0.0,0.0,0.0,0.0,0.0,0.0,0.0,0.0,2.9233,2.9509,3.0105,2.9965,3.0241,0.0,0.0,0.0,0.0,0.0,0.0,0.0,0.0,0.0,3.0588,3.1526,3.2079,3.2204,3.2803,3.309,3.309,3.309,3.309,3.309,3.309,3.309,0.0,0.0,0.0,0.0,3.5143,3.5743,0.0,0.0,0.0,0.0,3.868,3.9346,0.0,0.0,0.0,0.0,0.0,0.0,0.0,0.0,4.3503,4.3678,4.511,0.0,4.5663,4.6311,4.6486,4.6813,0.0,4.8601,4.8919,4.933,4.9941,5.0528,5.0996,5.1314,5.2218,5.4436,5.468,5.5282,5.7223,5.8083,5.8604,5.8849,5.9251,5.9483,5.9483,5.9483,5.9483,5.9483,5.9483,5.9483,5.9483,5.9483,5.9483,5.9483,5.9483,5.9483,5.9483,5.9483,5.9483,5.9483,5.9062,5.8886,5.8886,5.8886,5.8961,5.9087,5.9382,5.9809,6.0292,6.0292,6.0588,6.1009,6.1009,6.1009,6.0934,6.0337,5.9039,5.7442,0.0,0.0,0.0,0.0,0.0,0.0,0.0,0.0,0.0,0.0,0.0,2.9132,2.9729,0.0,0.0,0.0,0.0,0.0,0.0,0.0,0.0,0.0,0.0,3.0824,3.1315,3.1893,3.234,3.2616,3.2939,3.309,3.309,3.309,3.309,3.309,3.309,3.309,0.0,0.0,0.0,3.4753,3.5282,0.0,0.0,0.0,0.0,0.0,3.8379,3.9007,0.0,4.06,4.1076,4.1453,0.0,0.0,0.0,0.0,4.3402,4.3503,4.4181,4.4532,4.502,4.6336,4.6687,4.7039,4.8476,4.8978,4.9254,4.954,5.0042,5.0503,5.082,5.1523,5.2603,5.4336,5.4805,5.5659,5.7625,5.8152,5.8529,5.9,5.9106,5.9232,5.9483,5.9483,5.9483,5.9483,5.9483,5.9483,5.9483,5.9483,5.9483,5.9483,5.9257,5.9257,5.9483,5.9257,5.9112,5.9131,5.8604,5.8459,5.871,5.871,5.8961,5.9438,5.9483,5.9809,6.0292,6.0016,6.0136,6.0431,6.0431,6.0431,6.0362,6.006,5.9181,5.8097,0.0,0.0,0.0,0.0,0.0,0.0,0.0,0.0,0.0,0.0,0.0,0.0,0.0,0.0,0.0,0.0,0.0,0.0,0.0,0.0,0.0,0.0,0.0,3.1215,3.2054,3.2254,3.2591,3.309,3.309,3.314,3.3215,3.3215,3.3215,3.3215,3.3215,3.3215,0.0,0.0,3.4338,3.4879,3.5431,0.0,0.0,0.0,0.0,0.0,0.0,0.0,0.0,4.075,4.1163,4.1478,4.2434,0.0,0.0,0.0,0.0,0.0,4.3377,4.3653,4.4468,4.617,4.6798,4.7239,4.82,4.8978,4.948,4.948,5.0042,5.0553,5.0653,5.1958,5.3239,5.3858,5.4913,5.6168,5.77,5.7976,5.8403,5.9382,5.9106,5.8987,5.9458,5.9483,5.9483,5.9483,5.9483,5.9483,5.9483,5.9408,5.9382,5.9382,5.8861,5.8805,5.9232,5.8786,5.8585,5.856,5.8127,5.8152,5.8585,5.866,5.9187,6.0041,5.9659,5.9759,6.0141,5.9684,5.9483,5.9483,5.9483,5.9483,5.9483,5.9483,5.9289,5.8895,0.0,0.0,0.0,0.0,0.0,0.0,0.0,0.0,0.0,0.0,0.0,0.0,0.0,0.0,0.0,0.0,0.0,0.0,0.0,0.0,0.0,3.2813,3.2265,3.1813,3.1522,3.2476,3.3014,3.309,3.309,3.333,3.3771,3.3771,3.3771,3.3771,3.3771,3.3771,3.3796,3.4338,3.4904,3.5444,3.6018,0.0,0.0,0.0,0.0,0.0,0.0,0.0,0.0,3.9898,4.0563,4.1314,4.1503,0.0,0.0,0.0,0.0,0.0,4.4378,4.4794,4.5085,4.4468,4.5357,4.6461,4.6637,4.7848,4.8919,4.8919,5.0108,5.1314,5.1774,5.2804,5.3909,5.4981,5.605,5.7029,5.7801,5.8284,5.8811,5.9433,5.9433,5.9408,5.9483,5.9483,5.9483,5.9483,5.9483,5.9483,5.9483,5.9062,5.8811,5.8811,5.8284,5.8052,5.8152,5.8052,5.8027,5.8027,5.7951,5.7951,5.8052,5.8485,5.8786,5.8961,5.9332,5.9533,5.9608,5.9533,5.9483,5.9483,5.9483,5.9483,5.9483,5.9483,5.8305,5.6175,0.0,0.0,0.0,0.0,0.0,0.0,0.0,0.0,0.0,0.0,0.0,0.0,0.0,0.0,0.0,0.0,0.0,0.0,0.0,0.0,0.0,3.2627,3.2652,3.2577,3.2326,3.2839,3.338,3.3972,3.3972,3.4237,3.4753,3.4162,3.3897,3.3897,3.3897,3.3897,3.3947,3.4778,3.5456,3.6006,0.0,0.0,0.0,0.0,0.0,0.0,0.0,0.0,0.0,0.0,4.0462,4.0976,4.158,0.0,0.0,0.0,0.0,0.0,4.4589,4.5045,4.5422,4.5221,4.6627,4.8234,4.8862,5.0042,5.0921,5.0645,5.1214,5.18,5.2051,5.298,5.426,5.5993,5.6953,5.7681,5.8271,5.8554,5.8886,5.9433,5.9257,5.9182,5.9458,5.9257,5.9081,5.9081,5.8805,5.8629,5.8629,5.8403,5.8278,5.8278,5.7706,5.7405,5.7405,5.7405,5.76,5.7901,5.7556,5.7732,5.8334,5.8585,5.8861,5.9156,5.9382,5.9483,5.9483,5.9483,5.9483,5.9483,5.9483,5.9483,5.9483,5.9483,5.8857,5.7534,0.0,0.0,0.0,0.0,0.0,0.0,0.0,0.0,0.0,0.0,0.0,0.0,0.0,0.0,0.0,0.0,0.0,0.0,0.0,0.0,3.2878,3.243,3.2853,3.304,3.2878,3.3165,3.3757,3.4703,3.4703,3.4968,3.5483,3.4653,3.4262,3.4262,3.4137,3.4173,3.4338,3.5143,3.5919,3.6594,0.0,0.0,0.0,0.0,0.0,0.0,0.0,0.0,0.0,0.0,0.0,0.0,0.0,0.0,0.0,4.3865,4.4478,4.498,4.4855,4.5332,4.5974,4.6386,4.7767,4.9339,5.0611,5.1632,5.231,5.2285,5.2503,5.2754,5.303,5.3959,5.529,5.7085,5.7782,5.8227,5.8648,5.8805,5.9056,5.9458,5.9156,5.9056,5.9458,5.9131,5.8836,5.871,5.8328,5.8027,5.7901,5.7775,5.77,5.77,5.7129,5.686,5.6985,5.6985,5.723,5.77,5.7506,5.7857,5.871,5.8836,5.9106,5.9483,5.9483,5.9483,5.9483,5.9483,5.9483,5.9483,5.9483,5.9483,5.9483,5.9483,5.9483,5.9192,0.0,0.0,0.0,0.0,0.0,0.0,0.0,0.0,0.0,0.0,0.0,0.0,0.0,0.0,0.0,0.0,0.0,0.0,0.0,0.0,3.309,3.304,3.3065,3.2828,3.2279,3.3294,3.4112,3.4703,3.4703,3.4968,3.5508,3.5408,3.5382,3.5357,3.4867,3.4929,3.5382,3.5458,3.6133,3.7148,3.7148,0.0,0.0,0.0,0.0,0.0,0.0,0.0,0.0,0.0,0.0,0.0,0.0,0.0,4.4489,4.4529,4.5332,4.606,4.5573,4.6185,4.6998,4.7023,4.7174,4.7701,4.9339,5.0167,5.1005,5.2536,5.3683,5.4705,5.5717,5.6846,5.7826,5.8459,5.861,5.866,5.8685,5.9131,5.9458,5.9483,5.9458,5.9458,5.9483,5.9458,5.9232,5.8736,5.866,5.8434,5.7926,5.738,5.706,5.706,5.6552,5.6502,5.6985,5.6985,5.701,5.7085,5.8108,5.8635,5.871,5.9232,5.9458,5.9483,5.9483,5.9483,5.9483,5.9483,5.9483,5.9483,5.9483,5.9483,5.9483,5.9483,5.9483,5.9192,0.0,0.0,0.0,0.0,0.0,0.0,0.0,0.0,0.0,0.0,0.0,0.0,0.0,0.0,0.0,0.0,0.0,0.0,0.0,3.2405,3.2702,3.309,3.309,3.3154,3.3258,3.4011,3.5166,3.6747,3.7136,3.7036,3.6521,3.5481,3.5193,3.5483,3.4942,3.4993,3.5508,3.5894,3.6684,3.7663,3.7324,3.7625,0.0,0.0,0.0,0.0,0.0,0.0,0.0,0.0,4.0462,4.1026,4.2297,4.3352,4.4227,4.4945,4.5683,4.6276,4.605,4.7054,4.8159,4.8159,4.8645,4.9499,5.0845,5.2101,5.3298,5.426,5.4805,5.5232,5.5616,5.662,5.7531,5.8127,5.8485,5.8811,5.9156,5.9382,5.9483,5.9483,5.9483,5.9483,5.9483,5.8905,5.8428,5.8227,5.7531,5.7072,5.6853,5.6627,5.6502,5.6502,5.6627,5.6784,5.6985,5.7688,5.8058,5.8058,5.851,5.8861,5.9207,5.9408,5.9483,5.9483,5.9483,5.9483,5.9483,5.9483,5.9483,5.9483,5.9483,5.9483,5.9483,5.9483,5.9483,5.9192,0.0,0.0,0.0,0.0,0.0,0.0,0.0,0.0,0.0,0.0,0.0,0.0,0.0,0.0,0.0,0.0,0.0,0.0,3.1903,3.2104,3.2466,3.3065,3.309,3.3431,3.4137,3.4865,3.6157,3.8002,3.8605,3.8128,3.6634,3.5481,3.5143,3.5483,3.5118,3.5244,3.5819,3.623,3.6909,3.7739,3.7538,3.7927,0.0,0.0,0.0,0.0,0.0,0.0,0.0,0.0,4.0889,4.1304,4.2774,4.3614,4.4292,4.5422,4.625,4.6838,4.7029,4.7923,4.8919,4.9471,5.0142,5.1021,5.2327,5.3482,5.4604,5.5691,5.6194,5.6445,5.6445,5.7179,5.7932,5.8353,5.8704,5.9062,5.9433,5.9483,5.9483,5.9483,5.9483,5.9433,5.9257,5.8579,5.8001,5.7631,5.6878,5.6376,5.62,5.6351,5.6451,5.6451,5.7004,5.738,5.7556,5.8309,5.8786,5.8936,5.8936,5.9137,5.9483,5.9483,5.9483,5.9483,5.9483,5.9483,5.9483,5.9483,5.9483,5.9483,5.9483,5.9483,5.9483,5.9483,5.9483,5.9289,0.0,0.0,0.0,0.0,0.0,0.0,0.0,0.0,0.0,0.0,0.0,0.0,0.0,0.0,0.0,0.0,0.0,0.0,3.1396,3.1903,3.2466,3.3065,3.309,3.3607,3.4678,3.5828,3.6934,3.8002,3.8605,3.7739,3.5508,3.5483,3.5483,3.5508,3.5508,3.5844,3.6393,3.6393,3.6708,3.7248,3.7789,3.8002,3.8065,0.0,0.0,0.0,0.0,0.0,0.0,0.0,4.1706,4.24,4.3478,4.4177,4.4815,4.5959,4.7039,4.8033,4.8601,4.8793,4.922,5.0862,5.1314,5.1741,5.3356,5.3708,5.4336,5.6533,5.7888,5.8685,5.8685,5.9131,5.9483,5.9483,5.9483,5.9483,5.9483,5.9483,5.9483,5.9483,5.9483,5.9307,5.8761,5.871,5.8234,5.7085,5.6985,5.6778,5.6244,5.6728,5.6985,5.701,5.7581,5.8177,5.8685,5.871,5.8961,5.9483,5.9483,5.9483,5.9483,5.9483,5.9483,5.9483,5.9483,5.9483,5.9483,5.9483,5.9483,5.9483,5.9483,5.9483,5.9483,5.9483,5.9483,5.9483,0.0,0.0,0.0,0.0,0.0,0.0,0.0,0.0,0.0,0.0,0.0,0.0,0.0,0.0,0.0,0.0,0.0,0.0,3.1396,3.1903,3.2279,3.2466,3.2878,3.3607,3.4678,3.6558,3.7688,3.8002,3.8191,3.7325,3.5483,3.5118,3.5143,3.5508,3.5508,3.5844,3.6393,3.6393,3.6708,3.7248,3.7789,3.8241,3.873,0.0,0.0,0.0,0.0,0.0,0.0,0.0,0.0,0.0,4.3915,4.4478,4.4815,4.5959,4.6512,4.6813,4.7004,4.8777,5.0485,5.0184,5.1867,5.3743,5.4202,5.4629,5.5189,5.6226,5.7004,5.7487,5.7487,5.8284,5.8936,5.8936,5.9257,5.9483,5.9483,5.9483,5.9483,5.9483,5.9483,5.9433,5.9282,5.8579,5.8001,5.7675,5.6878,5.6527,5.6734,5.691,5.7186,5.7606,5.8158,5.8535,5.871,5.9062,5.9332,5.9483,5.9483,5.9483,5.9483,5.9483,5.9483,5.9483,5.9483,5.9483,5.9483,5.9483,5.9483,5.9483,5.9483,5.9483,5.9483,5.9483,5.9483,5.9483,0.0,0.0,0.0,0.0,0.0,0.0,0.0,0.0,3.1838,3.2154,3.2416,3.2591,0.0,0.0,0.0,3.2229,3.1903,0.0,3.1712,3.2028,3.2305,3.2541,3.2914,3.3607,3.4678,3.6659,3.7462,3.7011,3.7462,3.6734,3.4879,3.4968,3.5068,3.5218,3.5882,3.612,3.6056,3.6532,3.6783,3.6959,3.7688,3.8492,3.9308,0.0,0.0,0.0,0.0,0.0,0.0,0.0,0.0,0.0,4.4518,4.4955,4.5206,4.6552,4.7415,4.8068,4.8746,5.0544,5.2268,5.2226,5.3575,5.5031,5.5458,5.5641,5.5942,5.6721,5.7129,5.743,5.7637,5.8409,5.9012,5.9012,5.9282,5.9483,5.9483,5.9483,5.9483,5.9483,5.9483,5.9408,5.9207,5.8403,5.7801,5.7556,5.6903,5.6652,5.6985,5.7437,5.7857,5.8202,5.8755,5.9012,5.9012,5.9332,5.9483,5.9483,5.9483,5.9483,5.9483,5.9483,5.9483,5.9483,5.9483,5.9483,5.9483,5.9483,5.9483,5.9483,5.9483,5.9483,5.9483,5.9483,5.9483,5.9483,0.0,0.0,2.9157,0.0,0.0,0.0,0.0,3.1863,3.2204,3.2204,3.2727,3.2878,0.0,0.0,0.0,3.234,3.2279,3.2254,3.2204,3.2254,3.2516,3.2989,3.3165,3.3732,3.4753,3.6257,3.6496,3.5433,3.6496,3.5968,3.3922,3.4993,3.5244,3.4853,3.6458,3.6622,3.572,3.6709,3.6859,3.6569,3.76,3.8642,3.9697,4.0287,0.0,0.0,0.0,0.0,0.0,0.0,0.0,0.0,4.516,4.5512,4.5813,4.7305,4.8946,5.0578,5.2109,5.3088,5.4059,5.5573,5.5717,5.5717,5.6684,5.6602,5.6552,5.76,5.7901,5.8127,5.861,5.9156,5.9483,5.9483,5.9483,5.9483,5.9483,5.9483,5.9483,5.9483,5.9483,5.9307,5.8811,5.8234,5.77,5.7186,5.706,5.7035,5.7136,5.8158,5.8736,5.8761,5.9257,5.9483,5.9483,5.9483,5.9483,5.9483,5.9483,5.9483,5.9483,5.9483,5.9483,5.9483,5.9483,5.9483,5.9483,5.9483,5.9483,5.9483,5.9483,5.9483,5.9483,5.9483,5.9483,5.9483,0.0,0.0,2.9779,3.0322,0.0,0.0,3.1321,3.1863,3.2204,3.2204,3.2727,3.3065,3.2903,3.3014,0.0,3.2903,3.2914,3.2702,3.2229,3.2641,3.2753,3.2416,3.366,3.4653,3.5307,3.567,3.5545,3.4867,3.5545,3.518,3.3922,3.4993,3.5433,3.5382,3.6634,3.7073,3.681,3.6658,3.6758,3.7073,3.7739,3.8417,3.9195,4.0149,4.0826,0.0,0.0,0.0,0.0,0.0,0.0,0.0,4.5271,4.5512,4.5648,4.6426,4.7832,4.9229,4.9581,5.1649,5.3783,5.416,5.5139,5.6093,5.6326,5.6602,5.6885,5.7136,5.7907,5.856,5.8685,5.9156,5.9483,5.9483,5.9483,5.9483,5.9483,5.9483,5.9483,5.9483,5.9483,5.9458,5.9332,5.8453,5.8027,5.8309,5.7506,5.7387,5.8284,5.856,5.8886,5.9307,5.9433,5.9483,5.9483,5.9483,5.9483,5.9483,5.9483,5.9483,5.9483,5.9483,5.9483,5.9483,5.9483,5.9483,5.9483,5.9483,5.9483,5.9483,5.9483,5.9483,5.9483,5.9483,5.9483,5.9483,0.0,0.0,0.0,0.0,0.0,0.0,0.0,0.0,3.2204,3.2204,3.2727,3.2989,3.2692,3.2677,0.0,0.0,3.2677,3.2652,3.2616,3.2939,3.2964,3.2641,3.3961,3.4577,3.4363,3.5118,3.4993,3.3922,3.4463,3.4438,3.3922,3.4728,3.5244,3.5558,3.6684,3.6746,3.6056,3.6847,3.7034,3.6909,3.8002,3.8931,3.9735,4.0287,4.0826,4.1378,4.1984,0.0,0.0,0.0,0.0,0.0,0.0,0.0,4.605,4.6813,4.7898,4.9044,5.0083,5.2,5.3884,5.4712,5.5566,5.6251,5.6527,5.7029,5.7506,5.7757,5.8284,5.8786,5.9056,5.9307,5.9483,5.9483,5.9483,5.9483,5.9483,5.9483,5.9483,5.9483,5.9483,5.9408,5.9137,5.861,5.8284,5.8328,5.8008,5.8083,5.866,5.8936,5.9207,5.9483,5.9483,5.9483,5.9483,5.9483,5.9483,5.9483,5.9483,5.9483,5.9483,5.9483,5.9483,5.9483,5.9483,5.9483,5.9483,5.9483,5.9483,5.9483,5.9483,5.9483,5.9483,5.9483,5.9659,5.9885,0.0,0.0,0.0,0.0,0.0,0.0,0.0,0.0,0.0,3.2079,3.2677,3.2864,3.2254,3.2204,3.2154,0.0,0.0,0.0,3.2903,3.304,3.314,3.323,3.4087,3.4187,3.338,3.4577,3.4577,3.3241,3.3581,3.3847,3.4048,3.4577,3.513,3.5695,3.6734,3.6433,3.5241,3.7074,3.7399,3.682,3.8303,3.9484,4.0362,4.0362,4.0675,4.1252,4.182,4.216,4.2576,4.4077,0.0,0.0,0.0,0.0,4.6461,4.7365,4.8174,4.9195,5.1021,5.2603,5.411,5.5774,5.62,5.6351,5.6885,5.7455,5.8052,5.8585,5.8761,5.8961,5.9408,5.9483,5.9483,5.9483,5.9483,5.9483,5.9483,5.9483,5.9483,5.9483,5.9483,5.9332,5.8886,5.8761,5.8535,5.8202,5.8485,5.8736,5.8836,5.9257,5.9483,5.9483,5.9483,5.9483,5.9483,5.9483,5.9483,5.9483,5.9483,5.9483,5.9483,5.9483,5.9483,5.9483,5.9483,5.9483,5.9483,5.9483,5.9483,5.9483,5.9483,5.9558,5.9633,5.9633,5.9985,6.0462,0.0,0.0,0.0,0.0,0.0,0.0,0.0,0.0,0.0,0.0,3.2437,3.2864,3.2254,3.2204,3.2003,3.1547,3.1938,3.2229,3.2305,0.0,0.0,3.3771,3.3922,3.4173,3.4488,3.4237,3.4022,3.3796,3.3416,3.3671,3.4603,3.5143,3.5718,3.6318,3.6934,3.7073,3.6897,3.7173,3.7487,3.7839,3.8592,3.9258,3.981,3.981,4.0149,4.0688,4.1227,4.2044,4.3076,4.4202,4.4955,0.0,0.0,0.0,4.6311,4.6461,4.7597,4.8868,4.9154,5.1414,5.411,5.5774,5.62,5.6351,5.6885,5.7455,5.8052,5.8585,5.9062,5.9408,5.9483,5.9483,5.9483,5.9483,5.9483,5.9483,5.9483,5.9483,5.9483,5.9483,5.9483,5.9458,5.9408,5.8961,5.8861,5.9257,5.8911,5.8886,5.9357,5.9458,5.9483,5.9483,5.9483,5.9483,5.9483,5.9483,5.9483,5.9483,5.9483,5.9483,5.9483,5.9483,5.9483,5.9483,5.9483,5.9483,5.9483,5.9483,5.9483,5.9483,5.9483,5.9784,6.0191,6.0191,6.0563,6.1085,0.0,0.0,0.0,0.0,0.0,0.0,0.0,0.0,0.0,0.0,0.0,3.2763,3.1838,3.1763,3.1537,3.1009,3.1175,3.1552,3.2154,3.2753,3.3215,3.3431,3.3746,3.3872,3.3796,3.3872,3.3746,3.3456,3.3215,3.3657,3.4703,3.5244,3.5819,3.6393,3.6644,3.6758,3.6783,3.7399,3.7789,3.809,3.8982,4.0049,4.1029,4.0375,4.0877,4.1882,4.1845,4.2135,4.2763,4.4127,4.4579,4.4744,4.5924,0.0,0.0,0.0,4.6828,4.7823,4.9681,5.1699,5.3715,5.5717,5.6426,5.6803,5.738,5.7932,5.8485,5.9056,5.9332,5.9483,5.9483,5.9483,5.9483,5.9483,5.9483,5.9483,5.9483,5.9483,5.9483,5.9483,5.9483,5.9382,5.9062,5.9106,5.9131,5.9056,5.9106,5.9257,5.9483,5.9483,5.9483,5.9483,5.9483,5.9483,5.9483,5.9483,5.9483,5.9483,5.9483,5.9483,5.9483,5.9483,5.9483,5.9483,5.9483,5.9483,5.9483,5.9483,5.9483,5.9533,5.9834,6.0091,6.0342,6.0688,6.1165,6.1642,0.0,0.0,0.0,0.0,0.0,0.0,0.0,0.0,0.0,0.0,0.0,3.2552,3.1698,0.0,0.0,0.0,3.0588,3.105,3.2129,3.2616,3.2939,3.309,3.3481,3.3506,3.3115,3.3481,3.3506,3.309,3.309,3.3732,3.4917,3.5307,3.5969,3.6808,3.6808,3.6808,3.6859,3.7814,3.8316,3.8567,3.9986,4.1306,4.2375,4.2082,4.276,4.3754,4.3065,0.0,0.0,0.0,4.4227,4.4252,4.5633,4.5924,0.0,0.0,0.0,4.6979,5.0033,5.1548,5.2837,5.5214,5.6301,5.7004,5.7725,5.8309,5.8836,5.9382,5.9483,5.9483,5.9483,5.9483,5.9483,5.9483,5.9483,5.9483,5.9483,5.9483,5.9483,5.9483,5.9483,5.9332,5.8936,5.9282,5.9332,5.8936,5.9282,5.9483,5.9483,5.9483,5.9483,5.9483,5.9483,5.9483,5.9483,5.9483,5.9483,5.9483,5.9483,5.9483,5.9483,5.9483,5.9483,5.9483,5.9483,5.9483,5.9508,5.9633,5.9709,5.9759,6.0311,6.0593,6.0794,6.124,6.1743,6.2199,0.0,0.0,0.0,0.0,0.0,0.0,0.0,0.0,0.0,0.0,0.0,3.2229,3.2144,3.1712,3.1185,3.0648,3.0588,3.105,3.2129,3.2229,3.2516,3.3065,3.3115,0.0,3.309,3.3115,3.3115,3.309,3.309,3.3897,3.5458,3.5483,3.6347,3.7914,3.7914,3.7914,3.7965,0.0,0.0,3.9798,4.1945,4.2875,4.3176,4.5221,0.0,0.0,0.0,0.0,0.0,0.0,0.0,0.0,0.0,4.5874,4.6261,0.0,0.0,0.0,4.9063,5.0117,5.1205,5.3976,5.5465,5.6527,5.765,5.8309,5.8836,5.9382,5.9483,5.9483,5.9483,5.9483,5.9483,5.9483,5.9483,5.9483,5.9483,5.9483,5.9483,5.9483,5.9483,5.9483,5.9458,5.9483,5.9483,5.9458,5.9483,5.9483,5.9483,5.9483,5.9483,5.9483,5.9483,5.9483,5.9483,5.9483,5.9483,5.9483,5.9483,5.9483,5.9483,5.9483,5.9483,5.9483,5.9483,5.9483,5.9533,6.0041,6.0267,6.0317,6.0914,6.1466,6.1918,6.1943,6.23,6.2777,0.0,0.0,0.0,0.0,0.0,0.0,0.0,0.0,0.0,0.0,0.0,0.0,0.0,0.0,0.0,3.1135,3.1426,3.1803,3.2179,3.2566,3.2878,3.309,3.309,3.309,3.309,3.309,3.309,3.309,3.309,3.3757,3.4993,3.5332,3.6397,3.8002,3.8002,3.8216,3.858,3.8818,0.0,0.0,4.2247,4.3854,4.5246,0.0,0.0,0.0,0.0,0.0,0.0,0.0,0.0,0.0,0.0,0.0,4.5849,4.62,4.6286,4.6728,4.8576,4.948,5.0469,5.2904,5.4863,5.6401,5.7154,5.8284,5.9282,5.9458,5.9483,5.9483,5.9483,5.9483,5.9483,5.9483,5.9483,5.9483,5.9483,5.9483,5.9483,5.9483,5.9809,5.9885,5.9533,5.9809,5.9885,5.9533,5.9483,5.9483,5.9483,5.9483,5.9483,5.9483,5.9483,5.9483,5.9483,5.9483,5.9483,5.9483,5.9483,5.9483,5.9483,5.9483,5.9483,5.9508,5.9859,5.9991,6.0035,6.0217,6.0537,6.0939,6.1492,6.1843,6.2044,6.2375,6.2626,6.2802,0.0,0.0,0.0,0.0,0.0,3.2914,3.2279,3.2541,3.2641,0.0,0.0,0.0,0.0,0.0,0.0,3.1421,3.1738,3.2003,3.2204,3.2566,3.2889,3.309,3.309,3.318,3.3355,3.319,3.319,3.3355,3.319,3.3746,3.4968,3.5332,3.6498,3.8291,3.8291,3.8818,0.0,0.0,0.0,4.1254,0.0,0.0,4.6225,0.0,0.0,0.0,0.0,0.0,0.0,0.0,0.0,0.0,0.0,0.0,0.0,0.0,4.6286,4.6562,4.7883,4.8777,4.9866,5.2084,5.3992,5.5698,5.7004,5.8177,5.9056,5.9433,5.9483,5.9483,5.9483,5.9483,5.9483,5.9483,5.9483,5.9483,5.9483,5.9483,5.9483,5.9483,5.9966,6.0091,5.9558,6.001,6.0085,5.9533,5.9483,5.9483,5.9483,5.9483,5.9483,5.9483,5.9483,5.9483,5.9483,5.9483,5.9483,5.9483,5.9483,5.9483,5.9483,5.9483,5.9583,5.9784,6.0141,6.0292,6.0317,6.0719,6.1115,6.1517,6.2069,6.2275,6.23,6.2676,6.2802,6.2802,0.0,0.0,0.0,0.0,3.309,3.2903,3.2305,3.2229,3.2229,0.0,0.0,0.0,0.0,0.0,0.0,3.1472,3.1446,3.1662,3.2204,3.2229,3.2491,3.3065,3.309,3.3366,3.3897,3.338,3.338,3.3897,3.338,3.3922,3.5483,3.5483,3.671,3.8894,3.8919,3.9798,4.1289,0.0,4.163,4.25,0.0,4.6461,4.6039,0.0,0.0,0.0,4.9766,4.9741,0.0,0.0,0.0,0.0,0.0,0.0,0.0,0.0,0.0,4.6411,0.0,0.0,0.0,5.1473,5.2829,5.4386,5.7148,5.7801,5.8127,5.9232,5.9433,5.9458,5.9483,5.9483,5.9483,5.9483,5.9483,5.9483,5.9483,5.9483,5.9483,5.9483,5.996,6.0066,5.9533,5.994,6.0041,5.9533,5.9483,5.9483,5.9483,5.9483,5.9483,5.9483,5.9483,5.9483,5.9483,5.9483,5.9483,5.9483,5.9483,5.9508,5.9508,5.9508,5.9809,6.0317,6.0317,6.0342,6.0442,6.1542,6.2019,6.2094,6.2601,6.2802,6.2802,6.2802,6.2802,6.2802,0.0,0.0,0.0,3.309,3.309,3.304,3.2889,3.2853,3.2853,0.0,0.0,0.0,0.0,0.0,0.0,3.2039,3.2376,3.2677,3.2828,3.2853,3.2939,3.309,3.309,3.3366,3.3897,3.3746,3.3757,3.3897,3.3757,3.4123,3.4917,3.5319,3.671,3.8919,3.9308,4.0174,4.1239,4.0462,0.0,0.0,4.4604,4.6562,0.0,0.0,0.0,0.0,0.0,5.303,0.0,0.0,5.1071,4.8953,0.0,0.0,0.0,0.0,0.0,0.0,4.6486,0.0,0.0,0.0,0.0,0.0,5.4511,5.5491,5.652,5.8027,5.8353,5.8579,5.9357,5.9483,5.9483,5.9483,5.9483,5.9483,5.9483,5.9483,5.9357,5.8961,5.9388,5.9508,5.8961,5.9408,5.9659,5.9508,5.9483,5.9483,5.9483,5.9483,5.9483,5.9483,5.9483,5.9483,5.9483,5.9483,5.9483,5.9483,5.9483,5.9709,6.0066,5.9684,6.0035,6.0939,6.0939,6.1165,6.1547,6.1868,6.2225,6.2601,6.2752,6.2802,6.2802,6.2802,6.2802,6.2802,0.0,0.0,3.3763,3.3763,3.3386,3.3251,3.3704,3.3375,3.309,0.0,0.0,0.0,0.0,0.0,0.0,0.0,3.2914,3.309,3.309,3.3316,3.333,3.3115,3.3531,3.3922,3.4237,3.4237,3.4338,3.4564,3.4338,3.465,3.5415,3.5732,3.6948,3.8919,3.9245,4.0099,4.1239,4.0387,0.0,0.0,4.5361,0.0,0.0,5.1431,5.2754,0.0,0.0,0.0,5.2511,5.4418,5.2904,0.0,0.0,0.0,0.0,0.0,0.0,0.0,0.0,0.0,0.0,4.8928,0.0,0.0,5.4235,5.5089,5.5993,5.8127,5.8554,5.8755,5.9382,5.9483,5.9483,5.9483,5.9483,5.9483,5.9483,5.9483,5.9307,5.8761,5.9182,5.9282,5.8761,5.9207,5.9483,5.9483,5.9483,5.9483,5.9483,5.9483,5.9483,5.9483,5.9483,5.9483,5.9483,5.9483,5.9483,5.9483,5.9734,6.001,6.0292,5.9985,6.0462,6.1517,6.1311,6.1617,6.2325,6.2325,6.2526,6.2802,6.2802,6.2802,6.2802,6.2802,6.2802,6.2802,0.0,0.0,3.4708,3.4787,3.4014,3.3694,3.4559,3.404,3.3491,0.0,0.0,0.0,0.0,0.0,0.0,0.0,3.3215,3.3215,3.3255,3.3682,3.3682,3.3215,3.4212,3.4803,3.4803,3.4853,3.5155,3.5695,3.5155,3.5429,3.6494,3.6533,3.7424,3.8894,3.8969,3.9823,4.1188,4.0839,0.0,4.2928,4.6909,4.8134,0.0,0.0,5.2628,0.0,5.3632,5.3248,5.252,5.5749,5.487,0.0,0.0,0.0,0.0,0.0,4.6461,0.0,0.0,0.0,0.0,0.0,0.0,0.0,5.4845,5.534,5.5767,5.8403,5.8975,5.9006,5.9182,5.9232,5.9232,5.9307,5.9357,5.9433,5.9483,5.9483,5.9307,5.8761,5.9131,5.9207,5.866,5.9156,5.9483,5.9408,5.9458,5.9483,5.9483,5.9483,5.9483,5.9483,5.9483,5.9483,5.9483,5.9483,5.9533,5.9583,6.0066,6.0367,6.0493,6.0417,6.104,6.2069,6.1517,6.1868,6.2802,6.2802,6.2802,6.2802,6.2802,6.2802,6.2802,6.2802,6.2802,6.2802,3.4568,3.4563,3.4829,3.5273,3.5215,3.5026,3.4731,3.5664,3.5931,3.4557,0.0,0.0,0.0,0.0,0.0,0.0,0.0,3.3922,3.4363,3.4087,3.3847,3.3757,3.4778,3.5332,3.5332,3.5805,3.6331,3.686,3.6331,3.6406,3.7048,3.7487,3.8115,3.8919,3.9333,3.9948,4.0713,4.1518,0.0,4.4959,4.6276,0.0,5.0761,5.3298,5.4938,5.6,5.6796,5.6872,5.652,0.0,5.529,5.421,0.0,0.0,0.0,0.0,0.0,0.0,0.0,0.0,0.0,0.0,0.0,0.0,5.195,5.2503,5.3281,5.5157,5.5577,5.5961,5.7255,5.7506,5.7656,5.8127,5.8579,5.9012,5.9433,5.9483,5.9307,5.8761,5.8786,5.8635,5.8102,5.893,5.9332,5.8886,5.9257,5.9483,5.9483,5.9483,5.9483,5.9483,5.9483,5.9483,5.9483,5.9483,5.9709,6.0141,6.0242,6.0769,6.1667,6.1215,6.1617,6.2626,6.2094,6.2199,6.2802,6.2802,6.2802,6.2802,6.2802,6.2802,6.2802,6.2802,6.2802,6.2802,3.4897,3.5085,3.5629,3.6209,3.6342,3.6192,3.5587,3.6758,3.7064,0.0,0.0,0.0,0.0,0.0,0.0,0.0,0.0,0.0,3.5541,3.5566,3.544,3.515,3.617,3.661,3.6346,3.6922,3.7324,3.7588,3.7324,3.7487,3.8039,3.8329,3.9484,4.1317,4.0475,4.1178,4.2961,4.2436,4.3316,4.5271,4.7782,0.0,5.2771,5.5282,5.6746,5.7481,5.7801,5.7901,5.7675,5.6269,5.5064,0.0,0.0,5.231,5.118,0.0,4.8736,4.9113,0.0,0.0,0.0,4.7908,0.0,0.0,0.0,5.2109,5.2962,5.4655,5.5207,5.5641,5.6451,5.6602,5.6803,5.7355,5.7932,5.8504,5.9031,5.9332,5.9307,5.8761,5.871,5.8585,5.8328,5.9031,5.9508,5.9489,5.9508,5.9483,5.9483,5.9483,5.9483,5.9483,5.9483,5.9483,5.9483,5.9483,5.9784,6.0292,6.0613,6.119,6.1994,6.1718,6.2044,6.2777,6.2225,6.23,6.2802,6.2802,6.2802,6.2802,6.2802,6.2802,6.2802,6.2802,6.2802,6.2802,3.5317,3.6006,3.6934,3.7656,3.7856,3.761,3.6782,3.7979,3.8365,0.0,0.0,0.0,0.0,0.0,0.0,0.0,0.0,0.0,0.0,3.7562,3.7487,3.7046,3.7776,3.8015,3.7701,3.799,3.8266,3.8479,3.8266,3.8529,3.9208,3.9208,4.0614,4.3112,4.1843,4.2685,4.4934,0.0,0.0,4.621,0.0,5.1992,5.3105,5.6219,5.7424,5.7474,5.7901,5.8052,5.7876,5.6602,0.0,5.3741,5.4895,5.359,0.0,0.0,0.0,0.0,0.0,0.0,0.0,0.0,0.0,5.0243,0.0,0.0,0.0,5.4486,5.5189,5.5598,5.5698,5.5717,5.5899,5.6451,5.7123,5.7725,5.8158,5.878,5.9106,5.8886,5.8836,5.8811,5.871,5.9106,5.9659,6.0437,5.9859,5.9533,5.9659,5.9558,5.9483,5.9483,5.9483,5.9483,5.9483,5.9483,5.9784,6.0317,6.0914,6.1466,6.1994,6.2119,6.2375,6.2777,6.2325,6.24,6.2802,6.2802,6.2802,6.2802,6.2802,6.2802,6.2802,6.2802,6.2802,6.2802,3.6819,3.776,3.8858,3.9983,4.0313,3.9846,3.8154,4.0176,4.1285,0.0,0.0,0.0,0.0,0.0,0.0,0.0,0.0,0.0,4.0737,0.0,3.9409,3.9333,3.8994,3.8982,3.9409,3.9019,3.9258,4.0211,3.9258,3.9308,4.0312,4.0312,4.0512,4.0964,4.3159,4.3815,4.3402,0.0,4.7657,0.0,5.1599,5.0937,0.0,5.4077,5.5666,5.5942,5.7926,5.861,5.8359,0.0,5.6025,5.5347,0.0,5.3884,5.5178,0.0,0.0,0.0,0.0,0.0,0.0,0.0,4.9907,0.0,0.0,0.0,0.0,5.2452,0.0,5.3414,5.3909,0.0,0.0,5.4798,5.5717,5.6401,5.6477,5.7399,5.8403,5.9307,5.9408,5.9232,5.8736,5.8761,5.9413,6.0984,6.0105,5.9709,6.0166,5.9759,5.9483,5.9483,5.9483,5.9483,5.9483,5.9483,5.9784,6.0317,6.0914,6.1466,6.2019,6.2501,6.2752,6.2802,6.2752,6.2752,6.2802,6.2802,6.2802,6.2802,6.2802,6.2802,6.2802,6.2802,6.2802,6.2802,3.6801,3.7302,3.8324,3.9775,4.0966,4.0908,3.8474,3.9654,4.151,0.0,0.0,0.0,0.0,0.0,0.0,0.0,0.0,4.2933,0.0,0.0,0.0,4.0675,4.0412,4.0236,4.0174,3.9948,3.9898,4.0049,3.9898,4.0074,4.0512,4.0826,4.2005,4.3926,4.5081,4.6426,4.7798,0.0,4.8234,0.0,0.0,0.0,0.0,5.5265,5.7305,5.7506,5.9062,5.9238,5.8685,0.0,5.6853,0.0,0.0,0.0,0.0,0.0,0.0,0.0,0.0,0.0,0.0,0.0,0.0,0.0,5.0678,0.0,5.1724,0.0,0.0,0.0,0.0,0.0,0.0,0.0,5.4755,5.5383,5.5691,5.642,5.7323,5.8428,5.8579,5.873,5.9131,5.9156,5.9734,6.111,6.0437,6.0041,6.0292,6.0111,5.9834,5.9508,5.9483,5.9483,5.9483,5.9483,5.9935,6.0814,6.1085,6.1642,6.2476,6.2701,6.2802,6.2802,6.2802,6.2802,6.2802,6.2802,6.2802,6.2802,6.2802,6.2802,6.2802,6.2802,6.2802,6.2802,3.6777,3.7478,3.8791,4.0117,4.1617,4.2076,4.0326,3.9748,4.1198,4.6046,0.0,0.0,4.4916,4.429,0.0,0.0,0.0,4.5784,0.0,0.0,4.4166,0.0,4.203,0.0,0.0,4.1115,4.0613,4.0401,4.0613,4.0889,4.1204,4.1441,4.2997,4.5633,4.6261,4.7958,5.0284,0.0,4.9264,5.0351,4.9907,5.067,5.2528,5.6502,5.8384,5.8987,5.9639,5.9363,5.8786,5.9238,5.7255,0.0,5.8554,0.0,0.0,0.0,0.0,0.0,5.046,0.0,0.0,0.0,0.0,0.0,0.0,0.0,0.0,0.0,0.0,0.0,0.0,0.0,0.0,0.0,0.0,5.4697,5.4888,5.5415,5.6244,5.7499,5.7926,5.8478,5.9408,5.9357,5.9734,6.0864,6.0412,6.0141,6.0292,6.0292,6.0041,5.9508,5.9483,5.9483,5.9483,5.9483,5.9985,6.0939,6.1135,6.1692,6.2576,6.2752,6.2802,6.2802,6.2802,6.2802,6.2802,6.2802,6.2802,6.2802,6.2802,6.2802,6.2802,6.2802,6.2802,6.2802,3.7174,3.9381,4.1497,4.2203,4.2851,4.3688,4.4901,4.1564,4.0973,4.6636,0.0,0.0,0.0,0.0,0.0,0.0,0.0,4.9975,4.9414,0.0,4.6928,0.0,0.0,0.0,0.0,4.2657,4.1542,4.2123,4.1542,4.1843,4.2914,4.24,4.2788,4.3966,4.612,4.74,4.8109,4.9649,5.19,5.4421,5.4396,5.5993,5.8259,0.0,5.7625,5.9408,5.8936,0.0,0.0,5.7462,5.701,5.6734,5.5867,0.0,0.0,0.0,0.0,0.0,0.0,0.0,0.0,5.0929,0.0,0.0,0.0,0.0,5.2226,0.0,0.0,0.0,0.0,0.0,0.0,0.0,0.0,0.0,0.0,5.4278,5.5232,5.6835,5.7989,5.8886,5.9433,5.9012,5.9162,6.0242,5.9834,5.9759,6.0267,6.0292,6.0041,5.9508,5.9483,5.9483,5.9483,5.9483,5.9784,6.0342,6.0914,6.1512,6.2044,6.2551,6.2802,6.2802,6.2802,6.2802,6.2802,6.2802,6.2802,6.2802,6.2802,6.2802,6.2802,6.2802,6.2802,6.2802,3.9985,4.1786,4.313,4.25,4.3279,4.4566,4.6352,4.5011,0.0,0.0,0.0,0.0,0.0,0.0,4.8878,0.0,0.0,5.0594,4.9665,4.8576,0.0,0.0,0.0,4.4263,0.0,0.0,4.2347,4.2199,4.2009,4.2272,4.3014,4.3176,4.3854,4.502,4.7245,4.9138,5.0745,5.1657,0.0,0.0,0.0,5.6426,5.7612,0.0,5.8629,5.9037,5.9564,5.9514,5.9232,5.9187,5.819,5.7261,5.8755,5.7618,5.586,5.6563,5.6136,5.5308,5.4712,5.5491,5.5842,5.3256,0.0,0.0,0.0,0.0,0.0,0.0,0.0,0.0,0.0,0.0,0.0,0.0,0.0,0.0,0.0,0.0,5.4504,5.5792,5.6903,5.7656,5.7832,5.8685,5.9382,5.9759,5.9935,6.0286,6.0864,6.0889,6.0638,6.006,6.0035,5.9859,5.9483,5.9483,5.996,6.0889,6.111,6.1667,6.2526,6.2727,6.2802,6.2802,6.2802,6.2802,6.2802,6.2802,6.2802,6.2802,6.2802,6.2802,6.2802,6.2802,6.2802,6.2802,4.122,4.2939,4.4144,4.322,4.3971,4.5347,4.7246,4.6776,0.0,0.0,4.9112,0.0,5.0777,0.0,4.9816,0.0,5.1699,5.1691,5.0569,5.0184,0.0,4.9983,4.7657,0.0,0.0,0.0,0.0,4.393,4.3352,4.3327,4.3879,4.4016,4.4694,4.5824,4.7069,4.9305,5.2126,5.246,5.4059,0.0,0.0,5.7405,0.0,0.0,5.9056,5.856,5.9614,5.9809,5.9583,6.0116,5.9363,5.851,6.0311,5.8905,5.6865,5.8102,5.7468,5.6337,5.6312,5.7072,5.7323,5.4913,5.5114,0.0,5.3432,0.0,0.0,0.0,0.0,0.0,0.0,0.0,0.0,0.0,0.0,0.0,0.0,5.3364,0.0,5.5006,5.605,5.7029,5.7807,5.8334,5.8956,5.9734,5.974,6.0066,6.0839,6.1085,6.0914,6.0317,6.0292,6.0041,5.9508,5.9483,6.006,6.121,6.121,6.1768,6.2802,6.2802,6.2802,6.2802,6.2802,6.2802,6.2802,6.2802,6.2802,6.2802,6.2802,6.2802,6.2802,6.2802,6.2802,6.2802,4.1196,4.3141,4.4833,4.467,4.5228,4.6247,4.7853,0.0,4.7295,0.0,4.8672,4.8238,5.0747,5.0717,5.0954,5.2076,5.313,0.0,5.2302,5.2151,0.0,0.0,5.0569,5.0419,5.2084,0.0,0.0,0.0,4.5417,4.4905,4.5487,4.4905,4.5231,4.6261,4.5788,4.7983,5.2101,5.2126,5.4411,5.8027,5.8535,5.9012,5.9433,5.9483,5.883,5.8052,5.9106,5.9483,5.9583,6.0091,6.0267,6.0267,6.0267,6.0267,6.0166,5.9659,5.9483,5.9282,5.8252,5.7976,5.7575,5.5917,5.5516,5.5383,5.4823,0.0,5.5132,0.0,0.0,0.0,0.0,0.0,0.0,0.0,0.0,0.0,0.0,0.0,0.0,0.0,5.5516,5.7022,0.0,0.0,5.7914,5.9991,5.9263,5.9212,6.0292,6.0864,6.0914,6.0392,6.0367,6.0111,5.9533,5.9508,6.006,6.121,6.121,6.1768,6.2802,6.2802,6.2802,6.2802,6.2802,6.2802,6.2802,6.2802,6.2802,6.2802,6.2802,6.2802,6.2802,6.2802,6.2802,6.2802,4.551,4.7368,4.8903,4.9336,4.882,4.8591,0.0,0.0,0.0,0.0,5.0407,5.0188,5.112,5.1833,5.2536,5.3231,5.3951,0.0,0.0,0.0,0.0,5.3901,5.1548,5.0979,5.2661,4.9423,0.0,4.7691,0.0,4.4905,4.5512,4.5321,4.5648,4.6286,4.6175,4.8335,5.2126,5.2536,5.5171,5.9106,5.9232,5.8905,5.8403,5.9182,5.883,5.8052,5.9106,5.9483,5.9508,5.9659,5.9709,5.9709,5.9709,5.9709,5.9684,5.9533,5.9483,5.9433,5.9156,5.9081,5.878,5.7549,5.7248,5.6997,5.6018,5.5792,5.6143,0.0,0.0,0.0,0.0,0.0,0.0,0.0,0.0,0.0,0.0,0.0,0.0,5.3876,0.0,0.0,0.0,5.7531,5.8158,5.7863,5.8736,5.9784,6.0889,6.0688,6.0864,6.1542,6.1165,6.0688,6.0091,5.9709,6.006,6.121,6.121,6.1768,6.2802,6.2802,6.2802,6.2802,6.2802,6.2802,6.2802,6.2802,6.2802,6.2802,6.2802,6.2802,6.2802,6.2802,6.2802,6.2802,4.757,0.0,0.0,5.1381,0.0,0.0,5.0205,5.0217,0.0,4.9896,5.0117,0.0,5.0853,5.1883,5.2862,5.3632,5.4009,0.0,5.4202,0.0,0.0,5.4572,5.3758,5.3615,5.4343,5.1774,0.0,4.9389,0.0,4.6225,4.5849,4.5849,4.6024,4.6311,4.6562,4.8394,5.1507,5.3723,5.6276,5.883,5.9307,5.9131,0.0,5.9257,5.9131,5.8679,5.9282,5.9483,5.9483,5.9483,5.9483,5.9483,5.9483,5.9483,5.9483,5.9483,5.9483,5.9483,5.9483,5.9483,5.9357,5.8755,5.8604,5.8378,5.7481,5.7104,5.7273,5.8378,5.7732,5.7355,0.0,0.0,0.0,0.0,0.0,0.0,0.0,0.0,0.0,0.0,0.0,0.0,0.0,5.7323,5.8585,5.7481,5.8704,5.9885,6.0763,6.0738,6.109,6.1969,6.1466,6.0914,6.0317,5.9991,6.0286,6.121,6.1461,6.1994,6.2802,6.2802,6.2802,6.2802,6.2802,6.2802,6.2802,6.2802,6.2802,6.2802,6.2802,6.2802,6.2802,6.2802,6.2802,6.2802,4.8708,0.0,0.0,0.0,0.0,0.0,0.0,5.0067,0.0,4.8617,0.0,5.0017,5.0553,5.1632,5.2754,5.3833,0.0,5.4135,5.4135,5.5516,5.5817,5.4748,5.6194,5.6728,5.61,5.4612,0.0,0.0,0.0,4.7948,4.6286,4.6286,4.6286,4.6311,4.6772,4.8378,5.1005,5.5221,5.743,5.8202,5.9106,5.9483,5.9483,5.9483,5.9483,5.9483,5.9483,5.9483,5.9483,5.9483,5.9483,5.9483,5.9483,5.9483,5.9483,5.9483,5.9483,5.9483,5.9483,5.9483,5.9483,5.9483,5.9483,5.9382,5.8911,5.8434,5.8403,5.9382,5.8434,5.8309,6.1165,0.0,0.0,0.0,0.0,0.0,0.0,0.0,0.0,0.0,0.0,0.0,0.0,5.6922,5.8654,5.765,5.8629,5.9583,6.0267,6.0738,6.1316,6.2094,6.1517,6.0939,6.0417,6.0342,6.0613,6.121,6.1743,6.2275,6.2802,6.2802,6.2802,6.2802,6.2802,6.2802,6.2802,6.2802,6.2802,6.2802,6.2802,6.2802,6.2802,6.2802,6.2802,6.2802,5.1763,0.0,0.0,0.0,0.0,5.0371,5.0875,5.1125,5.1407,5.1737,5.1335,5.1214,5.1732,5.2779,5.3858,5.4988,5.5899,0.0,0.0,0.0,0.0,5.5308,5.6376,5.6552,5.5541,5.4805,5.3399,0.0,0.0,4.7948,4.6286,4.6286,4.6286,4.6311,4.6386,4.8695,5.2644,5.5705,5.7857,5.9232,5.9408,5.9483,5.9483,5.9483,5.9483,5.9483,5.9483,5.9483,5.9483,5.9483,5.9483,5.9483,5.9483,5.9483,5.9483,5.9483,5.9483,5.9483,5.9483,5.9483,5.9483,5.9483,5.9483,5.9483,5.9382,5.9282,5.9408,6.0035,5.9915,5.9765,5.991,0.0,0.0,0.0,0.0,0.0,0.0,0.0,0.0,0.0,0.0,0.0,0.0,5.5297,5.652,5.5885,5.7298,5.8805,6.0217,5.9985,6.0688,6.2601,6.1718,6.116,6.104,6.0563,6.0613,6.121,6.1743,6.2275,6.2802,6.2802,6.2802,6.2802,6.2802,6.2802,6.2802,6.2802,6.2802,6.2802,6.2802,6.2802,6.2802,6.2802,6.2802,6.2802,0.0,0.0,0.0,0.0,0.0,0.0,5.2171,5.254,5.2552,5.2002,5.1805,5.1925,5.246,5.3507,5.4378,5.4931,5.5458,5.5993,5.6552,5.6835,5.6778,5.6251,5.7305,0.0,5.6251,5.6269,5.4805,5.1699,0.0,4.9063,4.6286,4.6286,4.6286,4.6361,4.7792,4.9925,5.2686,5.5705,5.7656,5.8704,5.9282,5.9483,5.9483,5.9483,5.9483,5.9483,5.9483,5.9483,5.9483,5.9483,5.9483,5.9483,5.9483,5.9483,5.9483,5.9483,5.9483,5.9483,5.9483,5.9709,5.989,5.989,6.0136,6.0362,6.0362,6.0136,6.001,6.0242,6.0085,5.9734,5.9162,5.8183,0.0,0.0,0.0,0.0,0.0,0.0,0.0,0.0,0.0,0.0,0.0,0.0,5.7056,5.5915,5.7097,5.873,6.0663,6.0236,6.0794,6.2752,6.1768,6.1336,6.1617,6.104,6.104,6.1617,6.2149,6.2551,6.2802,6.2802,6.2802,6.2802,6.2802,6.2802,6.2802,6.2802,6.2802,6.2802,6.2802,6.2802,6.2802,6.2802,6.2802,6.2802,0.0,5.2983,0.0,0.0,5.2317,5.2174,5.3079,5.3581,5.3399,5.1992,5.2277,5.2804,5.3213,5.416,5.4823,5.4931,5.5031,5.5465,5.6301,5.6903,5.7085,5.6835,5.8033,5.8183,5.701,5.7706,5.6344,0.0,0.0,5.0368,4.6988,4.6512,4.6537,4.7104,4.9515,5.1481,5.3155,5.5831,5.7481,5.8303,5.9156,5.9483,5.9483,5.9483,5.9483,5.9483,5.9483,5.9483,5.9483,5.9483,5.9483,5.9483,5.9483,5.9483,5.9508,5.9633,5.9659,5.9684,5.9834,6.0161,6.0493,6.0493,6.0839,6.121,6.121,6.0839,6.0493,6.0493,6.0161,5.9583,5.8685,5.8284,5.8033,0.0,0.0,0.0,0.0,0.0,0.0,0.0,0.0,0.0,0.0,0.0,5.7798,5.7146,5.7823,5.8971,6.0577,6.0437,6.0894,6.2225,6.1567,6.1341,6.1642,6.1441,6.1567,6.2019,6.2551,6.2802,6.2802,6.2802,6.2802,6.2802,6.2802,6.2802,6.2802,6.2802,6.2802,6.2802,6.2802,6.2802,6.2802,6.2802,6.2802,6.2802,5.2442,0.0,0.0,0.0,0.0,5.2119,5.222,5.3536,5.427,5.3557,5.4002,5.4396,5.4446,5.4956,5.5516,5.6018,5.6502,5.6828,5.691,5.7481,5.7349,5.6326,5.7832,5.8183,5.701,5.8083,5.7455,0.0,0.0,5.1147,4.9238,4.7255,4.738,4.9339,5.0636,5.2929,5.5874,5.6677,5.7907,5.9357,5.9458,5.9483,5.9483,5.9483,5.9483,5.9483,5.9483,5.9483,5.9483,5.9483,5.9483,5.9483,5.9483,5.9483,5.9583,6.0066,6.0217,6.0342,6.0889,6.1085,6.1135,6.1135,6.116,6.121,6.121,6.116,6.1135,6.1135,6.1085,6.0406,5.8353,5.9935,6.0738,0.0,0.0,0.0,0.0,0.0,0.0,0.0,0.0,0.0,0.0,5.6512,5.6929,5.9781,5.9668,5.9281,5.8945,5.9809,6.0367,6.0518,6.0964,6.0964,6.0468,6.1421,6.1943,6.2019,6.2551,6.2802,6.2802,6.2802,6.2802,6.2802,6.2802,6.2802,6.2802,6.2802,6.2802,6.2802,6.2802,6.2802,6.2802,6.2802,6.2802,6.2802,5.2603,5.2663,5.2723,5.2518,5.2976,5.3466,5.3563,5.4429,5.4981,5.4737,5.4931,5.5207,5.5516,5.5742,5.5968,5.6175,5.6401,5.6527,5.6527,5.7399,5.7549,5.6728,5.8284,5.8811,5.8058,5.8786,5.8102,0.0,0.0,5.2051,5.0051,4.9172,4.9775,5.1657,5.3457,5.4963,5.6301,5.7851,5.8905,5.9483,5.9483,5.9483,5.9483,5.9483,5.9483,5.9533,5.984,5.9985,6.0035,6.0406,6.0286,5.9985,5.9985,6.0236,6.0557,6.0763,6.0839,6.0889,6.1135,6.1436,6.1667,6.1667,6.1918,6.2149,6.2149,6.1918,6.1667,6.1667,6.114,6.0487,5.9979,5.9684,5.9608,5.9834,0.0,0.0,0.0,0.0,0.0,0.0,0.0,0.0,0.0,0.0,6.052,6.0538,5.9026,5.8698,6.0127,5.9953,5.9834,5.9834,6.1341,6.1743,6.0839,6.1923,6.2476,6.2476,6.2701,6.2802,6.2802,6.2802,6.2802,6.2802,6.2802,6.2802,6.2802,6.2802,6.2802,6.2802,6.2802,6.2802,6.2802,6.2802,6.2802,6.2802,5.2538,5.3129,5.3609,5.3433,5.4074,5.468,5.4807,5.5282,5.5659,5.5659,5.5767,5.5968,5.6194,5.62,5.62,5.62,5.6351,5.6426,5.6426,5.7349,5.7725,5.728,5.8535,0.0,5.871,5.9232,5.873,5.7173,5.534,5.3658,5.2084,5.1607,5.226,5.3966,5.5673,5.6702,5.7273,5.883,5.9483,5.9483,5.9483,5.9583,5.9734,5.9734,5.9834,6.0035,6.0437,6.0563,6.0638,6.1059,6.1014,6.0769,6.0593,6.0864,6.1235,6.1411,6.1436,6.1466,6.1617,6.1943,6.2245,6.2245,6.2526,6.2802,6.2802,6.2501,6.2174,6.2044,6.1346,6.0839,6.0914,5.9784,5.9207,6.0286,5.9885,0.0,0.0,0.0,0.0,0.0,0.0,0.0,6.0889,6.2092,6.2364,6.1128,5.9324,5.9175,6.1154,0.0,0.0,5.9985,6.1823,6.235,6.1441,6.2521,6.2978,6.2802,6.2802,6.2802,6.2802,6.2802,6.2802,6.2802,6.2802,6.2802,6.2802,6.2802,6.2802,6.2802,6.2802,6.2802,6.2802,6.2802,6.2802,6.2802,5.1883,5.2537,5.3265,5.4396,5.5024,5.5401,5.5383,5.5842,5.6175,5.6175,5.6652,5.6784,5.6251,5.62,5.62,5.62,5.6684,5.6985,5.6985,5.7556,5.7901,0.0,0.0,5.871,5.871,5.9232,5.9483,5.9458,0.0,5.615,5.6075,5.4436,5.4544,5.6175,5.6734,5.7907,5.9458,5.9483,5.9483,5.9483,5.9483,5.9834,6.0292,6.0292,6.0663,6.1185,6.1185,6.1185,6.1185,6.121,6.1562,6.1893,6.1361,6.1185,6.1311,6.1843,6.1994,6.2119,6.2651,6.2802,6.2802,6.2802,6.2802,6.2802,6.2802,6.2802,6.2651,6.2119,6.1994,6.1642,6.0518,6.0788,6.0632,5.8987,6.0111,0.0,0.0,0.0,0.0,0.0,0.0,6.1166,6.2001,6.1138,6.0987,6.2009,0.0,0.0,0.0,0.0,0.0,6.116,6.2225,0.0,6.1994,6.3124,6.34,6.2802,6.2802,6.2802,6.2802,6.2802,6.2802,6.2802,6.2802,6.2802,6.2802,6.2802,6.2802,6.2802,6.2802,6.2802,6.2802,6.2802,6.2802,6.2802,5.365,5.3951,5.4303,5.5006,5.5282,5.5516,5.5892,5.6401,5.6753,5.6753,5.7255,5.7549,5.7374,5.7349,5.7349,5.7349,5.7524,5.7606,5.7606,5.8133,5.8434,5.8434,5.8956,5.9257,5.9257,5.9408,5.9483,5.9483,5.7656,5.6753,5.6734,5.62,5.6853,5.8453,5.8629,5.9006,5.9483,5.9483,5.9483,5.9533,5.991,6.0141,6.0342,6.0763,6.1034,6.126,6.1617,6.1743,6.1793,6.2169,6.24,6.2526,6.2325,6.2275,6.2325,6.2501,6.2551,6.2576,6.2752,6.2802,6.2802,6.2802,6.2802,6.2802,6.2802,6.2802,6.2752,6.2576,6.225,6.1793,6.104,6.0738,6.0392,5.989,6.0261,6.0613,6.0638,0.0,0.0,0.0,6.2201,6.2693,6.1581,6.3538,6.4613,6.4048,6.2009,0.0,0.0,0.0,0.0,0.0,6.2446,6.2973,6.2019,6.3124,6.34,6.2802,6.2802,6.2802,6.2802,6.2802,6.2802,6.2802,6.2802,6.2802,6.2802,6.2802,6.2802,6.2802,6.2802,6.2802,6.2802,6.2802,6.2802,6.2802,5.4798,5.4906,5.5056,5.5591,5.5691,5.5892,5.6426,5.6784,5.7085,5.7305,5.7832,5.8183,5.8183,5.8378,5.8328,5.7926,5.8077,5.8183,5.8183,5.8685,5.8987,5.8987,5.9332,5.9483,5.9483,5.9483,5.9483,5.9483,5.8434,5.7932,5.7932,5.7932,5.8485,5.9483,5.9483,5.9483,5.9483,5.9483,5.9483,5.9533,6.0066,6.0442,6.0713,6.1266,6.1617,6.1843,6.2174,6.23,6.235,6.2701,6.2802,6.2802,6.2802,6.2802,6.2802,6.2802,6.2802,6.2802,6.2802,6.2802,6.2802,6.2802,6.2802,6.2802,6.2802,6.2802,6.2802,6.2802,6.2526,6.2144,6.1592,6.119,6.0869,6.0688,6.0638,6.1014,6.2169,0.0,6.2638,0.0,0.0,6.4502,6.1813,6.4576,6.5773,6.3937,6.3037,6.2332,0.0,0.0,6.0864,6.1567,6.2948,6.335,6.2647,6.335,6.34,6.2802,6.2802,6.2802,6.2802,6.2802,6.2802,6.2802,6.2802,6.2802,6.2802,6.2802,6.2802,6.2802,6.2802,6.2802,6.2802,6.2802,6.2802,6.2802,5.5358,5.5509,5.5666,5.615,5.6276,5.6477,5.7004,5.7085,5.733,5.7876,5.8409,5.8761,5.8761,5.9207,5.9106,5.8102,5.8478,5.8761,5.8761,5.9232,5.9483,5.9483,5.9483,5.9483,5.9483,5.9483,5.9483,5.9483,5.9483,5.9483,5.9483,5.9483,5.9483,5.9483,5.9483,5.9483,5.9483,5.9483,5.9483,5.9533,6.0116,6.0688,6.126,6.1843,6.2375,6.2802,6.2802,6.2802,6.2802,6.2802,6.2802,6.2802,6.2802,6.2802,6.2802,6.2802,6.2802,6.2802,6.2802,6.2802,6.2802,6.2802,6.2802,6.2802,6.2802,6.2802,6.2802,6.2802,6.2802,6.2651,6.2094,6.1994,6.1843,6.1336,6.126,6.1903,6.3838,6.5565,6.6194,6.5034,6.6689,6.6381,6.2459,6.4514,6.4998,6.2324,6.4197,6.472,6.2982,6.0797,6.0864,6.3601,6.3651,6.3651,6.3701,6.3651,6.3375,6.2802,6.2802,6.2802,6.2802,6.2802,6.2802,6.2802,6.2802,6.2802,6.2802,6.2802,6.2802,6.2802,6.2802,6.2802,6.2802,6.2802,6.2802,6.2802,5.5917,5.6351,5.6677,5.6784,5.7179,5.7549,5.7675,5.8033,5.8359,5.8485,5.8981,5.9307,5.9307,5.9408,5.9382,5.9131,5.9232,5.9307,5.9307,5.9433,5.9483,5.9483,5.9483,5.9483,5.9483,5.9483,5.9483,5.9483,5.9483,5.9483,5.9483,5.9483,5.9483,5.9483,5.9483,5.9483,5.9483,5.9483,5.9483,5.9583,6.0588,6.1085,6.1311,6.225,6.2701,6.2802,6.2802,6.2802,6.2802,6.2802,6.2802,6.2802,6.2802,6.2802,6.2802,6.2802,6.2802,6.2802,6.2802,6.2802,6.2802,6.2802,6.2802,6.2802,6.2802,6.2802,6.2802,6.2802,6.2802,6.2651,6.2094,6.1994,6.1969,6.1843,6.1818,6.2124,6.3006,6.3154,6.3086,6.277,6.5829,6.6408,6.2411,6.5777,6.6855,6.3706,6.2743,6.2682,6.359,6.1824,6.1687,6.3626,6.3229,6.3229,6.3701,6.3229,6.2952,6.2802,6.2802,6.2802,6.2802,6.2802,6.2802,6.2802,6.2802,6.2802,6.2802,6.2802,6.2802,6.2802,6.2802,6.2802,6.2802,6.2802,6.2802,6.2802,5.6451,5.6784,5.7085,5.7355,5.7681,5.7976,5.8227,5.851,5.8786,5.9037,5.9332,5.9483,5.9483,5.9483,5.9483,5.9483,5.9483,5.9483,5.9483,5.9483,5.9483,5.9483,5.9483,5.9483,5.9483,5.9483,5.9483,5.9483,5.9483,5.9483,5.9483,5.9483,5.9483,5.9483,5.9483,5.9483,5.9483,5.9483,5.9483,5.9583,6.0758,6.121,6.1336,6.2375,6.2802,6.2802,6.2802,6.2802,6.2802,6.2802,6.2802,6.2802,6.2802,6.2802,6.2802,6.2802,6.2802,6.2802,6.2802,6.2802,6.2802,6.2802,6.2802,6.2802,6.2802,6.2802,6.2802,6.2802,6.3524,6.408,6.3792,6.3741,6.4053,6.5011,6.4369,6.4176,6.5411,6.5332,6.4796,6.3834,6.544,6.5754,6.3527,6.645,6.7227,6.4162,6.4418,6.424,6.3089,6.2323,6.2345,6.3274,6.2978,6.2952,6.3299,6.2952,6.2802,6.2802,6.2802,6.2802,6.2802,6.2802,6.2802,6.2802,6.2802,6.2802,6.2802,6.2802,6.2802,6.2802,6.2802,6.2802,6.2802,6.2802,6.2802,6.2802,5.7029,5.7186,5.743,5.7926,5.8102,5.8303,5.8736,5.8811,5.8987,5.9433,5.9483,5.9483,5.9483,5.9483,5.9483,5.9483,5.9483,5.9483,5.9483,5.9483,5.9483,5.9483,5.9483,5.9483,5.9483,5.9483,5.9483,5.9483,5.9483,5.9483,5.9483,5.9483,5.9483,5.9483,5.9483,5.9483,5.9483,5.9483,5.9533,5.9709,6.0783,6.126,6.1416,6.2425,6.2802,6.2802,6.2802,6.2802,6.2843,6.3143,6.3042,6.2843,6.3164,6.3021,6.2802,6.2802,6.3026,6.3184,6.2884,6.2802,6.2863,6.3184,6.3245,6.3347,6.3645,6.3726,6.3726,6.3726,6.5088,6.6176,6.5863,6.5804,6.6364,6.8023,6.6891,6.6473,6.8476,6.8569,6.7857,6.6296,6.5464,6.4927,6.477,6.638,6.651,6.4325,6.6438,6.6303,6.2758,6.2734,6.2802,6.2802,6.2802,6.2802,6.2802,6.2802,6.2802,6.2802,6.2802,6.2802,6.2802,6.2802,6.2802,6.2802,6.2802,6.2802,6.2802,6.2802,6.2852,6.2927,6.2852,6.2852,6.2927,6.2852,6.2802,6.2802,5.765,5.8133,5.8459,5.856,5.8956,5.9282,5.9357,5.9382,5.9408,5.9483,5.9483,5.9483,5.9483,5.9483,5.9483,5.9483,5.9483,5.9483,5.9483,5.9483,5.9483,5.9483,5.9483,5.9483,5.9483,5.9483,5.9483,5.9483,5.9483,5.9483,5.9483,5.9483,5.9483,5.9483,5.9483,5.9483,5.9483,5.9483,5.9759,6.0261,6.0914,6.1466,6.1943,6.2576,6.2802,6.2802,6.2802,6.2802,6.3042,6.4751,6.4197,6.3082,6.481,6.4157,6.2802,6.2802,6.4002,6.4969,6.3265,6.2802,6.3204,6.491,6.5339,6.5785,6.7541,6.7942,6.7942,6.7942,6.8189,6.7885,6.6117,6.5804,6.5744,6.5551,6.5683,6.634,6.7853,6.7025,6.6603,6.7451,6.6056,6.4769,6.4198,6.452,6.482,6.4834,6.373,6.3703,6.5123,6.3695,6.2802,6.2802,6.2802,6.2802,6.2802,6.2802,6.2802,6.2802,6.2802,6.2802,6.2802,6.2802,6.2802,6.2802,6.2802,6.2802,6.2802,6.2802,6.3103,6.35,6.3003,6.3103,6.35,6.2978,6.2802,6.2802,5.8208,5.8535,5.8786,5.9062,5.9332,5.9483,5.9483,5.9483,5.9483,5.9483,5.9483,5.9483,5.9483,5.9483,5.9483,5.9483,5.9483,5.9483,5.9483,5.9483,5.9483,5.9483,5.9483,5.9483,5.9483,5.9483,5.9483,5.9483,5.9483,5.9483,5.9483,5.9483,5.9483,5.9508,5.9809,5.9935,5.996,6.0261,6.0563,6.0839,6.1391,6.1768,6.2069,6.2601,6.2626,6.24,6.2701,6.3326,6.4005,6.4135,6.4278,6.4398,6.4217,6.3544,6.3026,6.4103,6.5062,6.5844,6.602,6.6105,6.6293,6.7234,6.7464,6.7632,6.823,6.8353,6.8353,6.8353,6.9224,6.9683,6.8716,6.8549,6.8818,6.9616,6.8767,6.8354,6.936,6.7745,6.6415,6.6306,6.5258,6.4983,6.5988,6.7165,6.7359,6.617,6.5849,6.5135,6.384,6.3149,6.2952,6.3254,6.2978,6.2952,6.3279,6.2952,6.2802,6.2802,6.2802,6.2802,6.2802,6.2802,6.2802,6.2802,6.2802,6.2802,6.2827,6.3153,6.345,6.3701,6.3701,6.3898,6.4099,6.3802,6.3701,6.3701,5.8786,5.8886,5.9012,5.9433,5.9483,5.9483,5.9483,5.9483,5.9483,5.9483,5.9483,5.9483,5.9483,5.9483,5.9483,5.9483,5.9483,5.9483,5.9483,5.9483,5.9483,5.9483,5.9483,5.9483,5.9483,5.9483,5.9483,5.9483,5.9483,5.9483,5.9483,5.9483,5.9558,5.9709,6.0116,6.0367,6.0543,6.0989,6.1285,6.1416,6.1843,6.2069,6.2285,6.3149,6.3249,6.2999,6.3889,6.4959,6.5798,6.5123,6.5634,6.6332,6.524,6.4597,6.4517,6.6059,6.6848,6.7456,6.8586,6.8888,6.8972,6.9282,6.9356,6.9327,6.9104,6.9054,6.9054,6.9054,7.0285,7.1225,7.0757,7.0686,7.1115,7.2492,7.1131,7.0244,7.1208,6.9383,6.7671,6.7055,6.5864,6.5759,6.7515,6.8745,6.8823,6.7349,6.7282,6.6226,6.3739,6.3225,6.335,6.4053,6.3379,6.3279,6.3898,6.3279,6.3078,6.3178,6.3078,6.3003,6.3003,6.2877,6.2802,6.2802,6.2802,6.2802,6.2852,6.3576,6.3898,6.3948,6.4601,6.4877,6.4877,6.4877,6.4877,6.4852,5.9332,5.9433,5.9458,5.9483,5.9483,5.9483,5.9483,5.9483,5.9483,5.9483,5.9483,5.9483,5.9483,5.9483,5.9483,5.9483,5.9483,5.9483,5.9483,5.9483,5.9483,5.9483,5.9483,5.9483,5.9483,5.9483,5.9483,5.9483,5.9483,5.9483,5.9483,5.9483,5.9759,6.0242,6.0292,6.0613,6.1135,6.1185,6.1512,6.1943,6.1994,6.23,6.293,6.4844,6.5542,6.5771,6.7751,6.8502,6.8889,7.0639,7.0098,6.8963,7.0685,6.995,6.8473,6.8624,6.9987,7.1068,6.9356,6.8888,6.9179,7.0428,7.0761,7.1077,7.2264,7.2535,7.2535,7.2535,7.2652,7.2184,7.0332,6.9971,6.9833,6.9333,6.9609,7.0552,7.2471,7.1521,7.1265,7.3039,6.9974,6.7543,6.7101,6.564,6.5593,6.7764,6.456,6.422,6.8183,6.5369,6.4103,6.5153,6.4178,6.3898,6.4446,6.3898,6.3877,6.435,6.3873,6.3626,6.3601,6.3053,6.2802,6.2802,6.2802,6.2802,6.2902,6.3998,6.4446,6.4526,6.5584,6.5986,6.5986,6.5986,6.5986,6.5911,5.9458,5.9483,5.9483,5.9483,5.9483,5.9483,5.9483,5.9483,5.9483,5.9483,5.9483,5.9483,5.9483,5.9483,5.9483,5.9483,5.9483,5.9483,5.9483,5.9483,5.9483,5.9483,5.9483,5.9483,5.9483,5.9483,5.9483,5.9483,5.9483,5.9483,5.9508,5.9859,6.0091,6.0342,6.1045,6.1492,6.1718,6.2044,6.23,6.2623,6.3849,6.449,6.489,6.6952,6.7488,6.7159,6.7022,6.8376,6.9994,6.859,6.929,7.0667,7.019,6.9523,6.9131,7.0392,7.2189,7.3603,7.2823,7.2319,7.2023,7.212,7.2144,7.2154,7.2266,7.2265,7.2265,7.2265,7.2265,7.205,7.1259,7.1141,7.1053,7.08,7.0977,7.1554,7.2717,7.1441,7.0818,7.1918,7.0745,6.9915,7.0039,7.0518,7.0722,7.0444,6.8162,6.7014,6.7501,6.5734,6.4881,6.5304,6.4881,6.4802,6.5003,6.445,6.4124,6.3998,6.3797,6.3701,6.3676,6.3475,6.3525,6.3852,6.3852,6.3676,6.3425,6.4174,6.4701,6.5078,6.581,6.6517,6.7166,6.7166,6.7166,6.7141,5.9483,5.9483,5.9483,5.9483,5.9483,5.9483,5.9483,5.9483,5.9483,5.9483,5.9483,5.9483,5.9483,5.9483,5.9483,5.9483,5.9483,5.9483,5.9483,5.9483,5.9483,5.9483,5.9483,5.9483,5.9483,5.9483,5.9483,5.9483,5.9659,5.9759,5.9759,6.0337,6.0668,6.0869,6.1667,6.2074,6.2335,6.3331,6.372,6.3922,6.5941,6.6752,6.6984,6.9075,6.9577,6.9168,6.8788,7.0201,7.1858,6.9467,7.0511,7.261,7.1224,7.0787,7.1089,7.27,7.4137,7.5125,7.4706,7.4257,7.3732,7.3057,7.2727,7.2415,7.1743,7.1593,7.1593,7.1593,7.1743,7.1893,7.1893,7.2072,7.2206,7.2206,7.2206,7.2445,7.3133,7.2119,7.1504,7.2094,7.2216,7.2151,7.1934,7.3328,7.3409,7.1353,6.9859,6.8258,6.6342,6.5649,6.5383,6.5534,6.5534,6.5534,6.5534,6.5028,6.4651,6.4454,6.4279,6.4203,6.4178,6.4048,6.4149,6.4496,6.4496,6.43,6.4023,6.4701,6.5128,6.543,6.6488,6.7245,6.7844,6.8196,6.8299,6.8274,5.9483,5.9483,5.9483,5.9483,5.9483,5.9483,5.9483,5.9483,5.9483,5.9483,5.9483,5.9483,5.9483,5.9483,5.9483,5.9483,5.9483,5.9483,5.9483,5.9483,5.9483,5.9483,5.9483,5.9483,5.9483,5.9483,5.9483,5.9483,6.006,6.0292,6.0317,6.0914,6.1512,6.1994,6.1999,6.232,6.2965,6.4969,6.5804,6.602,6.8075,6.8906,6.9131,7.1169,7.1909,7.2189,7.4172,7.4886,7.4886,7.4869,7.4886,7.4886,7.4916,7.4916,7.5035,7.5707,7.5916,7.5617,7.427,7.3911,7.3732,7.3073,7.2385,7.1713,7.1068,7.0919,7.0919,7.0919,7.1427,7.1923,7.1923,7.2445,7.2907,7.2907,7.2907,7.3146,7.3821,7.3881,7.4168,7.4826,7.4886,7.412,7.2106,7.2468,7.1962,6.9896,6.8486,6.7028,6.5385,6.5329,6.5534,6.6065,6.609,6.609,6.609,6.5559,6.5559,6.6086,6.5559,6.5283,6.5283,6.4752,6.4521,6.45,6.45,6.4521,6.4597,6.566,6.5785,6.5509,6.7722,6.8249,6.7945,6.8979,6.9406,6.9306,5.9483,5.9483,5.9483,5.9483,5.9483,5.9483,5.9483,5.9483,5.9483,5.9483,5.9483,5.9483,5.9483,5.9483,5.9483,5.9483,5.9483,5.9483,5.9483,5.9483,5.9483,5.9483,5.9483,5.9483,5.9483,5.9483,5.9483,5.9483,6.006,6.0292,6.0317,6.1316,6.1843,6.2019,6.2375,6.3432,6.4949,6.5529,6.6635,6.8151,7.019,7.0995,7.1213,7.324,7.4016,7.3882,7.3088,7.3707,7.4697,7.3275,7.3725,7.4976,7.5437,7.5587,7.5707,7.6347,7.6527,7.6347,7.5527,7.4976,7.4108,7.2026,7.1338,7.1278,7.1534,7.1593,7.1743,7.2189,7.2458,7.2595,7.2595,7.2757,7.2907,7.2907,7.3296,7.3672,7.3881,7.4317,7.4676,7.4886,7.4886,7.465,7.4068,7.459,7.4728,7.4083,7.1772,6.9052,6.6028,6.586,6.5936,6.609,6.609,6.609,6.609,6.5936,6.576,6.5534,6.5383,6.5283,6.5283,6.5128,6.5279,6.5609,6.5609,6.5409,6.5103,6.543,6.566,6.5936,6.6589,6.7471,6.8399,6.8726,6.908,6.9306,5.9483,5.9483,5.9483,5.9483,5.9483,5.9483,5.9483,5.9483,5.9483,5.9483,5.9483,5.9483,5.9483,5.9483,5.9483,5.9483,5.9483,5.9483,5.9483,5.9483,5.9483,5.9483,5.9483,5.9483,5.9483,5.9483,5.9608,5.9834,6.0387,6.0763,6.0995,6.1873,6.2739,6.3536,6.3849,6.5128,6.708,6.7877,6.8935,7.0264,7.2278,7.3088,7.3222,7.4443,7.4886,7.4749,7.3503,7.3864,7.4714,7.3486,7.4059,7.5365,7.5766,7.6048,7.6377,7.7006,7.7006,7.6719,7.6347,7.5587,7.4437,7.2565,7.1906,7.1816,7.2206,7.2295,7.2415,7.2834,7.3116,7.3313,7.3313,7.3522,7.3702,7.3702,7.4048,7.4317,7.4317,7.4646,7.4886,7.4886,7.4886,7.5006,7.5275,7.5886,7.6121,7.5802,7.2576,6.9654,6.7475,6.6579,6.609,6.609,6.609,6.609,6.609,6.609,6.5936,6.5609,6.5609,6.5609,6.5609,6.5609,6.5785,6.609,6.609,6.5936,6.5609,6.5609,6.5936,6.6488,6.6689,6.7521,6.8625,6.8851,6.9105,6.9306,5.9483,5.9483,5.9483,5.9483,5.9483,5.9483,5.9483,5.9483,5.9483,5.9483,5.9483,5.9483,5.9483,5.9483,5.9483,5.9483,5.9483,5.9483,5.9483,5.9483,5.9483,5.9483,5.9483,5.9508,5.9558,5.9558,5.9809,6.0292,6.0939,6.1517,6.2019,6.2729,6.4063,6.5804,6.6,6.7234,6.9281,7.1105,7.1999,7.2332,7.4154,7.4886,7.4886,7.4886,7.4886,7.4886,7.4886,7.4886,7.4916,7.4976,7.5437,7.6006,7.6066,7.6437,7.7035,7.7694,7.7454,7.6946,7.6838,7.5946,7.4886,7.4151,7.3522,7.3057,7.2997,7.2997,7.2997,7.3057,7.3552,7.3971,7.3971,7.4497,7.4886,7.4886,7.4886,7.4886,7.4886,7.4886,7.4886,7.4886,7.4946,7.5245,7.5856,7.6497,7.6442,7.54,7.1756,6.9398,6.9032,6.7167,6.609,6.609,6.609,6.609,6.609,6.609,6.609,6.609,6.609,6.609,6.609,6.609,6.609,6.609,6.609,6.609,6.609,6.6162,6.6488,6.7062,6.7593,6.8145,6.865,6.9155,6.9356,6.9306,5.9483,5.9483,5.9483,5.9483,5.9483,5.9483,5.9483,5.9483,5.9483,5.9483,5.9483,5.9483,5.9483,5.9483,5.9483,5.9483,5.9483,5.9483,5.9483,5.9483,5.9483,5.9483,5.9483,5.9709,6.0116,6.0116,6.0166,6.0292,6.1341,6.1893,6.2059,6.4154,6.5378,6.5863,6.7503,6.9356,7.1296,7.1712,7.2823,7.4276,7.4731,7.4886,7.4886,7.4886,7.4886,7.4886,7.4886,7.4886,7.4976,7.5497,7.6078,7.6706,7.7215,7.7502,7.7694,7.84,7.846,7.813,7.7095,7.6617,7.6108,7.4976,7.4557,7.4317,7.3791,7.3672,7.3821,7.4377,7.4587,7.4676,7.4676,7.4796,7.4886,7.4886,7.4886,7.4886,7.4886,7.4886,7.4886,7.4886,7.5347,7.5736,7.5886,7.6916,7.6359,7.3384,7.232,7.0339,6.6955,6.6344,6.609,6.609,6.609,6.609,6.609,6.609,6.609,6.609,6.609,6.609,6.609,6.609,6.609,6.609,6.609,6.609,6.6137,6.6614,6.6887,6.7062,6.7593,6.8145,6.8625,6.8726,6.9029,6.9306,5.9483,5.9483,5.9483,5.9483,5.9483,5.9483,5.9483,5.9483,5.9483,5.9483,5.9483,5.9483,5.9483,5.9483,5.9483,5.9483,5.9483,5.9483,5.9483,5.9483,5.9608,5.9885,5.9633,6.0319,6.2116,6.1219,6.0864,6.1095,6.1718,6.2617,6.384,6.5188,6.6848,6.8766,6.9857,7.1459,7.3328,7.3328,7.3934,7.4886,7.4886,7.4886,7.4886,7.4886,7.4886,7.4946,7.5275,7.5557,7.5856,7.6198,7.6766,7.7335,7.7694,7.8041,7.834,7.8699,7.834,7.7753,7.7365,7.6587,7.5826,7.5467,7.5125,7.4796,7.4467,7.4377,7.4467,7.4826,7.4886,7.4886,7.4886,7.4886,7.4886,7.4886,7.4886,7.4886,7.4886,7.5185,7.5395,7.5395,7.5946,7.6437,7.6784,7.7711,7.7078,7.4197,7.3049,7.1068,6.7791,6.6661,6.609,6.609,6.609,6.609,6.609,6.609,6.609,6.609,6.609,6.609,6.609,6.609,6.609,6.609,6.609,6.609,6.6162,6.6761,6.7163,6.7417,6.797,6.85,6.8979,6.8979,6.8851,6.855,5.9508,5.9483,5.9483,5.9483,5.9483,5.9483,5.9483,5.9483,5.9483,5.9483,5.9483,5.9483,5.9483,5.9483,5.9483,5.9483,5.9483,5.9483,5.9483,5.9483,5.9734,6.0267,5.9885,6.1095,6.4253,6.2367,6.1722,6.2511,6.2612,6.3741,6.5824,6.6519,6.8653,7.1909,7.226,7.3345,7.4886,7.4886,7.4886,7.4886,7.4886,7.4886,7.4916,7.5035,7.5065,7.5155,7.5826,7.6437,7.6958,7.6958,7.7424,7.7981,7.7981,7.834,7.8807,7.8807,7.7933,7.7065,7.7514,7.6365,7.5185,7.5617,7.5305,7.4886,7.4886,7.4886,7.4886,7.4886,7.4886,7.4886,7.4886,7.4886,7.4886,7.4886,7.4886,7.4886,7.4886,7.5467,7.5916,7.5916,7.6527,7.7245,7.7921,7.846,7.7755,7.5259,7.346,7.141,6.8887,6.7061,6.609,6.609,6.609,6.609,6.609,6.609,6.609,6.609,6.609,6.609,6.609,6.609,6.609,6.609,6.609,6.609,6.6162,6.6761,6.7263,6.7719,6.8249,6.8751,6.913,6.913,6.85,6.7618,5.9583,5.9483,5.9483,5.9483,5.9483,5.9483,5.9483,5.9483,5.9483,5.9483,5.9483,5.9483,5.9483,5.9483,5.9483,5.9483,5.9483,5.9483,5.9483,5.9483,5.9734,6.0267,6.0217,6.1663,6.4821,6.2916,6.2788,6.4592,6.5051,6.5477,6.5883,6.9421,7.1358,7.1981,7.3725,7.4633,7.4886,7.4886,7.4886,7.4886,7.4886,7.4886,7.4946,7.5527,7.5766,7.5856,7.6467,7.7095,7.7664,7.7664,7.81,7.8639,7.8639,7.8747,7.8807,7.8807,7.825,7.7544,7.7065,7.6347,7.5647,7.5155,7.4976,7.4886,7.4886,7.4886,7.4886,7.4886,7.4886,7.4886,7.4886,7.4886,7.4886,7.4886,7.4886,7.4886,7.4886,7.5467,7.5916,7.5916,7.6946,7.7921,7.8579,7.8747,7.7173,7.3234,7.2664,7.0745,6.6746,6.6262,6.609,6.609,6.609,6.609,6.609,6.609,6.609,6.609,6.609,6.609,6.609,6.609,6.609,6.609,6.609,6.609,6.6162,6.6761,6.7037,6.7163,6.7693,6.7945,6.802,6.802,6.7618,6.7163,5.9935,5.9709,5.9483,5.9483,5.9483,5.9483,5.9483,5.9483,5.9483,5.9483,5.9483,5.9483,5.9483,5.9483,5.9483,5.9483,5.9483,5.9483,5.9483,5.9784,6.0041,6.0292,6.169,6.3803,6.662,6.4708,6.5383,6.8836,6.6811,6.6984,6.9253,7.1068,7.2492,7.362,7.4495,7.4886,7.4886,7.4886,7.4886,7.4886,7.4886,7.5125,7.5497,7.5796,7.6108,7.6497,7.7125,7.7801,7.837,7.837,7.8567,7.8807,7.8807,7.8807,7.8807,7.8807,7.834,7.7634,7.6958,7.6347,7.5736,7.5065,7.4886,7.4886,7.4886,7.5185,7.5347,7.4976,7.4886,7.4886,7.4886,7.4886,7.4886,7.4886,7.4886,7.5035,7.5407,7.5988,7.6676,7.7442,7.8011,7.846,7.8759,7.8807,7.7062,7.2822,7.2506,7.0624,6.6322,6.609,6.609,6.609,6.609,6.609,6.609,6.609,6.609,6.609,6.609,6.609,6.609,6.609,6.609,6.609,6.609,6.609,6.6162,6.6761,6.6987,6.7062,6.7593,6.7794,6.7794,6.7794,6.7643,6.7467]},{"header":{"parameterUnit":"m.s-1","parameterCategory":1,"la1":30.6,"la2":28.766,"lo1":-90.7593,"lo2":-88.6598,"dx":0.0162,"dy":0.0183,"nx":116,"ny":114,"refTime":"2022-12-20T00:00:00:Z","depth":0,"parameterNumber":3,"parameterNumberName":"V-component_of_WINDS"},"data":[0.0,0.0,0.0,0.0,0.0,0.0,0.0,0.0,0.0,0.0,0.0,0.0,0.0,0.0,0.0,0.0,0.0,0.0,0.0,0.0,0.0,0.0,0.0,0.0,0.0,0.0,0.0,0.0,0.0,0.0,0.0,0.0,0.0,0.0,0.0,0.0,0.0,0.0,0.0,0.0,0.0,0.0,0.0,0.0,0.0,0.0,0.0,0.0,0.0,0.0,0.0,0.0,0.0,0.0,0.0,0.0,0.0,0.0,0.0,0.0,0.0,0.0,0.0,0.0,0.0,0.0,0.0,0.0,0.0,0.0,0.0,0.0,0.0,0.0,0.0,0.0,0.0,0.0,0.0,0.0,0.0,0.0,0.0,0.0,0.0,0.0,0.0,0.0,0.0,0.0,0.0,0.0,0.0,0.0,0.0,0.0,0.0,0.0,0.0,0.0,0.0,0.0,0.0,0.0,0.0,0.0,0.0,0.0,0.0,0.0,0.0,0.0,0.0,0.0,0.0,0.0,0.0,0.0,0.0,0.0,0.0,0.0,0.0,0.0,0.0,0.0,0.0,0.0,0.0,0.0,0.0,0.0,0.0,0.0,0.0,0.0,0.0,0.0,0.0,0.0,0.0,0.0,0.0,0.0,0.0,0.0,0.0,0.0,0.0,0.0,0.0,0.0,0.0,0.0,0.0,0.0,0.0,0.0,0.0,0.0,0.0,0.0,0.0,0.0,0.0,0.0,0.0,0.0,0.0,0.0,0.0,0.0,0.0,0.0,0.0,0.0,0.0,0.0,0.0,0.0,0.0,0.0,0.0,0.0,0.0,0.0,0.0,0.0,0.0,0.0,0.0,0.0,0.0,0.0,0.0,0.0,0.0,0.0,0.0,0.0,0.0,0.0,0.0,0.0,0.0,0.0,0.0,0.0,0.0,0.0,0.0,0.0,0.0,0.0,0.0,0.0,0.0,0.0,0.0,0.0,0.0,0.0,0.0,0.0,0.0,0.0,0.0,0.0,0.0,0.0,0.0,0.0,0.0,0.0,0.0,0.0,0.0,0.0,0.0,0.0,0.0,0.0,0.0,0.0,0.0,0.0,0.0,0.0,0.0,0.0,0.0,0.0,0.0,0.0,0.0,0.0,0.0,0.0,0.0,0.0,0.0,0.0,0.0,0.0,0.0,0.0,0.0,0.0,0.0,0.0,0.0,0.0,0.0,0.0,0.0,0.0,0.0,0.0,0.0,0.0,0.0,0.0,0.0,0.0,0.0,0.0,0.0,0.0,0.0,0.0,0.0,0.0,0.0,0.0,0.0,0.0,0.0,0.0,0.0,0.0,0.0,0.0,0.0,0.0,0.0,0.0,0.0,0.0,0.0,0.0,0.0,0.0,0.0,0.0,0.0,0.0,0.0,0.0,0.0,0.0,0.0,0.0,0.0,0.0,0.0,0.0,0.0,0.0,0.0,0.0,0.0,0.0,0.0,0.0,0.0,0.0,0.0,0.0,0.0,0.0,0.0,0.0,0.0,0.0,0.0,0.0,0.0,0.0,0.0,0.0,0.0,0.0,0.0,0.0,0.0,0.0,0.0,0.0,0.0,0.0,0.0,0.0,0.0,0.0,0.0,0.0,0.0,0.0,0.0,0.0,0.0,0.0,0.0,0.0,0.0,0.0,0.0,0.0,0.0,0.0,0.0,0.0,0.0,0.0,0.0,0.0,0.0,0.0,0.0,0.0,0.0,0.0,0.0,0.0,0.0,0.0,0.0,0.0,0.0,0.0,0.0,0.0,0.0,0.0,0.0,0.0,0.0,0.0,0.0,0.0,0.0,0.0,0.0,0.0,0.0,0.0,0.0,0.0,0.0,0.0,0.0,0.0,0.0,0.0,0.0,0.0,0.0,0.0,0.0,0.0,0.0,0.0,0.0,0.0,0.0,0.0,0.0,0.0,0.0,0.0,0.0,0.0,0.0,0.0,0.0,0.0,0.0,0.0,0.0,0.0,0.0,0.0,0.0,0.0,0.0,0.0,0.0,0.0,0.0,0.0,0.0,0.0,0.0,0.0,0.0,0.0,0.0,0.0,0.0,0.0,0.0,0.0,0.0,0.0,0.0,0.0,0.0,0.0,0.0,0.0,0.0,0.0,0.0,0.0,0.0,0.0,0.0,0.0,0.0,0.0,0.0,0.0,0.0,0.0,0.0,0.0,0.0,0.0,0.0,0.0,0.0,0.0,0.0,0.0,0.0,0.0,0.0,0.0,0.0,0.0,0.0,0.0,0.0,0.0,0.0,0.0,0.0,0.0,0.0,0.0,0.0,0.0,0.0,0.0,0.0,0.0,0.0,0.0,0.0,0.0,0.0,0.0,0.0,0.0,0.0,0.0,0.0,0.0,0.0,0.0,0.0,0.0,0.0,0.0,0.0,0.0,0.0,0.0,0.0,0.0,0.0,0.0,0.0,0.0,0.0,0.0,0.0,0.0,0.0,0.0,0.0,0.0,0.0,0.0,0.0,0.0,0.0,0.0,0.0,0.0,0.0,0.0,0.0,0.0,0.0,0.0,0.0,0.0,0.0,0.0,0.0,0.0,0.0,0.0,0.0,0.0,0.0,0.0,0.0,0.0,0.0,0.0,0.0,0.0,0.0,0.0,0.0,0.0,0.0,0.0,0.0,0.0,0.0,0.0,0.0,0.0,0.0,0.0,0.0,0.0,0.0,0.0,0.0,0.0,0.0,0.0,0.0,0.0,0.0,0.0,0.0,0.0,0.0,0.0,0.0,0.0,0.0,0.0,0.0,0.0,0.0,0.0,0.0,0.0,0.0,0.0,0.0,0.0,0.0,0.0,0.0,0.0,0.0,0.0,0.0,0.0,0.0,0.0,0.0,0.0,0.0,0.0,0.0,0.0,0.0,0.0,0.0,0.0,0.0,0.0,0.0,0.0,0.0,0.0,0.0,0.0,0.0,0.0,0.0,0.0,0.0,0.0,0.0,0.0,0.0,0.0,0.0,0.0,0.0,0.0,0.0,0.0,0.0,0.0,0.0,0.0,0.0,0.0,0.0,0.0,0.0,0.0,0.0,0.0,0.0,0.0,0.0,0.0,0.0,0.0,0.0,0.0,0.0,0.0,0.0,0.0,0.0,0.0,0.0,0.0,0.0,0.0,0.0,0.0,0.0,0.0,0.0,0.0,0.0,0.0,0.0,0.0,0.0,0.0,0.0,0.0,0.0,0.0,0.0,0.0,0.0,0.0,0.0,0.0,0.0,0.0,0.0,0.0,0.0,0.0,0.0,0.0,0.0,0.0,0.0,0.0,0.0,0.0,0.0,0.0,0.0,0.0,0.0,0.0,0.0,0.0,0.0,0.0,0.0,0.0,0.0,0.0,0.0,0.0,0.0,0.0,0.0,0.0,0.0,0.0,0.0,0.0,0.0,0.0,0.0,0.0,0.0,0.0,0.0,0.0,0.0,0.0,0.0,0.0,0.0,0.0,0.0,0.0,0.0,0.0,0.0,0.0,0.0,0.0,0.0,0.0,0.0,0.0,0.0,0.0,0.0,0.0,0.0,0.0,0.0,0.0,0.0,0.0,0.0,0.0,0.0,0.0,0.0,0.0,0.0,0.0,0.0,0.0,0.0,0.0,0.0,0.0,0.0,0.0,0.0,0.0,0.0,0.0,0.0,0.0,0.0,0.0,0.0,0.0,0.0,0.0,0.0,0.0,0.0,0.0,0.0,0.0,0.0,0.0,0.0,0.0,0.0,0.0,0.0,0.0,0.0,0.0,0.0,0.0,0.0,0.0,0.0,0.0,0.0,0.0,0.0,0.0,0.0,0.0,0.0,0.0,0.0,0.0,0.0,0.0,0.0,0.0,0.0,0.0,0.0,0.0,0.0,0.0,0.0,0.0,0.0,0.0,0.0,0.0,0.0,0.0,0.0,0.0,0.0,0.0,0.0,0.0,0.0,0.0,0.0,0.0,0.0,0.0,0.0,0.0,0.0,0.0,0.0,0.0,0.0,0.0,0.0,0.0,0.0,0.0,0.0,0.0,0.0,0.0,0.0,0.0,0.0,0.0,0.0,0.0,0.0,0.0,0.0,0.0,0.0,0.0,0.0,0.0,0.0,0.0,0.0,0.0,0.0,0.0,0.0,0.0,0.0,0.0,0.0,0.0,0.0,0.0,0.0,0.0,0.0,0.0,0.0,0.0,0.0,0.0,0.0,0.0,0.0,0.0,0.0,0.0,0.0,0.0,0.0,0.0,0.0,0.0,0.0,0.0,0.0,0.0,0.0,0.0,0.0,0.0,0.0,0.0,0.0,0.0,0.0,0.0,0.0,0.0,0.0,0.0,0.0,0.0,0.0,0.0,0.0,0.0,0.0,0.0,0.0,0.0,0.0,0.0,0.0,0.0,0.0,0.0,0.0,0.0,0.0,0.0,0.0,0.0,0.0,0.0,0.0,0.0,0.0,0.0,0.0,0.0,0.0,0.0,0.0,0.0,0.0,0.0,0.0,0.0,0.0,0.0,0.0,0.0,0.0,0.0,0.0,0.0,0.0,0.0,0.0,0.0,0.0,0.0,0.0,0.0,0.0,0.0,0.0,0.0,0.0,0.0,0.0,0.0,0.0,0.0,0.0,0.0,0.0,0.0,0.0,0.0,0.0,0.0,0.0,0.0,0.0,0.0,0.0,0.0,0.0,0.0,0.0,0.0,0.0,0.0,0.0,0.0,0.0,0.0,0.0,0.0,0.0,0.0,0.0,0.0,0.0,0.0,0.0,0.0,0.0,0.0,0.0,0.0,0.0,0.0,0.0,0.0,0.0,0.0,0.0,0.0,0.0,0.0,0.0,0.0,0.0,0.0,0.0,0.0,0.0,0.0,0.0,0.0,0.0,0.0,0.0,0.0,0.0,0.0,0.0,0.0,0.0,0.0,0.0,0.0,0.0,0.0,0.0,0.0,0.0,0.0,0.0,0.0,0.0,0.0,0.0,0.0,0.0,0.0,0.0,0.0,0.0,0.0,0.0,0.0,0.0,0.0,0.0,0.0,0.0,0.0,0.0,0.0,0.0,0.0,0.0,0.0,0.0,0.0,0.0,0.0,0.0,0.0,0.0,0.0,0.0,0.0,0.0,0.0,0.0,0.0,0.0,0.0,0.0,0.0,0.0,0.0,0.0,0.0,0.0,0.0,0.0,0.0,0.0,0.0,0.0,0.0,0.0,0.0,0.0,0.0,0.0,0.0,0.0,0.0,0.0,0.0,0.0,0.0,0.0,0.0,0.0,0.0,0.0,0.0,0.0,0.0,0.0,0.0,0.0,0.0,0.0,0.0,0.0,0.0,0.0,0.0,0.0,0.0,0.0,0.0,0.0,0.0,0.0,0.0,0.0,0.0,0.0,0.0,0.0,0.0,0.0,0.0,0.0,0.0,0.0,0.0,0.0,0.0,0.0,0.0,0.0,0.0,0.0,0.0,0.0,0.0,0.0,0.0,0.0,0.0,0.0,0.0,0.0,0.0,0.0,0.0,0.0,0.0,0.0,0.0,0.0,0.0,0.0,0.0,0.0,0.0,0.0,0.0,0.0,0.0,0.0,0.0,0.0,0.0,0.0,0.0,0.0,0.0,0.0,0.0,0.0,0.0,0.0,0.0,0.0,0.0,0.0,0.0,0.0,0.0,0.0,0.0,0.0,0.0,0.0,0.0,0.0,0.0,0.0,0.0,0.0,0.0,0.0,0.0,0.0,0.0,0.0,0.0,0.0,0.0,0.0,0.0,0.0,0.0,0.0,0.0,0.0,0.0,0.0,0.0,0.0,0.0,0.0,0.0,0.0,0.0,0.0,0.0,0.0,0.0,0.0,0.0,0.0,0.0,0.0,0.0,0.0,0.0,0.0,0.0,0.0,0.0,0.0,0.0,0.0,0.0,0.0,0.0,0.0,0.0,0.0,0.0,0.0,0.0,0.0,0.0,0.0,0.0,0.0,0.0,0.0,0.0,0.0,0.0,0.0,0.0,0.0,0.0,0.0,0.0,0.0,0.0,0.0,0.0,0.0,0.0,0.0,0.0,0.0,0.0,0.0,0.0,0.0,0.0,0.0,0.0,0.0,0.0,0.0,0.0,4.29,4.1283,0.0,0.0,0.0,0.0,0.0,0.0,0.0,0.0,0.0,0.0,0.0,0.0,0.0,0.0,0.0,0.0,0.0,0.0,0.0,0.0,0.0,0.0,0.0,2.67,2.67,2.67,2.67,0.0,0.0,0.0,0.0,0.0,0.0,0.0,0.0,0.0,2.6818,2.7071,2.7254,2.7673,2.8186,2.781,2.6846,2.5454,0.0,0.0,0.0,0.0,0.0,0.0,0.0,0.0,0.0,0.0,0.0,0.0,0.0,0.0,0.0,0.0,0.0,0.0,0.0,0.0,0.0,0.0,0.0,0.0,0.0,0.0,0.0,0.0,0.0,0.0,0.0,0.0,0.0,0.0,0.0,0.0,0.0,0.0,0.0,0.0,0.0,0.0,0.0,0.0,0.0,0.0,0.0,0.0,0.0,0.0,0.0,0.0,0.0,0.0,0.0,0.0,0.0,0.0,0.0,0.0,0.0,0.0,0.0,0.0,0.0,0.0,0.0,0.0,0.0,0.0,4.5714,4.4417,0.0,0.0,0.0,0.0,0.0,0.0,0.0,0.0,0.0,0.0,0.0,0.0,0.0,0.0,0.0,0.0,0.0,0.0,0.0,0.0,0.0,2.5943,2.6793,2.6898,2.6966,2.7106,2.7106,2.7034,2.6894,2.6898,0.0,0.0,0.0,0.0,2.6728,2.6724,2.7319,2.8512,2.8853,2.9419,3.0225,3.1112,3.0193,2.7758,2.6928,0.0,0.0,0.0,0.0,0.0,0.0,0.0,0.0,0.0,0.0,0.0,0.0,0.0,0.0,0.0,0.0,0.0,0.0,0.0,0.0,0.0,0.0,0.0,0.0,0.0,0.0,0.0,0.0,0.0,0.0,0.0,0.0,0.0,0.0,0.0,0.0,0.0,0.0,0.0,0.0,0.0,0.0,0.0,0.0,0.0,0.0,0.0,0.0,0.0,0.0,0.0,0.0,0.0,0.0,0.0,0.0,0.0,0.0,0.0,0.0,0.0,0.0,0.0,4.7198,4.7377,4.8177,4.8727,4.9265,4.9726,4.8626,4.7967,4.7489,4.5593,0.0,0.0,0.0,0.0,0.0,0.0,0.0,0.0,0.0,0.0,0.0,0.0,0.0,0.0,0.0,0.0,0.0,0.0,0.0,2.6104,2.7486,2.765,2.7934,2.8633,2.8705,2.8391,2.7689,2.765,2.7355,2.6729,2.67,2.6743,2.6855,2.6874,2.7858,2.9841,3.2275,3.358,3.3795,3.3382,3.2976,3.2519,3.1031,3.0037,2.9434,0.0,0.0,0.0,0.0,0.0,0.0,0.0,0.0,0.0,0.0,0.0,0.0,0.0,0.0,0.0,0.0,0.0,0.0,0.0,0.0,0.0,0.0,0.0,0.0,0.0,0.0,0.0,0.0,0.0,0.0,0.0,0.0,0.0,0.0,0.0,0.0,0.0,0.0,0.0,0.0,0.0,4.1164,4.1922,0.0,0.0,0.0,0.0,0.0,0.0,0.0,0.0,0.0,0.0,0.0,0.0,0.0,4.4496,4.5424,4.6501,4.7709,4.9048,4.9482,5.0338,5.1558,5.1648,5.1738,5.181,5.1618,0.0,4.8929,4.7489,0.0,0.0,0.0,0.0,0.0,0.0,0.0,0.0,0.0,0.0,0.0,0.0,0.0,0.0,0.0,0.0,0.0,0.0,0.0,0.0,0.0,2.8568,2.9219,2.96,3.0016,2.991,2.9147,2.9079,2.875,2.8024,2.799,2.801,2.8075,2.8436,2.9695,3.1896,3.4709,3.5934,3.5625,3.5677,3.5699,3.5663,3.4964,3.3252,3.0838,2.9955,0.0,0.0,0.0,0.0,0.0,0.0,0.0,0.0,0.0,0.0,0.0,0.0,0.0,0.0,0.0,0.0,0.0,0.0,0.0,0.0,0.0,0.0,0.0,0.0,0.0,0.0,0.0,0.0,0.0,0.0,0.0,0.0,0.0,0.0,0.0,0.0,0.0,0.0,0.0,4.0834,4.1792,4.284,4.2032,4.1553,0.0,0.0,0.0,0.0,0.0,0.0,0.0,0.0,0.0,4.6042,4.6381,4.7219,4.8585,4.8813,4.9602,5.0912,5.0828,5.1457,5.2767,5.3144,5.3312,5.3312,5.3312,5.2845,5.1869,4.9415,4.7679,4.6441,0.0,0.0,0.0,0.0,4.4974,4.5273,0.0,0.0,0.0,0.0,0.0,0.0,0.0,0.0,0.0,0.0,0.0,0.0,2.8297,2.976,3.0746,3.0944,3.1461,3.1466,3.0717,3.0475,3.004,2.9305,2.9111,2.9007,2.9082,3.0596,3.249,3.4675,3.7248,3.8245,3.7781,3.8271,3.8404,3.8153,3.825,3.6115,3.2475,3.1801,3.0672,2.9229,0.0,0.0,0.0,0.0,0.0,0.0,0.0,0.0,0.0,0.0,0.0,0.0,0.0,0.0,0.0,0.0,0.0,0.0,0.0,0.0,0.0,0.0,0.0,0.0,0.0,0.0,0.0,0.0,0.0,0.0,0.0,0.0,0.0,0.0,0.0,0.0,0.0,4.2322,4.31,4.4257,4.3369,4.2771,0.0,0.0,0.0,0.0,0.0,0.0,4.5264,4.5324,4.6381,4.8716,4.8955,4.9823,5.1427,5.1116,5.1457,5.2456,5.1947,5.2336,5.3486,5.397,5.4209,5.4209,5.4209,5.4089,5.3743,5.1312,4.9816,4.8925,4.7945,4.7059,4.6422,4.7268,4.7557,4.7886,0.0,0.0,0.0,0.0,0.0,0.0,0.0,0.0,0.0,0.0,0.0,2.8331,2.9828,3.1297,3.2452,3.3176,3.3283,3.2983,3.2226,3.1539,3.0818,3.0069,2.9373,2.9099,2.9293,3.3182,3.6262,3.8429,4.0304,4.1171,4.1153,4.1466,4.1097,4.0263,4.0514,3.8636,3.5242,3.4578,3.3155,3.1241,2.996,0.0,0.0,0.0,0.0,0.0,0.0,0.0,0.0,0.0,0.0,0.0,0.0,0.0,0.0,0.0,0.0,0.0,0.0,0.0,0.0,0.0,0.0,0.0,0.0,0.0,0.0,0.0,0.0,0.0,0.0,0.0,0.0,0.0,0.0,0.0,0.0,0.0,0.0,4.7029,4.6491,0.0,0.0,0.0,0.0,4.5185,4.5802,4.673,4.8038,4.8098,4.8716,5.0058,5.0727,5.1397,5.2127,5.2737,5.3067,5.3169,5.3109,5.3486,5.4149,5.4179,5.4209,5.4209,5.4209,5.3832,5.3228,5.3079,5.2217,5.1068,5.0978,5.0182,4.9247,5.0511,5.0936,5.1146,0.0,0.0,0.0,0.0,0.0,2.2696,2.2696,2.2932,2.3515,2.4737,2.6581,2.8398,2.9929,3.2708,3.4534,3.4794,3.5712,3.5994,3.5238,3.4014,3.3423,3.3644,3.2471,3.2993,3.5406,3.6877,3.8913,4.1603,4.2682,4.3191,4.32,4.3304,4.316,4.2841,4.2958,4.2041,4.0278,3.7524,3.522,3.3313,3.1988,3.0781,0.0,0.0,0.0,0.0,0.0,0.0,0.0,0.0,0.0,0.0,0.0,0.0,0.0,0.0,0.0,0.0,0.0,0.0,0.0,0.0,0.0,0.0,0.0,0.0,0.0,0.0,0.0,0.0,0.0,0.0,0.0,0.0,0.0,0.0,0.0,0.0,0.0,4.6052,4.5813,0.0,4.6531,4.6591,4.695,4.781,4.8465,4.9202,5.011,5.0571,5.1229,5.2097,5.2366,5.2618,5.2827,5.3079,5.3426,5.3832,5.3832,5.4192,5.485,5.485,5.485,5.485,5.485,5.4713,5.4473,5.4473,5.3695,5.2498,5.2498,5.2199,5.1911,5.2803,5.3132,5.3252,0.0,0.0,0.0,0.0,2.2455,2.2317,2.2317,2.2519,2.3308,2.5015,2.7194,2.935,3.1355,3.423,3.6118,3.6349,3.7302,3.7584,3.6857,3.5594,3.4979,3.5205,3.4779,3.6275,3.998,3.9886,4.1127,4.3833,4.3869,4.3899,4.3899,4.4234,4.4217,4.3908,4.4243,4.3846,4.2744,3.9937,3.8115,3.6992,3.5622,3.4354,3.3173,0.0,0.0,0.0,0.0,0.0,0.0,0.0,0.0,0.0,0.0,0.0,0.0,0.0,0.0,0.0,0.0,0.0,0.0,0.0,0.0,0.0,0.0,0.0,0.0,0.0,0.0,0.0,0.0,0.0,0.0,0.0,0.0,0.0,0.0,4.5394,4.655,4.6332,4.6512,4.6991,4.7889,4.8356,4.8985,4.9864,5.0739,5.1397,5.1846,5.2306,5.2845,5.3516,5.3545,5.3635,5.3875,5.3875,5.4114,5.4551,5.4551,5.476,5.5192,5.5192,5.5192,5.5192,5.5192,5.5192,5.5222,5.5431,5.5025,5.4186,5.3977,5.3875,5.3935,5.4371,5.4939,5.5619,0.0,0.0,0.0,2.3413,2.2797,2.232,2.2317,2.2936,2.4192,2.6395,2.8716,3.1253,3.4173,3.591,3.7162,3.7883,3.795,3.7652,3.6925,3.609,3.534,3.468,3.6095,3.8643,4.2314,4.2054,4.2956,4.5173,4.404,4.3497,4.3487,4.4482,4.4415,4.3507,4.4472,4.4009,4.2525,4.1847,4.1837,4.2188,4.0679,3.9548,3.8535,0.0,0.0,0.0,0.0,0.0,0.0,0.0,0.0,0.0,0.0,0.0,0.0,0.0,0.0,0.0,0.0,0.0,0.0,0.0,0.0,0.0,0.0,0.0,0.0,0.0,0.0,0.0,0.0,0.0,0.0,0.0,0.0,0.0,4.638,4.6939,4.7608,4.8248,4.8947,4.9348,4.9348,5.0511,5.1265,5.1265,5.2498,5.3216,5.3216,5.3258,5.3575,5.4209,5.4239,5.4551,5.5192,5.5222,5.5222,5.5222,5.5251,5.5251,5.5251,5.5251,5.5251,5.5251,5.5251,5.5251,5.5311,5.5953,5.6222,5.6162,5.5521,5.5251,5.5251,5.5251,5.6448,5.8162,0.0,0.0,0.0,2.3481,2.3241,2.2932,2.2388,2.2936,2.4192,2.6395,2.9165,3.1804,3.424,3.6818,3.8476,3.8673,3.9186,3.9186,3.8442,3.719,3.6851,3.7725,3.9038,4.1284,4.4486,4.3904,4.4638,4.6911,4.7258,4.7431,4.744,4.7721,4.7704,4.7415,4.7019,4.6573,4.6121,4.5253,4.4962,4.478,4.1085,3.8879,3.7748,0.0,0.0,0.0,0.0,0.0,0.0,0.0,0.0,0.0,0.0,0.0,0.0,0.0,0.0,0.0,0.0,0.0,0.0,0.0,0.0,0.0,0.0,0.0,0.0,0.0,0.0,0.0,0.0,0.0,0.0,0.0,4.5963,4.7059,4.638,4.8084,4.9303,4.9067,5.0014,5.069,5.069,5.1858,5.2648,5.2648,5.3443,5.3922,5.3922,5.4384,5.4743,5.4922,5.491,5.4999,5.5192,5.5671,5.5923,5.5923,5.6359,5.6598,5.6598,5.6598,5.6598,5.6598,5.6598,5.6598,5.6598,5.6778,5.6838,5.6838,5.6658,5.6598,5.6598,5.6598,5.6934,5.7418,0.0,0.0,0.0,2.4391,2.4323,2.4184,2.3741,2.4552,2.6146,2.8696,3.0823,3.322,3.6067,3.7962,3.9113,3.9423,3.9869,3.9666,3.8599,3.8036,3.8511,4.0247,4.1993,4.4037,4.6388,4.5897,4.6264,4.7581,4.7348,4.7255,4.7255,4.7255,4.7019,4.661,4.6462,4.6182,4.5764,4.5232,4.4992,4.4735,4.2096,4.0645,4.0043,3.9774,3.836,3.6595,3.6929,3.6468,3.5775,3.6044,0.0,0.0,0.0,0.0,0.0,0.0,0.0,0.0,0.0,0.0,0.0,0.0,0.0,0.0,0.0,0.0,0.0,0.0,0.0,0.0,0.0,0.0,0.0,0.0,4.7717,4.8794,4.8394,4.965,5.0488,5.0133,5.1241,5.2037,5.2037,5.2995,5.3635,5.3635,5.4251,5.461,5.461,5.497,5.5341,5.5611,5.5611,5.573,5.5987,5.6389,5.6568,5.6568,5.6928,5.7094,5.7094,5.7094,5.7094,5.7094,5.7094,5.7244,5.7543,5.7812,5.8082,5.8274,0.0,0.0,0.0,0.0,6.0036,5.9646,2.6733,2.6247,2.5837,2.5736,2.5803,2.5837,2.5736,2.6915,2.8881,3.1882,3.3022,3.4906,3.8605,3.9079,3.9389,4.0039,4.0174,3.9688,3.8491,3.8999,4.032,4.2488,4.4647,4.6428,4.7844,4.7699,4.7581,4.7581,4.6037,4.5273,4.5273,4.5273,4.479,4.3984,4.4753,4.4602,4.377,4.3674,4.3625,4.3625,4.3625,4.3636,4.3567,4.2985,4.1435,3.9709,4.0423,3.9469,3.7943,3.855,0.0,0.0,0.0,0.0,0.0,0.0,0.0,0.0,0.0,0.0,0.0,0.0,0.0,0.0,0.0,0.0,0.0,0.0,0.0,0.0,0.0,0.0,0.0,0.0,4.9751,5.1427,5.1427,5.1487,5.1505,5.1427,5.2546,5.3306,5.3306,5.3922,5.4299,5.4299,5.494,5.5311,5.5311,5.5371,0.0,0.0,0.0,5.6551,5.7094,5.7184,5.7214,5.7214,5.7377,5.7436,5.7436,5.7526,5.7543,5.7543,5.7543,5.7889,5.8474,5.9085,5.9668,6.004,5.8245,5.8368,5.9998,6.3482,6.4132,6.3444,2.6831,2.7055,2.7186,2.659,2.6987,2.7186,2.6594,2.722,2.8881,3.1882,3.3467,3.5492,3.8673,3.9525,3.9937,4.0079,4.0635,4.1136,4.1447,4.1516,4.2603,4.4925,4.5881,4.6776,4.7628,4.763,4.7581,4.7581,4.7974,4.8185,4.8185,4.8185,4.8088,4.7876,4.7306,4.696,4.6713,4.5961,4.5638,4.5638,4.5638,4.4449,4.2668,4.2539,4.1865,4.1033,4.1201,4.0974,4.0655,4.0775,3.9957,3.8862,3.8973,3.8563,0.0,0.0,0.0,0.0,0.0,0.0,0.0,0.0,0.0,0.0,0.0,0.0,0.0,0.0,0.0,0.0,0.0,0.0,0.0,4.9531,5.1427,5.2797,5.2797,5.3294,5.3401,5.2887,5.3503,5.4012,5.4012,5.461,5.4999,5.4999,5.5623,5.6013,5.6013,5.6479,5.6795,5.6928,5.6928,5.6974,5.7094,5.762,5.7919,5.7919,5.9009,0.0,5.9532,6.0086,6.0312,6.0312,6.0312,6.0402,6.0521,6.0671,6.0791,6.0864,6.0462,6.1149,6.2421,6.3187,6.4032,6.4799,2.7918,2.815,2.8281,2.7922,2.8446,2.8847,2.8446,2.933,3.0857,3.31,3.4376,3.5921,3.8193,3.8774,3.9011,3.9011,3.9681,4.0535,4.157,4.2738,4.4237,4.6074,4.7195,4.7914,4.8297,4.8297,4.8297,4.8297,4.8297,4.808,4.7581,4.7581,4.7096,4.6173,4.6662,4.6659,4.617,4.5697,4.5498,4.5452,4.4946,4.3991,4.2909,4.3412,4.3196,4.2591,4.2415,4.2172,4.1952,4.2252,4.1713,4.0825,4.0516,3.9948,3.9418,0.0,0.0,0.0,0.0,0.0,0.0,0.0,0.0,0.0,0.0,0.0,0.0,0.0,0.0,4.6311,4.7945,0.0,5.0571,5.1546,5.2845,5.3683,5.3683,5.4281,5.4461,5.3773,5.4281,5.47,5.47,5.5311,5.57,5.57,5.6299,5.6658,5.6658,5.6928,5.7244,5.759,5.7932,5.8261,5.8604,5.9265,5.9594,5.9624,6.0296,6.0595,6.0625,6.094,6.109,6.109,6.109,6.1672,6.2648,6.3349,6.3609,6.3556,6.3216,6.3464,6.4298,6.6026,6.6871,6.724,2.9411,2.9416,2.9377,2.9242,2.9943,3.0548,3.0548,3.1674,3.3028,3.4511,3.5239,3.618,3.7747,3.7916,3.795,3.8086,3.8774,3.9905,4.1579,4.3456,4.5276,4.6987,4.8123,4.8814,4.9011,4.9011,4.8899,4.8744,4.7958,4.7129,4.62,4.62,4.5348,4.3926,4.5493,4.5787,4.507,4.507,4.507,4.4996,4.4195,4.3858,4.3926,4.4558,4.4328,4.3666,4.3405,4.299,4.2661,4.313,4.2821,4.2131,4.1703,4.1124,4.0606,4.0765,4.0876,0.0,0.0,0.0,0.0,0.0,0.0,0.0,0.0,4.5952,4.5503,4.6958,4.7687,4.8615,5.0458,5.1325,5.2145,5.3216,5.3952,5.4389,5.4389,5.497,5.5179,5.464,5.5072,5.5401,5.5401,5.5983,5.6372,5.6372,5.6958,5.7304,5.7304,5.7543,5.7932,5.8487,5.9145,5.9757,6.028,6.0821,6.109,6.109,6.1239,6.1299,6.1299,6.1433,6.1539,6.1658,6.1808,6.2782,6.4375,6.5761,6.6155,6.5909,6.6165,6.6139,6.6243,6.8993,7.0035,7.0094,3.0828,3.0963,3.0755,3.0103,3.1128,3.2051,3.2051,3.2752,3.3824,3.5267,3.5538,3.618,3.7747,3.7916,3.8153,3.8808,3.9441,4.1056,4.4,4.416,4.5514,4.8596,4.8127,4.8153,4.8995,4.9011,4.8592,4.7762,4.7663,4.7129,4.62,4.62,4.6085,4.588,4.6094,4.6138,4.6032,4.6032,4.6032,4.6023,4.5916,4.5871,4.5791,4.507,4.4203,4.3348,4.3309,4.327,4.321,4.327,4.2512,4.1583,4.2131,4.1832,4.1403,4.2012,4.2561,4.2891,4.2491,4.3229,4.4426,4.5822,4.651,4.7219,0.0,4.8379,4.8386,5.0249,5.0697,5.1187,5.2618,5.3414,5.391,5.4059,5.464,5.5102,5.5102,5.5683,5.6072,5.5983,5.6042,5.6102,5.6102,5.6628,5.7017,5.7017,5.762,5.7995,5.7995,5.9129,5.9801,5.9861,6.0535,6.091,6.1,6.106,6.109,6.112,6.1702,6.2002,6.2002,6.2614,6.3183,6.3707,6.4321,6.4709,6.5004,6.6479,6.6284,6.5508,6.9302,6.9976,6.888,6.9277,7.0926,7.2846,3.1128,3.1195,3.1229,3.1364,3.1882,3.2293,3.2293,3.3298,3.4094,3.4292,3.5064,3.5678,3.5893,3.6287,3.6862,3.7664,3.9122,4.1131,4.372,4.4502,4.6098,4.8863,4.8112,4.8023,4.8995,4.8474,4.7982,4.7581,4.7062,4.6288,4.537,4.537,4.5057,4.4555,4.5113,4.537,4.537,4.537,4.537,4.5324,4.4731,4.4517,4.4479,4.407,4.3432,4.283,4.316,4.308,0.0,4.319,4.2691,4.2092,4.2731,4.2232,4.1673,4.31,4.288,4.2551,4.4227,4.5633,4.695,4.8234,4.8525,4.8917,5.0612,5.0451,5.0451,5.2037,5.2653,5.3102,5.3683,5.4341,5.479,5.479,5.5012,5.5341,5.5743,5.6013,5.6342,5.6688,5.7064,5.7154,5.6748,5.7304,5.7829,5.8231,5.889,5.9428,5.9833,6.0372,6.0685,6.0685,6.1343,6.1672,6.1672,6.2061,6.245,6.281,6.3079,6.3408,6.3812,6.4082,6.4351,6.4634,6.5754,6.6706,6.7561,6.8587,6.9128,6.9459,7.0884,7.1844,7.2385,7.1915,7.2749,7.4105,3.1471,3.15,3.1742,3.2452,3.2762,3.2897,3.2897,3.3975,3.4602,3.4089,3.4929,3.5408,3.4878,3.5273,3.5842,3.6406,3.8497,4.0621,4.258,4.3946,4.5747,4.8134,4.7564,4.763,4.8592,4.7942,4.7465,4.7222,4.6261,4.5315,4.4377,4.4377,4.4004,4.3329,4.4072,4.4377,4.4377,4.4377,4.4377,4.431,4.3576,4.33,4.327,4.313,4.2771,4.2461,4.288,4.2641,4.2191,4.2641,4.2501,4.2221,4.2851,4.2542,4.2282,4.4037,4.3718,4.3359,4.6102,4.7698,4.8876,5.0159,5.0421,5.0744,5.2139,5.2097,5.2097,5.3246,5.3862,5.4269,5.4431,5.488,5.5251,5.5461,5.5491,5.57,5.6372,5.6611,5.6898,5.7334,5.8128,5.8457,5.7962,5.8381,5.8846,5.9338,6.001,6.0595,6.106,6.1269,6.1359,6.1359,6.2181,6.263,6.263,6.3303,6.3827,6.4276,6.4276,6.453,6.5009,6.5604,6.5665,6.5383,6.741,6.877,6.9691,7.0985,7.1999,7.2763,7.3108,7.3947,7.4992,7.4815,7.5078,7.5548,3.2119,3.2259,3.2491,3.3249,3.397,3.4443,3.4443,3.5075,3.5571,3.5538,3.5571,3.5605,3.5571,3.5605,3.5605,3.5633,3.7719,3.9575,4.0876,4.2171,4.389,4.6174,4.6252,4.667,4.7638,4.7597,4.7163,4.6235,4.531,4.432,4.3349,4.3349,4.3329,4.33,4.3329,4.3349,4.3349,4.3349,4.3349,4.3339,4.3309,4.33,4.324,4.2661,4.241,4.241,4.241,4.2012,4.1433,4.1463,4.1463,4.1553,4.2221,4.2791,4.3509,4.4885,4.5683,4.645,4.7848,4.8738,4.9576,5.0858,5.2127,5.3109,5.3169,5.3169,5.3336,5.403,5.4179,5.4389,5.5029,5.5192,5.5401,5.6072,5.6162,5.6372,5.6987,5.762,5.8068,5.8055,5.9249,6.004,6.001,6.004,6.004,6.007,6.0685,6.109,6.109,6.1732,6.2061,6.2061,6.3288,6.3947,6.3947,6.462,6.4964,6.4964,6.4964,6.4964,6.5084,6.7154,6.733,6.6177,6.9741,7.0877,7.0478,7.3388,7.4158,7.3849,7.6699,7.696,7.5956,7.735,7.7887,7.7715,3.2259,3.2293,3.2699,3.3936,3.4342,3.4646,3.5171,3.5436,3.5436,3.494,3.4872,0.0,0.0,0.0,0.0,0.0,3.8261,4.0243,4.3176,4.2995,4.4108,4.7006,4.6523,4.634,4.6653,4.6662,4.6191,4.5282,4.4291,4.3615,4.33,4.33,4.33,4.33,4.33,4.33,4.33,4.33,4.33,4.327,4.2851,4.2681,4.269,4.2491,4.1862,4.1124,0.0,4.1313,4.0795,4.1254,4.1094,4.1005,4.2512,4.2551,4.2282,4.3579,4.5373,4.7249,4.8588,4.9756,5.087,5.2187,5.2857,5.3318,5.3773,5.3862,5.4042,5.473,5.5222,5.5611,5.582,5.6179,5.6539,5.6748,5.6808,5.7017,5.7679,5.7979,5.8427,5.9308,5.9831,6.0266,6.0715,6.0761,6.0954,6.1373,6.1642,6.1972,6.2405,6.3019,6.3348,6.3348,6.4201,6.468,6.468,6.4874,6.5203,6.5667,6.6116,6.7095,6.8546,6.9258,7.0137,7.1091,7.2319,7.3284,7.3943,7.3902,7.4934,7.6535,7.6509,7.7078,7.8064,7.8559,7.9025,7.9313,3.3028,3.3106,3.3473,3.4675,3.4878,0.0,0.0,0.0,0.0,0.0,0.0,0.0,0.0,0.0,0.0,0.0,0.0,3.9933,4.3087,4.281,4.3767,4.6581,4.5685,4.532,4.5824,4.5352,4.4754,4.4087,4.3661,4.3293,4.299,4.321,4.319,4.299,4.299,4.2841,4.2631,4.2631,4.2751,4.293,4.2301,4.2201,4.2351,4.1862,4.1164,0.0,4.0616,4.0397,4.0118,4.0546,4.0705,4.0975,4.2242,4.2701,4.301,4.4057,4.6102,4.8308,4.9625,5.0942,5.2187,5.3264,5.3755,5.4024,5.4461,5.4551,5.467,5.5089,5.5551,5.5923,5.6162,5.6521,5.7017,5.7693,5.8035,5.8411,5.9085,5.9385,5.9744,6.0386,6.0669,6.0984,6.1433,6.1672,6.1882,6.2091,6.251,6.2974,6.3393,6.4006,6.4351,6.4351,6.5009,6.5353,6.5353,6.5607,6.6343,6.7546,6.7425,6.8516,7.0668,7.0639,7.1092,7.2056,7.3654,7.4721,7.5388,7.5456,7.68,7.8679,7.7695,7.8188,7.9486,7.9486,7.9803,8.0141,3.441,3.4545,3.4748,0.0,0.0,0.0,0.0,0.0,0.0,0.0,0.0,0.0,0.0,0.0,0.0,0.0,0.0,0.0,4.0782,4.1574,4.2836,4.4836,4.3752,4.3705,4.4989,4.3759,4.2956,4.2727,4.3317,4.3166,4.2351,4.298,4.2969,4.2418,4.2418,4.2058,4.1469,4.1422,4.1772,4.2291,4.1622,4.1742,4.2161,4.0885,4.0367,4.0268,3.967,3.9451,3.9451,3.9451,4.0397,4.1553,4.1643,4.3369,4.5544,4.6251,4.7818,4.9636,5.0948,5.2247,5.3396,5.4072,5.473,5.5192,5.5192,5.5192,5.5222,5.5239,5.5281,5.5491,5.6162,5.6342,5.6958,5.886,5.9668,6.0326,6.1,6.1642,6.1822,6.121,6.1702,6.2121,6.2181,6.2764,6.2884,6.2301,6.3348,6.4006,6.4036,6.468,6.5054,6.5054,6.5697,6.6071,6.6086,6.6759,6.8153,7.0226,6.8758,6.9199,7.1368,7.1367,7.0663,6.9693,7.4042,7.5533,7.5097,7.7894,7.9491,8.0209,8.0099,8.0112,8.0209,8.0209,8.0209,8.0196,0.0,0.0,0.0,0.0,0.0,0.0,0.0,0.0,0.0,0.0,0.0,0.0,0.0,0.0,0.0,0.0,0.0,0.0,4.0991,4.1158,4.1657,4.2734,4.2989,4.2928,4.2525,4.2855,4.2605,4.1768,4.19,4.1859,4.1662,4.2479,4.2763,4.2628,4.2628,4.2536,4.2337,4.1674,4.1493,4.1583,4.0915,4.0765,4.0885,4.0516,4.0088,3.969,4.0029,4.0148,4.0148,4.0148,4.1683,4.3748,4.4725,4.5862,4.701,4.8188,4.9224,5.038,5.2187,5.3294,5.4102,5.479,5.5059,5.5192,5.5192,5.5192,5.5341,5.5833,5.6299,5.6825,5.75,5.8022,5.8693,5.9681,5.998,6.0326,6.1,6.1239,6.1493,6.1822,6.2002,6.248,6.3408,6.3677,6.3917,6.4231,6.4096,6.4216,6.474,6.5398,6.5757,6.5757,6.64,6.6969,6.7493,6.8151,6.8774,6.933,6.8924,6.9911,7.2066,7.3235,7.4427,7.5777,7.8053,7.8969,7.8732,7.8378,7.8983,8.0074,7.8954,7.9176,8.0209,8.0209,8.0209,8.0036,0.0,0.0,0.0,0.0,0.0,0.0,0.0,0.0,0.0,0.0,0.0,0.0,0.0,0.0,0.0,0.0,0.0,0.0,0.0,4.0286,4.05,4.1564,4.1058,4.0753,4.08,4.0733,4.0487,4.0086,4.0474,4.0758,4.0963,4.1452,4.1699,4.1699,4.1699,4.1525,4.1215,4.0717,4.0705,0.0,0.0,4.0157,4.0367,4.0058,3.9729,3.9451,3.9819,4.0687,4.1824,4.2691,4.3768,4.4965,4.6311,4.7399,4.8368,4.9415,5.0571,5.1816,5.3234,5.4132,5.473,5.5102,5.5192,5.5281,5.5581,5.5401,5.5401,5.6072,5.6462,5.6898,5.753,5.8457,5.9428,6.0386,6.1028,6.1537,6.1912,6.2211,6.2421,6.2525,6.278,6.3199,6.3917,6.4276,6.471,6.5398,6.5099,6.5054,6.5428,6.6056,6.658,6.6864,6.7254,6.7762,6.8421,6.8794,6.9471,7.0462,7.0462,7.1261,7.2794,7.4339,7.5324,7.5949,7.8191,7.9176,7.9163,7.8993,7.9033,7.9098,7.8238,7.8425,7.9176,7.9176,7.9632,8.004,0.0,0.0,0.0,0.0,0.0,0.0,0.0,0.0,0.0,3.2581,3.3093,3.3743,0.0,0.0,0.0,0.0,0.0,0.0,0.0,0.0,3.9267,4.0446,3.8716,3.8278,3.9497,3.8322,3.7869,3.8281,3.903,3.9585,4.0008,4.0106,4.016,4.016,4.016,3.989,3.9421,3.9335,3.966,4.0217,3.9631,3.9759,4.0217,0.0,3.9451,3.955,3.972,4.1365,4.3748,4.5762,4.6161,4.6093,4.7489,4.8757,4.9816,5.0518,5.1965,5.3486,5.4162,5.476,5.5192,5.5192,5.5192,5.5341,5.5923,5.5623,5.5401,5.6072,5.6252,5.6521,5.7124,5.8321,5.9624,6.091,6.2151,6.3003,6.3108,6.3632,6.3797,6.3273,6.3767,6.4186,6.4246,6.48,6.5428,6.6086,6.6221,6.6281,6.6281,6.6835,6.7433,6.8107,6.8227,6.8541,6.9123,6.9213,7.0209,7.2105,7.2105,7.252,7.3338,7.488,7.4954,7.3988,7.6716,7.7895,7.7976,7.9111,7.8908,7.7895,7.7895,7.805,7.8178,7.8112,7.8912,7.9913,0.0,0.0,0.0,0.0,0.0,0.0,0.0,0.0,0.0,0.0,3.2665,3.3221,0.0,0.0,0.0,0.0,0.0,0.0,0.0,0.0,0.0,3.7412,3.7638,3.7846,3.7987,3.7738,3.7614,3.7575,3.7708,3.7828,3.7922,3.8677,3.8997,3.8997,3.8997,3.9243,3.9594,3.8883,3.896,3.9571,3.9451,3.9481,3.9571,3.9442,3.975,0.0,4.1493,4.286,4.4416,4.6461,4.7799,4.8929,5.075,5.1498,5.1959,5.3162,5.376,5.4162,5.485,5.5089,5.5192,5.5192,5.5192,5.5222,5.5341,5.5281,5.5401,5.6072,5.6611,5.7167,5.7799,5.9009,6.0176,6.097,6.1762,6.2465,6.3003,6.3632,6.3947,6.3871,6.4411,6.5039,6.5592,6.5757,6.6086,6.6759,6.7343,6.7643,6.7643,6.7778,6.8122,6.8794,6.9349,6.9708,6.9828,7.032,7.0765,7.116,7.116,7.1908,7.3338,7.488,7.6138,7.7124,7.7678,7.7895,7.7828,7.6818,7.6999,7.7895,7.7895,7.8684,7.9731,7.9112,7.9048,7.8985,0.0,0.0,0.0,0.0,0.0,0.0,0.0,3.2519,3.2878,3.3918,3.3781,3.3832,3.4433,3.3924,3.425,0.0,0.0,0.0,0.0,0.0,0.0,3.6054,3.6391,3.6561,3.6503,3.6525,3.6657,3.6926,0.0,3.6738,3.7404,3.7507,3.7715,3.8041,3.8376,3.8711,3.9012,3.8945,3.9101,3.9391,3.9391,3.9391,3.9451,3.9789,4.0337,0.0,4.2041,4.3439,4.5025,4.6341,4.8106,5.0051,5.1678,5.2438,5.2917,5.391,5.4461,5.479,5.5089,5.5192,5.5192,5.5192,5.5192,5.5281,5.5641,5.5461,5.5401,5.6072,5.6432,5.6838,5.744,5.8949,6.034,6.1,6.1942,6.2854,6.3482,6.3827,6.4126,6.447,6.5099,6.5637,6.5966,6.664,6.7164,6.7493,6.8151,6.8361,6.8017,6.8676,6.9199,6.9512,7.0141,7.047,7.047,7.0769,7.0889,7.0905,7.2565,7.2876,7.2157,7.5348,7.6308,7.5551,7.6336,7.672,7.672,7.679,7.628,7.5533,7.6379,7.6909,7.7228,7.726,7.8057,7.8959,0.0,0.0,0.0,0.0,0.0,0.0,0.0,3.3185,3.3604,3.5459,3.5378,3.5056,3.4937,3.4675,3.4996,0.0,0.0,0.0,0.0,0.0,0.0,0.0,3.5511,3.5511,3.5511,0.0,0.0,3.6493,3.5818,0.0,0.0,0.0,0.0,0.0,3.7772,3.8131,3.8431,3.8802,3.9152,0.0,0.0,3.9481,3.972,0.0,0.0,0.0,0.0,4.4098,4.5633,4.6281,4.8065,5.0249,5.1576,5.2546,5.3336,5.4012,5.467,5.5192,5.5192,5.5192,5.5192,5.5192,5.5192,5.5341,5.5863,5.5581,5.5341,5.5893,5.6192,5.6568,5.7184,5.8949,6.0565,6.1403,6.251,6.3512,6.4126,6.4336,6.462,6.5144,6.5817,6.6281,6.64,6.7373,6.8047,6.8181,6.884,6.899,6.8466,6.9558,7.0187,7.0187,7.0649,7.0889,7.0889,7.0889,7.0889,7.0921,7.3398,7.3475,7.1551,7.5246,7.5767,7.3824,7.4703,7.51,7.5159,7.6053,7.5127,7.3352,7.481,7.5317,7.5294,7.5917,7.7377,7.9042,0.0,0.0,0.0,0.0,0.0,0.0,0.0,3.3949,3.4817,3.6216,3.6836,3.6926,3.6374,3.5244,3.4789,0.0,0.0,0.0,0.0,0.0,0.0,0.0,0.0,0.0,0.0,0.0,0.0,3.6493,3.5818,0.0,0.0,0.0,0.0,0.0,0.0,3.7323,3.8371,3.7823,0.0,0.0,0.0,0.0,0.0,0.0,0.0,0.0,0.0,4.5544,4.63,4.6969,4.8188,4.9606,5.0888,5.2187,5.3336,5.4012,5.467,5.5192,5.5192,5.5192,5.5192,5.5192,5.5192,5.5222,5.5281,5.5239,5.5222,5.5281,5.6209,5.7214,5.7889,5.9654,6.1433,6.2704,6.3482,6.4156,6.4815,6.5428,6.5832,6.5906,6.649,6.7164,6.7778,6.7928,6.8241,6.8854,6.9528,6.9887,6.9828,7.044,7.0829,7.0829,7.0859,7.0889,7.0889,7.0889,7.0889,7.0889,7.1182,7.1966,7.3108,7.3521,7.4334,7.5319,7.405,7.349,7.3306,7.2078,7.2236,7.3367,7.418,7.5778,7.7591,7.7722,7.834,7.8804,0.0,0.0,0.0,0.0,0.0,0.0,3.3829,3.3979,3.4659,3.6776,3.7246,3.7306,3.7075,3.6567,3.6028,3.5541,0.0,0.0,0.0,0.0,0.0,0.0,0.0,0.0,0.0,0.0,3.6246,3.6493,3.6596,0.0,0.0,0.0,0.0,0.0,0.0,3.793,3.8401,3.8533,0.0,0.0,0.0,0.0,0.0,0.0,0.0,0.0,0.0,0.0,4.639,4.7059,4.8188,4.9456,5.0308,5.1517,5.2827,5.388,5.4401,5.47,5.5102,5.5192,5.5192,5.5192,5.5192,5.5192,5.5192,5.5521,5.5803,5.5803,5.6479,5.7304,5.7979,5.9415,6.0938,6.2285,6.3348,6.4366,6.5458,6.6191,6.661,6.661,6.7537,6.8151,6.8017,6.8736,6.9468,7.0111,7.038,7.053,7.053,7.0769,7.0889,7.0889,7.0889,7.0889,7.0889,7.0889,7.0889,7.0905,7.1887,7.2157,7.1887,7.286,7.3123,7.2752,7.2126,7.1855,7.1841,7.2142,7.2705,7.3369,7.4024,7.5152,7.6397,7.6346,7.6542,7.6796,0.0,0.0,0.0,0.0,0.0,3.2176,3.4188,3.4278,3.4951,3.7375,3.7704,3.7704,3.7704,3.7375,3.6776,3.5878,3.5601,0.0,0.0,0.0,0.0,0.0,0.0,0.0,0.0,0.0,3.6575,3.6784,3.7195,3.7486,0.0,0.0,3.7704,3.7734,0.0,0.0,0.0,0.0,0.0,0.0,0.0,0.0,0.0,0.0,0.0,0.0,0.0,0.0,0.0,0.0,0.0,4.9655,5.0069,5.0996,5.2127,5.3282,5.388,5.4299,5.479,5.5029,5.5192,5.5192,5.5192,5.5192,5.5192,5.5713,5.6192,5.6192,5.6838,5.7603,5.8278,5.9488,6.0835,6.2195,6.3468,6.477,6.6101,6.6879,6.7373,6.7583,6.8435,6.8884,6.8616,6.9618,7.044,7.0859,7.0889,7.0889,7.0889,7.0889,7.0889,7.0889,7.0889,7.0889,7.0889,7.0889,7.0889,7.0905,7.2061,7.2014,7.0921,7.2062,7.1982,7.0889,7.0889,7.0889,7.1016,7.2277,7.2826,7.295,7.3617,7.4339,7.5036,7.502,7.5188,7.5557,0.0,0.0,0.0,0.0,0.0,0.0,3.4188,3.5048,3.6178,3.8131,3.8401,3.8401,3.8401,3.7263,3.6493,3.6493,3.5878,0.0,0.0,0.0,0.0,0.0,0.0,0.0,0.0,0.0,3.6784,3.7396,3.7396,3.7734,3.8401,3.8401,3.8401,3.8401,0.0,0.0,0.0,0.0,0.0,0.0,0.0,0.0,4.262,0.0,0.0,0.0,0.0,0.0,0.0,0.0,0.0,0.0,0.0,5.0656,5.1337,5.2037,5.3162,5.4209,5.4209,5.47,5.5192,5.5192,5.5192,5.5192,5.5192,5.5713,5.6192,5.6192,5.7214,5.8308,5.8979,6.0192,6.1523,6.2854,6.4156,6.5458,6.6789,6.7568,6.8257,6.8884,6.9004,6.9243,6.9917,7.053,7.0889,7.0889,7.0889,7.0889,7.0889,7.0889,7.0889,7.0889,7.0889,7.0889,7.0889,7.0889,7.0889,7.0889,7.0935,7.0935,7.0889,7.0935,7.0935,7.0889,7.0889,7.0889,7.0949,7.164,7.1909,7.1983,7.2779,7.3571,7.4252,7.4448,7.496,7.5594,0.0,0.0,0.0,0.0,0.0,0.0,0.0,3.4001,3.4839,3.6844,3.7084,3.7263,3.7674,3.6994,3.6665,3.7075,3.6109,0.0,0.0,0.0,0.0,0.0,0.0,0.0,0.0,0.0,3.7225,3.7396,3.8323,3.8892,3.9062,3.9062,3.9062,3.9062,3.9062,0.0,0.0,0.0,0.0,0.0,0.0,4.2052,4.317,0.0,0.0,0.0,0.0,0.0,0.0,0.0,0.0,0.0,0.0,0.0,0.0,5.1457,5.2486,5.3635,5.4072,5.47,5.5311,5.576,5.5551,5.5431,5.6286,5.6658,5.6958,5.738,5.8188,5.9009,5.9668,6.0492,6.1838,6.4052,6.5129,6.6295,6.8106,6.8555,6.8764,6.8974,6.9393,6.9947,7.056,7.0799,7.0889,7.0889,7.0889,7.0889,7.0889,7.0889,7.0889,7.0889,7.0889,7.0889,7.0889,7.0889,7.0889,7.0889,7.0889,7.0889,7.0889,7.0889,7.0889,7.0889,7.0889,7.1158,7.1593,7.1803,7.279,7.4108,7.3796,7.442,7.5458,7.4466,7.3936,7.3692,0.0,0.0,0.0,0.0,0.0,0.0,0.0,3.3552,3.442,3.5916,3.6335,3.6725,3.7336,3.6626,3.6477,3.7336,3.6477,0.0,0.0,0.0,0.0,0.0,0.0,0.0,0.0,3.6896,3.7516,3.7793,3.8862,3.9391,3.9391,3.9391,3.9391,3.9391,3.9391,3.9391,0.0,0.0,0.0,0.0,4.1403,4.2162,4.3419,0.0,0.0,0.0,0.0,0.0,0.0,0.0,0.0,0.0,0.0,0.0,0.0,0.0,5.2157,5.3336,5.4012,5.4491,5.5029,5.5983,5.5893,5.579,5.6568,5.7124,5.759,5.7995,5.8816,5.9608,6.001,6.0864,6.2077,6.3977,6.5039,6.6236,6.7986,6.8675,6.9183,6.9662,7.0081,7.0486,7.0859,7.0889,7.0889,7.0889,7.0889,7.0889,7.0889,7.0889,7.0889,7.0889,7.0889,7.0889,7.0889,7.0889,7.0889,7.0889,7.0889,7.0889,7.0889,7.0889,7.1038,7.1248,7.1009,7.1278,0.0,7.1893,7.2725,7.3915,7.3356,7.3738,7.4448,7.3202,7.2505,7.2168,0.0,0.0,0.0,0.0,0.0,0.0,0.0,3.3552,3.4607,3.534,3.5976,3.6605,3.7186,3.6199,3.602,3.7306,0.0,0.0,0.0,0.0,0.0,0.0,0.0,0.0,3.6493,3.7135,3.7793,3.8401,3.9071,3.9391,3.9391,3.9391,3.9391,3.9391,3.9391,3.9391,0.0,0.0,0.0,0.0,4.1463,4.2222,0.0,0.0,0.0,0.0,0.0,0.0,0.0,0.0,0.0,0.0,0.0,0.0,0.0,0.0,0.0,0.0,0.0,5.4209,5.4521,5.5803,5.6132,5.6162,5.6312,5.7244,0.0,5.8145,5.9189,6.01,6.016,6.1208,6.2301,6.3153,6.4276,6.5518,6.6939,6.8256,6.9512,7.0679,7.0889,7.0889,7.0889,7.0889,7.0889,7.0889,7.0889,7.0889,7.0889,7.0889,7.0889,7.0889,7.0889,7.0889,7.0889,7.0889,7.0889,7.0889,7.0859,7.0829,7.0829,7.0829,7.1174,7.1743,7.1158,7.1278,7.1893,7.1893,7.1923,7.1983,7.1983,7.1983,7.1893,7.1218,7.106,7.1323,0.0,0.0,0.0,0.0,0.0,0.0,0.0,0.0,0.0,0.0,3.4877,3.5206,3.5878,3.5691,3.602,0.0,0.0,0.0,0.0,0.0,0.0,0.0,0.0,0.0,3.6493,3.7593,3.8251,3.8401,3.9071,3.9391,3.9391,3.9391,3.9391,3.9391,3.9391,3.9391,0.0,0.0,0.0,0.0,4.1952,4.2621,0.0,0.0,0.0,0.0,4.6072,4.6839,0.0,0.0,0.0,0.0,0.0,0.0,0.0,0.0,5.1816,5.2025,5.373,0.0,5.4389,5.5222,5.5431,5.582,0.0,5.7889,5.8234,5.8756,5.9518,6.025,6.0775,6.112,6.2197,6.4874,6.5129,6.5847,6.8196,6.9259,6.9842,7.0095,7.0573,7.0889,7.0889,7.0889,7.0889,7.0889,7.0889,7.0889,7.0889,7.0889,7.0889,7.0889,7.0889,7.0889,7.0889,7.0889,7.0889,7.0889,7.0426,7.0217,7.0217,7.0217,7.0306,7.0456,7.0769,7.1278,7.1893,7.1893,7.2206,7.2668,7.2668,7.2668,7.2578,7.1906,7.2422,7.3398,0.0,0.0,0.0,0.0,0.0,0.0,0.0,0.0,0.0,0.0,0.0,3.4757,3.5429,0.0,0.0,0.0,0.0,0.0,0.0,0.0,0.0,0.0,0.0,3.6755,3.7362,3.805,3.8542,3.8871,3.9212,3.9391,3.9391,3.9391,3.9391,3.9391,3.9391,3.9391,0.0,0.0,0.0,4.1463,4.2141,0.0,0.0,0.0,0.0,0.0,4.5713,4.6461,0.0,4.8438,4.9007,4.9456,0.0,0.0,0.0,0.0,5.1696,5.1816,5.2623,5.3042,5.3653,5.5251,5.5671,5.609,5.7739,5.8338,5.8667,5.9039,5.9638,6.022,6.0565,6.1403,6.269,6.4755,6.5278,6.6295,6.8675,6.9303,6.9752,7.0274,7.044,7.059,7.0889,7.0889,7.0889,7.0889,7.0889,7.0889,7.0889,7.0889,7.0889,7.0889,7.062,7.062,7.0889,7.062,7.0486,7.047,6.9842,6.9708,7.0007,7.0007,7.0306,7.0875,7.0889,7.1278,7.1893,7.1564,7.1667,7.198,7.198,7.198,7.1936,7.1577,7.1952,7.263,0.0,0.0,0.0,0.0,0.0,0.0,0.0,0.0,0.0,0.0,0.0,0.0,0.0,0.0,0.0,0.0,0.0,0.0,0.0,0.0,0.0,0.0,0.0,3.7242,3.8221,3.8461,3.8841,3.9391,3.9391,3.9451,3.9541,3.9541,3.9541,3.9541,3.9541,3.9541,0.0,0.0,4.0945,4.1613,4.2271,0.0,0.0,0.0,0.0,0.0,0.0,0.0,0.0,4.8618,4.9138,4.9486,5.0571,0.0,0.0,0.0,0.0,0.0,5.1666,5.1995,5.2995,5.5085,5.5833,5.6329,5.741,5.8338,5.8936,5.8936,5.9638,6.028,6.04,6.1956,6.3482,6.4186,6.5443,6.6939,6.8764,6.9093,6.9602,7.0769,7.044,7.0336,7.0859,7.0889,7.0889,7.0889,7.0889,7.0889,7.0889,7.0799,7.0769,7.0769,7.0187,7.0081,7.059,7.0097,6.9858,6.9828,6.9273,6.9303,6.9858,6.9947,7.0576,7.1593,7.1098,7.1218,7.1713,7.1128,7.0889,7.0889,7.0889,7.0889,7.0889,7.0889,7.1051,7.1327,0.0,0.0,0.0,0.0,0.0,0.0,0.0,0.0,0.0,0.0,0.0,0.0,0.0,0.0,0.0,0.0,0.0,0.0,0.0,0.0,0.0,3.9062,3.8452,3.7913,3.7545,3.8682,3.9302,3.9391,3.9391,3.9699,4.0247,4.0247,4.0247,4.0247,4.0247,4.0247,4.0277,4.0945,4.1643,4.2311,4.2901,0.0,0.0,0.0,0.0,0.0,0.0,0.0,0.0,4.7549,4.8368,4.9318,4.9516,0.0,0.0,0.0,0.0,0.0,5.2917,5.3384,5.37,5.2995,5.4084,5.5401,5.5611,5.6991,5.8234,5.8234,5.9684,6.112,6.1702,6.2929,6.4246,6.5488,6.6835,6.8002,6.8884,6.9498,7.0127,7.0829,7.0829,7.0799,7.0889,7.0889,7.0889,7.0889,7.0889,7.0889,7.0889,7.0426,7.0127,7.0127,6.9498,6.9183,6.9303,6.9183,6.9153,6.9153,6.9064,6.9064,6.9183,6.9738,7.0097,7.0306,7.0709,7.0949,7.1038,7.0949,7.0889,7.0889,7.0889,7.0889,7.0889,7.0889,7.176,7.3292,0.0,0.0,0.0,0.0,0.0,0.0,0.0,0.0,0.0,0.0,0.0,0.0,0.0,0.0,0.0,0.0,0.0,0.0,0.0,0.0,0.0,3.8862,3.8892,3.8802,3.8503,3.9092,3.9759,4.0487,4.0487,4.0825,4.1463,4.0735,4.0397,4.0397,4.0397,4.0397,4.0457,4.1493,4.2301,4.291,0.0,0.0,0.0,0.0,0.0,0.0,0.0,0.0,0.0,0.0,4.8248,4.8887,4.9553,0.0,0.0,0.0,0.0,0.0,5.3198,5.3683,5.4132,5.3892,5.5568,5.7483,5.8231,5.9638,6.0685,6.0356,6.1,6.1732,6.2032,6.3139,6.4665,6.6729,6.7912,6.878,6.9407,6.9782,7.0217,7.0829,7.062,7.053,7.0859,7.062,7.041,7.041,7.0081,6.9871,6.9871,6.9602,6.9453,6.9453,6.881,6.8451,6.8451,6.8451,6.8645,6.9004,6.863,6.884,6.9558,6.9858,7.0187,7.05,7.0769,7.0889,7.0889,7.0889,7.0889,7.0889,7.0889,7.0889,7.0889,7.0889,7.1359,7.233,0.0,0.0,0.0,0.0,0.0,0.0,0.0,0.0,0.0,0.0,0.0,0.0,0.0,0.0,0.0,0.0,0.0,0.0,0.0,0.0,3.9161,3.867,3.9131,3.9331,3.9161,3.9481,4.0208,4.1403,4.1403,4.1742,4.2381,4.1343,4.0855,4.0855,4.0705,4.0726,4.0945,4.1952,4.283,4.3539,0.0,0.0,0.0,0.0,0.0,0.0,0.0,0.0,0.0,0.0,0.0,0.0,0.0,0.0,0.0,5.2276,5.3037,5.3635,5.3486,5.4054,5.479,5.5311,5.6958,5.88,6.0282,6.1567,6.2375,6.2345,6.257,6.2869,6.3199,6.4306,6.5892,6.8107,6.89,6.9393,6.9855,7.0081,7.038,7.0859,7.05,7.038,7.0859,7.047,7.0157,7.0007,6.9512,6.9153,6.9004,6.8854,6.8764,6.8764,6.8122,6.7838,6.7987,6.7987,6.8241,6.8764,6.8571,6.899,7.0007,7.0157,7.044,7.0889,7.0889,7.0889,7.0889,7.0889,7.0889,7.0889,7.0889,7.0889,7.0889,7.0889,7.0889,7.1132,0.0,0.0,0.0,0.0,0.0,0.0,0.0,0.0,0.0,0.0,0.0,0.0,0.0,0.0,0.0,0.0,0.0,0.0,0.0,0.0,3.9391,3.9331,3.9361,3.9101,3.849,3.9679,4.0675,4.1403,4.1403,4.1742,4.241,4.2291,4.2261,4.2231,4.1622,4.1673,4.2261,4.2351,4.311,4.4247,4.4247,0.0,0.0,0.0,0.0,0.0,0.0,0.0,0.0,0.0,0.0,0.0,0.0,0.0,5.3079,5.3097,5.4054,5.4922,5.4311,5.5072,5.6072,5.6102,5.6282,5.6911,5.88,5.9787,6.0819,6.2644,6.3977,6.5159,6.64,6.7747,6.8914,6.9708,6.9887,6.9947,6.9977,7.047,7.0859,7.0889,7.0859,7.0859,7.0889,7.0859,7.059,7.0037,6.9947,6.9678,6.9034,6.8421,6.8077,6.8077,6.7433,6.7373,6.7987,6.7987,6.8017,6.8107,6.9289,6.9917,7.0007,7.059,7.0859,7.0889,7.0889,7.0889,7.0889,7.0889,7.0889,7.0889,7.0889,7.0889,7.0889,7.0889,7.0889,7.1132,0.0,0.0,0.0,0.0,0.0,0.0,0.0,0.0,0.0,0.0,0.0,0.0,0.0,0.0,0.0,0.0,0.0,0.0,0.0,3.864,3.8952,3.9391,3.9391,3.949,3.9658,4.0556,4.1932,4.3818,4.4257,4.4137,4.3549,4.2331,4.2012,4.2381,4.1712,4.1772,4.241,4.28,4.3718,4.4885,4.4456,4.4815,0.0,0.0,0.0,0.0,0.0,0.0,0.0,0.0,4.8248,4.8947,5.038,5.1636,5.2737,5.3563,5.4473,5.5149,5.488,5.6077,5.7393,5.7393,5.8005,5.9023,6.0595,6.2091,6.3483,6.4665,6.5278,6.5787,6.6281,6.7478,6.86,6.9273,6.9738,7.0127,7.05,7.0769,7.0889,7.0889,7.0889,7.0889,7.0889,7.0201,6.9632,6.9393,6.86,6.8016,6.7792,6.7523,6.7373,6.7373,6.7523,6.7748,6.7987,6.8826,6.9229,6.9229,6.9768,7.0187,7.056,7.0799,7.0889,7.0889,7.0889,7.0889,7.0889,7.0889,7.0889,7.0889,7.0889,7.0889,7.0889,7.0889,7.0889,7.1132,0.0,0.0,0.0,0.0,0.0,0.0,0.0,0.0,0.0,0.0,0.0,0.0,0.0,0.0,0.0,0.0,0.0,0.0,3.8042,3.8281,3.8691,3.9361,3.9391,3.9819,4.0705,4.1573,4.309,4.5315,4.5982,4.5414,4.3658,4.2331,4.1952,4.2381,4.1922,4.2071,4.2711,4.313,4.3938,4.4975,4.4736,4.5174,0.0,0.0,0.0,0.0,0.0,0.0,0.0,0.0,4.8757,4.9224,5.0948,5.1977,5.2785,5.4132,5.5119,5.585,5.6047,5.7081,5.8234,5.8892,5.9757,6.0805,6.2361,6.3737,6.5039,6.637,6.6969,6.7268,6.7268,6.8181,6.9079,6.9542,6.9961,7.0426,7.0829,7.0889,7.0889,7.0889,7.0889,7.0829,7.062,6.9812,6.9123,6.872,6.7822,6.7224,6.7014,6.7194,6.7313,6.7313,6.7972,6.8421,6.863,6.9528,7.0097,7.0277,7.0277,7.0516,7.0889,7.0889,7.0889,7.0889,7.0889,7.0889,7.0889,7.0889,7.0889,7.0889,7.0889,7.0889,7.0889,7.0889,7.0889,7.1051,0.0,0.0,0.0,0.0,0.0,0.0,0.0,0.0,0.0,0.0,0.0,0.0,0.0,0.0,0.0,0.0,0.0,0.0,3.7396,3.8042,3.8691,3.9361,3.9391,4.0029,4.1373,4.2651,4.3967,4.5315,4.5982,4.4975,4.241,4.2381,4.2381,4.241,4.241,4.2741,4.33,4.33,4.3698,4.4366,4.5035,4.5315,4.5364,0.0,0.0,0.0,0.0,0.0,0.0,0.0,4.9703,5.0446,5.1786,5.2677,5.3468,5.4803,5.609,5.7244,5.7889,5.8085,5.8593,6.0581,6.112,6.1628,6.3588,6.4006,6.4755,6.7449,6.9065,6.9977,6.9977,7.047,7.0889,7.0889,7.0889,7.0889,7.0889,7.0889,7.0889,7.0889,7.0889,7.0679,7.0067,7.0007,6.9439,6.8107,6.7987,6.7703,6.7029,6.7643,6.7987,6.8017,6.866,6.9333,6.9977,7.0007,7.0306,7.0889,7.0889,7.0889,7.0889,7.0889,7.0889,7.0889,7.0889,7.0889,7.0889,7.0889,7.0889,7.0889,7.0889,7.0889,7.0889,7.0889,7.0889,7.0889,0.0,0.0,0.0,0.0,0.0,0.0,0.0,0.0,0.0,0.0,0.0,0.0,0.0,0.0,0.0,0.0,0.0,0.0,3.7396,3.8042,3.849,3.8691,3.9161,4.0029,4.1373,4.3569,4.4915,4.5315,4.5514,4.4506,4.2381,4.1922,4.1952,4.241,4.241,4.2741,4.33,4.33,4.3698,4.4366,4.5035,4.5574,4.6132,0.0,0.0,0.0,0.0,0.0,0.0,0.0,0.0,0.0,5.2336,5.3037,5.3468,5.4803,5.5461,5.582,5.6017,5.8098,6.0133,5.9774,6.1778,6.3977,6.456,6.5069,6.5772,6.7044,6.7972,6.8586,6.8586,6.9498,7.0277,7.0277,7.062,7.0889,7.0889,7.0889,7.0889,7.0889,7.0889,7.0829,7.0649,6.9812,6.9123,6.8734,6.7822,6.7403,6.7688,6.7898,6.8227,6.869,6.9349,6.9798,7.0007,7.0426,7.0709,7.0889,7.0889,7.0889,7.0889,7.0889,7.0889,7.0889,7.0889,7.0889,7.0889,7.0889,7.0889,7.0889,7.0889,7.0889,7.0889,7.0889,7.0889,7.0889,0.0,0.0,0.0,0.0,0.0,0.0,0.0,0.0,3.7943,3.8341,3.8631,3.8841,0.0,0.0,0.0,3.8431,3.8042,0.0,3.7793,3.8191,3.852,3.8781,3.9182,4.0029,4.1373,4.3688,4.4646,4.4157,4.4646,4.3778,4.1613,4.1742,4.1862,4.2041,4.281,4.307,4.297,4.3489,4.3788,4.3997,4.4915,4.5873,4.682,0.0,0.0,0.0,0.0,0.0,0.0,0.0,0.0,0.0,5.3054,5.3605,5.3905,5.5478,5.6539,5.7317,5.8125,6.0236,6.2257,6.2241,6.3812,6.5547,6.6056,6.6311,6.667,6.7597,6.8122,6.8481,6.8766,6.9648,7.0366,7.0366,7.0649,7.0889,7.0889,7.0889,7.0889,7.0889,7.0889,7.0799,7.056,6.9602,6.8884,6.863,6.7852,6.7553,6.7987,6.8526,6.899,6.9363,7.0021,7.0366,7.0366,7.0709,7.0889,7.0889,7.0889,7.0889,7.0889,7.0889,7.0889,7.0889,7.0889,7.0889,7.0889,7.0889,7.0889,7.0889,7.0889,7.0889,7.0889,7.0889,7.0889,7.0889,0.0,0.0,3.4787,0.0,0.0,0.0,0.0,3.7973,3.8401,3.8401,3.8981,3.9161,0.0,0.0,0.0,3.8542,3.849,3.8461,3.8401,3.8461,3.8751,3.9272,3.9481,4.0178,4.1463,4.321,4.3519,4.2321,4.3519,4.2841,4.0427,4.1772,4.2071,4.1583,4.3449,4.3668,4.264,4.3748,4.3878,4.3509,4.4785,4.6052,4.7309,4.8038,0.0,0.0,0.0,0.0,0.0,0.0,0.0,0.0,5.379,5.4209,5.4568,5.6376,5.8364,6.031,6.2135,6.3303,6.4425,6.6266,6.64,6.64,6.7628,6.7493,6.7433,6.8645,6.9004,6.9273,6.9887,7.05,7.0889,7.0889,7.0889,7.0889,7.0889,7.0889,7.0889,7.0889,7.0889,7.0679,7.0127,6.9439,6.8764,6.8227,6.8077,6.8047,6.8167,6.9349,7.0037,7.0067,7.062,7.0889,7.0889,7.0889,7.0889,7.0889,7.0889,7.0889,7.0889,7.0889,7.0889,7.0889,7.0889,7.0889,7.0889,7.0889,7.0889,7.0889,7.0889,7.0889,7.0889,7.0889,7.0889,7.0889,0.0,0.0,3.5489,3.6156,0.0,0.0,3.7306,3.7973,3.8401,3.8401,3.8981,3.9361,3.9191,3.9302,0.0,3.9191,3.9182,3.8952,3.8431,3.8901,3.9011,3.8631,4.0137,4.1343,4.2171,4.258,4.2431,4.1622,4.2431,4.1972,4.0427,4.1772,4.2321,4.2261,4.3658,4.4157,4.3868,4.3638,4.3758,4.4157,4.4975,4.5783,4.6659,4.7848,4.8708,0.0,0.0,0.0,0.0,0.0,0.0,0.0,5.3952,5.4209,5.4401,5.5329,5.7004,5.8637,5.9056,6.1553,6.4096,6.4545,6.5712,6.6849,6.7164,6.7493,6.7868,6.8167,6.9049,6.9828,6.9977,7.05,7.0889,7.0889,7.0889,7.0889,7.0889,7.0889,7.0889,7.0889,7.0889,7.0859,7.0709,6.9662,6.9153,6.9528,6.8571,6.8466,6.9498,6.9828,7.0217,7.0679,7.0829,7.0889,7.0889,7.0889,7.0889,7.0889,7.0889,7.0889,7.0889,7.0889,7.0889,7.0889,7.0889,7.0889,7.0889,7.0889,7.0889,7.0889,7.0889,7.0889,7.0889,7.0889,7.0889,7.0889,0.0,0.0,0.0,0.0,0.0,0.0,0.0,0.0,3.8401,3.8401,3.8981,3.9272,3.896,3.8922,0.0,0.0,3.8922,3.8892,3.8871,3.9212,3.9242,3.8901,4.0496,4.1254,4.0975,4.1922,4.1772,4.0427,4.1094,4.1064,4.0427,4.1433,4.2071,4.247,4.3718,4.3768,4.297,4.3888,4.4087,4.3938,4.5264,4.6371,4.7328,4.8038,4.8708,4.9366,4.9979,0.0,0.0,0.0,0.0,0.0,0.0,0.0,5.488,5.582,5.7051,5.8384,5.9654,6.1972,6.4216,6.5203,6.6221,6.7074,6.7403,6.8002,6.8571,6.887,6.9498,7.0097,7.038,7.0679,7.0889,7.0889,7.0889,7.0889,7.0889,7.0889,7.0889,7.0889,7.0889,7.0799,7.0516,6.9887,6.9498,6.9512,6.9169,6.9259,6.9947,7.0277,7.056,7.0889,7.0889,7.0889,7.0889,7.0889,7.0889,7.0889,7.0889,7.0889,7.0889,7.0889,7.0889,7.0889,7.0889,7.0889,7.0889,7.0889,7.0889,7.0889,7.0889,7.0889,7.0889,7.0889,7.1098,7.1368,0.0,0.0,0.0,0.0,0.0,0.0,0.0,0.0,0.0,3.8251,3.8922,3.9122,3.8461,3.8401,3.8341,0.0,0.0,0.0,3.9191,3.9331,3.9451,3.958,4.0645,4.0765,3.9759,4.1254,4.1254,3.9571,3.9999,4.0337,4.0576,4.1254,4.1912,4.261,4.3778,4.3419,4.2022,4.4207,4.4546,4.3808,4.5572,4.7029,4.8128,4.8128,4.8528,4.9217,4.9811,5.0189,5.0656,5.2558,0.0,0.0,0.0,0.0,5.5401,5.6479,5.738,5.8563,6.0805,6.269,6.4485,6.6505,6.7014,6.7194,6.7868,6.8511,6.9183,6.9858,7.0067,7.0306,7.0799,7.0889,7.0889,7.0889,7.0889,7.0889,7.0889,7.0889,7.0889,7.0889,7.0889,7.0709,7.0217,7.0067,6.9798,6.9363,6.9738,7.0037,7.0157,7.062,7.0889,7.0889,7.0889,7.0889,7.0889,7.0889,7.0889,7.0889,7.0889,7.0889,7.0889,7.0889,7.0889,7.0889,7.0889,7.0889,7.0889,7.0889,7.0889,7.0889,7.0889,7.0979,7.1068,7.1068,7.1487,7.2056,0.0,0.0,0.0,0.0,0.0,0.0,0.0,0.0,0.0,0.0,3.8614,3.9122,3.8461,3.8401,3.8161,3.7575,3.8063,3.8431,3.852,0.0,0.0,4.0247,4.0427,4.0726,4.1124,4.0825,4.0546,4.0277,3.978,4.0127,4.1283,4.1952,4.2591,4.321,4.3967,4.4157,4.3948,4.4277,4.4676,4.5095,4.5942,4.676,4.7418,4.7418,4.7848,4.8517,4.9187,5.0133,5.1307,5.2707,5.3605,0.0,0.0,0.0,5.5222,5.5401,5.6692,5.8175,5.8547,6.1239,6.4485,6.6505,6.7014,6.7194,6.7868,6.8511,6.9183,6.9858,7.0426,7.0799,7.0889,7.0889,7.0889,7.0889,7.0889,7.0889,7.0889,7.0889,7.0889,7.0889,7.0889,7.0859,7.0799,7.0306,7.0187,7.062,7.0247,7.0217,7.0739,7.0859,7.0889,7.0889,7.0889,7.0889,7.0889,7.0889,7.0889,7.0889,7.0889,7.0889,7.0889,7.0889,7.0889,7.0889,7.0889,7.0889,7.0889,7.0889,7.0889,7.0889,7.0889,7.1248,7.1773,7.1773,7.2176,7.2757,0.0,0.0,0.0,0.0,0.0,0.0,0.0,0.0,0.0,0.0,0.0,3.9002,3.7943,3.7853,3.7584,3.6956,3.7174,3.7623,3.8341,3.9011,3.9541,3.9819,4.0217,4.0367,4.0277,4.0367,4.0217,3.9849,3.9541,4.0088,4.1403,4.2071,4.2711,4.33,4.3599,4.3758,4.3788,4.4546,4.5035,4.5394,4.6431,4.7676,4.8843,4.8117,4.8716,4.9912,4.9841,5.0159,5.0907,5.2618,5.3156,5.3324,5.473,0.0,0.0,0.0,5.5807,5.6961,5.9175,6.1613,6.4051,6.64,6.7284,6.7732,6.8421,6.9079,6.9738,7.038,7.0709,7.0889,7.0889,7.0889,7.0889,7.0889,7.0889,7.0889,7.0889,7.0889,7.0889,7.0889,7.0889,7.0769,7.0426,7.044,7.047,7.038,7.044,7.062,7.0889,7.0889,7.0889,7.0889,7.0889,7.0889,7.0889,7.0889,7.0889,7.0889,7.0889,7.0889,7.0889,7.0889,7.0889,7.0889,7.0889,7.0889,7.0889,7.0889,7.0889,7.0949,7.1308,7.1653,7.1953,7.2325,7.2894,7.3462,0.0,0.0,0.0,0.0,0.0,0.0,0.0,0.0,0.0,0.0,0.0,3.8772,3.7755,0.0,0.0,0.0,3.6493,3.7024,3.8311,3.8871,3.9212,3.9391,3.9879,3.9909,3.9421,3.9879,3.9909,3.9391,3.9391,4.0178,4.1682,4.2171,4.289,4.3818,4.3818,4.3818,4.3878,4.5065,4.5663,4.5963,4.7627,4.9172,5.0416,5.0152,5.096,5.2115,5.1265,0.0,0.0,0.0,5.2737,5.2767,5.4413,5.473,0.0,0.0,0.0,5.5987,5.9594,6.1433,6.3003,6.5802,6.7134,6.7972,6.8794,6.9528,7.0157,7.0769,7.0889,7.0889,7.0889,7.0889,7.0889,7.0889,7.0889,7.0889,7.0889,7.0889,7.0889,7.0889,7.0889,7.0709,7.0277,7.0649,7.0709,7.0277,7.0649,7.0889,7.0889,7.0889,7.0889,7.0889,7.0889,7.0889,7.0889,7.0889,7.0889,7.0889,7.0889,7.0889,7.0889,7.0889,7.0889,7.0889,7.0889,7.0889,7.0919,7.1068,7.1158,7.1218,7.1876,7.2252,7.2491,7.2984,7.3582,7.4168,0.0,0.0,0.0,0.0,0.0,0.0,0.0,0.0,0.0,0.0,0.0,3.8431,3.835,3.7793,3.7165,3.6545,3.6493,3.7024,3.8311,3.8431,3.8751,3.9361,3.9421,0.0,3.9391,3.9421,3.9421,3.9391,3.9391,4.0397,4.2351,4.2381,4.3389,4.5185,4.5185,4.5185,4.5244,0.0,0.0,4.7429,4.9961,5.1068,5.1427,5.3892,0.0,0.0,0.0,0.0,0.0,0.0,0.0,0.0,0.0,5.467,5.5162,0.0,0.0,0.0,5.8471,5.9727,6.1058,6.4291,6.6101,6.7403,6.8704,6.9528,7.0157,7.0769,7.0889,7.0889,7.0889,7.0889,7.0889,7.0889,7.0889,7.0889,7.0889,7.0889,7.0889,7.0889,7.0889,7.0889,7.0859,7.0889,7.0889,7.0859,7.0889,7.0889,7.0889,7.0889,7.0889,7.0889,7.0889,7.0889,7.0889,7.0889,7.0889,7.0889,7.0889,7.0889,7.0889,7.0889,7.0889,7.0889,7.0889,7.0889,7.0949,7.1593,7.1863,7.1923,7.2595,7.3253,7.3791,7.3821,7.4287,7.4856,0.0,0.0,0.0,0.0,0.0,0.0,0.0,0.0,0.0,0.0,0.0,0.0,0.0,0.0,0.0,3.7105,3.7473,3.7922,3.8371,3.8811,3.9161,3.9391,3.9391,3.9391,3.9391,3.9391,3.9391,3.9391,3.9391,4.0208,4.1772,4.2201,4.3449,4.5315,4.5315,4.5544,4.5952,4.6211,0.0,0.0,5.032,5.2235,5.3922,0.0,0.0,0.0,0.0,0.0,0.0,0.0,0.0,0.0,0.0,0.0,5.464,5.5059,5.5192,5.5688,5.7859,5.8936,6.0146,6.3049,6.5383,6.7254,6.8151,6.9498,7.0649,7.0859,7.0889,7.0889,7.0889,7.0889,7.0889,7.0889,7.0889,7.0889,7.0889,7.0889,7.0889,7.0889,7.1278,7.1368,7.0949,7.1278,7.1368,7.0949,7.0889,7.0889,7.0889,7.0889,7.0889,7.0889,7.0889,7.0889,7.0889,7.0889,7.0889,7.0889,7.0889,7.0889,7.0889,7.0889,7.0889,7.0919,7.1338,7.1534,7.1547,7.1803,7.2146,7.2624,7.3283,7.3702,7.3941,7.4377,7.4676,7.4886,0.0,0.0,0.0,0.0,0.0,3.9182,3.849,3.8781,3.8901,0.0,0.0,0.0,0.0,0.0,0.0,3.7426,3.7823,3.8161,3.8401,3.8811,3.9152,3.9391,3.9391,3.952,3.9729,3.9511,3.9511,3.9729,3.9511,4.0217,4.1742,4.2201,4.3569,4.5633,4.5633,4.6262,0.0,0.0,0.0,4.9164,0.0,0.0,5.5089,0.0,0.0,0.0,0.0,0.0,0.0,0.0,0.0,0.0,0.0,0.0,0.0,0.0,5.5192,5.5521,5.7064,5.8098,5.9428,6.2106,6.438,6.6416,6.7972,6.9333,7.038,7.0829,7.0889,7.0889,7.0889,7.0889,7.0889,7.0889,7.0889,7.0889,7.0889,7.0889,7.0889,7.0889,7.1504,7.1653,7.0979,7.1517,7.1607,7.0949,7.0889,7.0889,7.0889,7.0889,7.0889,7.0889,7.0889,7.0889,7.0889,7.0889,7.0889,7.0889,7.0889,7.0889,7.0889,7.0889,7.1009,7.1248,7.1713,7.1893,7.1923,7.2402,7.2834,7.3313,7.3971,7.4257,7.4287,7.4736,7.4886,7.4886,0.0,0.0,0.0,0.0,3.9391,3.9191,3.852,3.8431,3.8431,0.0,0.0,0.0,0.0,0.0,0.0,3.7486,3.7456,3.7734,3.8401,3.8431,3.8721,3.9361,3.9391,3.972,4.0397,3.9759,3.9759,4.0397,3.9759,4.0427,4.2381,4.2381,4.3798,4.63,4.633,4.7429,4.9288,0.0,4.9613,5.0566,0.0,5.5401,5.4837,0.0,0.0,0.0,5.9308,5.9279,0.0,0.0,0.0,0.0,0.0,0.0,0.0,0.0,0.0,5.5341,0.0,0.0,0.0,6.1343,6.2959,6.4814,6.8106,6.8884,6.9273,7.059,7.0829,7.0859,7.0889,7.0889,7.0889,7.0889,7.0889,7.0889,7.0889,7.0889,7.0889,7.0889,7.1457,7.1623,7.0949,7.1474,7.1593,7.0949,7.0889,7.0889,7.0889,7.0889,7.0889,7.0889,7.0889,7.0889,7.0889,7.0889,7.0889,7.0889,7.0889,7.0919,7.0919,7.0919,7.1278,7.1923,7.1923,7.1953,7.2072,7.3343,7.3911,7.4001,7.4646,7.4886,7.4886,7.4886,7.4886,7.4886,0.0,0.0,0.0,3.9391,3.9391,3.9331,3.9152,3.9131,3.9131,0.0,0.0,0.0,0.0,0.0,0.0,3.8182,3.8563,3.8922,3.9101,3.9131,3.9212,3.9391,3.9391,3.972,4.0397,4.0217,4.0208,4.0397,4.0208,4.0666,4.1682,4.2161,4.3798,4.633,4.682,4.7878,4.9228,4.8248,0.0,0.0,5.3186,5.5521,0.0,0.0,0.0,0.0,0.0,6.3199,0.0,0.0,6.0864,5.8308,0.0,0.0,0.0,0.0,0.0,0.0,5.5431,0.0,0.0,0.0,0.0,0.0,6.4964,6.6131,6.7358,6.9153,6.9542,6.9812,7.0739,7.0889,7.0889,7.0889,7.0889,7.0889,7.0889,7.0889,7.0739,7.0306,7.0815,7.0919,7.0306,7.0799,7.1098,7.0919,7.0889,7.0889,7.0889,7.0889,7.0889,7.0889,7.0889,7.0889,7.0889,7.0889,7.0889,7.0889,7.0889,7.1158,7.1623,7.1128,7.1547,7.2624,7.2624,7.2894,7.3389,7.3732,7.4197,7.4646,7.4826,7.4886,7.4886,7.4886,7.4886,7.4886,0.0,0.0,3.8712,3.8712,3.909,3.9256,3.8815,3.9099,3.9391,0.0,0.0,0.0,0.0,0.0,0.0,0.0,3.9182,3.9391,3.9391,3.966,3.9699,3.9421,3.9939,4.0427,4.0825,4.0825,4.0945,4.1214,4.0945,4.1294,4.2183,4.2631,4.4058,4.633,4.6719,4.7788,4.9228,4.8158,0.0,0.0,5.403,0.0,0.0,6.1327,6.2869,0.0,0.0,0.0,6.2614,6.4889,6.3049,0.0,0.0,0.0,0.0,0.0,0.0,0.0,0.0,0.0,0.0,5.8278,0.0,0.0,6.4635,6.5652,6.6729,6.9273,6.9782,7.0021,7.0769,7.0889,7.0889,7.0889,7.0889,7.0889,7.0889,7.0889,7.0679,7.0067,7.053,7.0649,7.0067,7.056,7.0889,7.0889,7.0889,7.0889,7.0889,7.0889,7.0889,7.0889,7.0889,7.0889,7.0889,7.0889,7.0889,7.0889,7.1188,7.1517,7.1893,7.1487,7.2056,7.3313,7.3027,7.3432,7.4317,7.4317,7.4557,7.4886,7.4886,7.4886,7.4886,7.4886,7.4886,7.4886,0.0,0.0,3.7815,3.7901,3.87,3.9082,3.8319,3.873,3.9256,0.0,0.0,0.0,0.0,0.0,0.0,0.0,3.9541,3.9541,3.961,4.0118,4.0118,3.9541,4.0795,4.1523,4.1523,4.1583,4.1942,4.261,4.1942,4.2222,4.3419,4.3539,4.4576,4.63,4.639,4.7459,4.9168,4.8697,0.0,5.1074,5.5842,5.7363,0.0,0.0,6.272,0.0,6.3917,6.3423,6.2556,6.6475,6.5428,0.0,0.0,0.0,0.0,0.0,5.5401,0.0,0.0,0.0,0.0,0.0,0.0,0.0,6.5398,6.5951,6.646,6.9602,7.0244,7.032,7.053,7.059,7.059,7.0679,7.0739,7.0829,7.0889,7.0889,7.0679,7.0067,7.047,7.056,6.9947,7.05,7.0889,7.0799,7.0859,7.0889,7.0889,7.0889,7.0889,7.0889,7.0889,7.0889,7.0889,7.0889,7.0949,7.1009,7.1623,7.1983,7.2132,7.2042,7.2744,7.3971,7.3313,7.3732,7.4886,7.4886,7.4886,7.4886,7.4886,7.4886,7.4886,7.4886,7.4886,7.4886,3.789,3.7947,3.7968,3.8515,3.8727,3.9265,4.0508,3.8899,3.8385,4.0708,0.0,0.0,0.0,0.0,0.0,0.0,0.0,4.0427,4.0975,4.0645,4.0337,4.0208,4.1493,4.2201,4.2201,4.2671,4.325,4.3928,4.325,4.3339,4.4127,4.4676,4.5424,4.633,4.685,4.7608,4.8547,4.9452,0.0,5.3551,5.5149,0.0,6.0462,6.3483,6.5473,6.6775,6.7687,6.7777,6.7358,0.0,6.5892,6.4605,0.0,0.0,0.0,0.0,0.0,0.0,0.0,0.0,0.0,0.0,0.0,0.0,6.1912,6.257,6.3498,6.5697,6.6161,6.6654,6.8271,6.8571,6.875,6.9273,6.9812,7.0366,7.0829,7.0889,7.0679,7.0067,7.0097,6.9917,6.9243,7.0231,7.0709,7.0217,7.062,7.0889,7.0889,7.0889,7.0889,7.0889,7.0889,7.0889,7.0889,7.0889,7.1158,7.1713,7.1833,7.2461,7.3492,7.2954,7.3432,7.4676,7.4001,7.4168,7.4886,7.4886,7.4886,7.4886,7.4886,7.4886,7.4886,7.4886,7.4886,7.4886,3.7587,3.7358,3.7219,3.7907,3.7942,3.8515,4.0334,3.8841,3.8549,0.0,0.0,0.0,0.0,0.0,0.0,0.0,0.0,0.0,4.2332,4.2362,4.2212,4.1844,4.313,4.3678,4.3339,4.3978,4.4456,4.4796,4.4456,4.4625,4.5284,4.5653,4.7029,4.9213,4.8237,4.9075,5.1199,5.0518,5.1565,5.3952,5.6944,0.0,6.2855,6.5847,6.7627,6.8541,6.8884,6.9004,6.8734,6.7059,6.5622,0.0,0.0,6.2375,6.1028,0.0,5.8082,5.853,0.0,0.0,0.0,5.7094,0.0,0.0,0.0,6.2135,6.3153,6.5099,6.5757,6.6311,6.7313,6.7493,6.7732,6.8391,6.9079,6.9722,7.035,7.0709,7.0679,7.0067,7.0007,6.9858,6.9512,7.035,7.0919,7.0935,7.0919,7.0889,7.0889,7.0889,7.0889,7.0889,7.0889,7.0889,7.0889,7.0889,7.1248,7.1893,7.2235,7.2924,7.3881,7.3552,7.3941,7.4856,7.4197,7.4287,7.4886,7.4886,7.4886,7.4886,7.4886,7.4886,7.4886,7.4886,7.4886,7.4886,3.7461,3.68,3.6315,3.7085,3.716,3.7795,3.9834,3.8585,3.8533,0.0,0.0,0.0,0.0,0.0,0.0,0.0,0.0,0.0,0.0,4.4715,4.4625,4.4077,4.4995,4.5304,4.4905,4.5274,4.5603,4.5883,4.5603,4.5892,4.67,4.67,4.8375,5.1379,4.9894,5.087,5.3521,0.0,0.0,5.5102,0.0,6.1928,6.3288,6.6999,6.8435,6.8495,6.9004,6.9183,6.8974,6.7493,0.0,6.4081,6.5458,6.3901,0.0,0.0,0.0,0.0,0.0,0.0,0.0,0.0,0.0,5.9877,0.0,0.0,0.0,6.4934,6.5772,6.6296,6.6416,6.64,6.6655,6.7313,6.8076,6.8794,6.9349,7.0051,7.044,7.0217,7.0157,7.0127,7.0007,7.044,7.1098,7.2026,7.1338,7.0949,7.1098,7.0979,7.0889,7.0889,7.0889,7.0889,7.0889,7.0889,7.1248,7.1923,7.2595,7.3253,7.3881,7.4031,7.4377,7.4856,7.4317,7.4407,7.4886,7.4886,7.4886,7.4886,7.4886,7.4886,7.4886,7.4886,7.4886,7.4886,3.704,3.6306,3.5939,3.7081,3.7184,3.8082,4.0959,3.8188,3.6869,0.0,0.0,0.0,0.0,0.0,0.0,0.0,0.0,0.0,4.8629,0.0,4.6939,4.685,4.642,4.6431,4.6939,4.645,4.676,4.7948,4.676,4.682,4.8068,4.8068,4.8308,4.8846,5.1492,5.2217,5.1696,0.0,5.6795,0.0,6.1493,6.0671,0.0,6.4411,6.634,6.667,6.9034,6.9887,6.9588,0.0,6.6805,6.5997,0.0,6.4216,6.5832,0.0,0.0,0.0,0.0,0.0,0.0,0.0,5.9444,0.0,0.0,0.0,0.0,6.251,0.0,6.3692,6.4246,0.0,0.0,6.5233,6.64,6.7254,6.7343,6.8405,6.9602,7.0679,7.0799,7.059,7.0037,7.0067,7.0845,7.2638,7.1591,7.1158,7.1743,7.1218,7.0889,7.0889,7.0889,7.0889,7.0889,7.0889,7.1248,7.1923,7.2595,7.3253,7.3911,7.4527,7.4826,7.4886,7.4826,7.4826,7.4886,7.4886,7.4886,7.4886,7.4886,7.4886,7.4886,7.4886,7.4886,7.4886,3.6283,3.6497,3.6508,3.6788,3.6464,3.7403,4.1034,4.2016,4.2125,0.0,0.0,0.0,0.0,0.0,0.0,0.0,0.0,5.1223,0.0,0.0,0.0,4.8528,4.8188,4.7978,4.7878,4.7608,4.7549,4.7728,4.7549,4.7758,4.8308,4.8708,5.0115,5.2378,5.3755,5.5329,5.6931,0.0,5.7483,0.0,0.0,0.0,0.0,6.5862,6.8331,6.8571,7.0426,7.0636,6.9977,0.0,6.7792,0.0,0.0,0.0,0.0,0.0,0.0,0.0,0.0,0.0,0.0,0.0,0.0,0.0,6.0429,0.0,6.1642,0.0,0.0,0.0,0.0,0.0,0.0,0.0,6.5218,6.5966,6.637,6.7238,6.8315,6.9632,6.9812,6.9991,7.047,7.05,7.1188,7.2787,7.2026,7.1593,7.1893,7.1637,7.1308,7.0919,7.0889,7.0889,7.0889,7.0889,7.1427,7.2475,7.2757,7.3462,7.4497,7.4766,7.4886,7.4886,7.4886,7.4886,7.4886,7.4886,7.4886,7.4886,7.4886,7.4886,7.4886,7.4886,7.4886,7.4886,3.6141,3.643,3.6411,3.624,3.5958,3.6859,4.0107,4.4265,4.5956,4.3009,0.0,0.0,4.8964,5.0782,0.0,0.0,0.0,5.4593,0.0,0.0,5.2636,0.0,5.0145,0.0,0.0,4.9026,4.8427,4.8095,4.8427,4.8757,4.9105,4.9415,5.1271,5.4413,5.5162,5.7154,5.9893,0.0,5.871,5.9939,5.9444,6.0386,6.26,6.7373,6.9618,7.0336,7.1115,7.0785,7.0097,7.0636,6.8271,0.0,6.9782,0.0,0.0,0.0,0.0,0.0,6.0103,0.0,0.0,0.0,0.0,0.0,0.0,0.0,0.0,0.0,0.0,0.0,0.0,0.0,0.0,0.0,0.0,6.5114,6.5413,6.6041,6.7029,6.8525,6.9034,6.9692,7.0799,7.0739,7.1188,7.2535,7.1996,7.1713,7.1893,7.1893,7.1593,7.0919,7.0889,7.0889,7.0889,7.0889,7.1487,7.2624,7.2817,7.3522,7.4616,7.4826,7.4886,7.4886,7.4886,7.4886,7.4886,7.4886,7.4886,7.4886,7.4886,7.4886,7.4886,7.4886,7.4886,7.4886,3.7072,3.583,3.4955,3.5452,3.6016,3.6781,3.7948,4.2783,4.558,4.3465,0.0,0.0,0.0,0.0,0.0,0.0,0.0,5.9591,5.889,0.0,5.5927,0.0,0.0,0.0,0.0,5.0893,4.9535,5.0117,4.9535,4.9894,5.1086,5.0446,5.0936,5.2396,5.5025,5.6551,5.7334,5.9202,6.1852,6.4785,6.4755,6.6729,6.9468,0.0,6.8675,7.0799,7.0277,0.0,0.0,6.8556,6.8017,6.7688,6.658,0.0,0.0,0.0,0.0,0.0,0.0,0.0,0.0,6.0729,0.0,0.0,0.0,0.0,6.2241,0.0,0.0,0.0,0.0,0.0,0.0,0.0,0.0,0.0,0.0,6.465,6.5787,6.7808,6.9185,7.0217,7.0829,7.0366,7.0546,7.1833,7.1308,7.1218,7.1863,7.1893,7.1593,7.0919,7.0889,7.0889,7.0889,7.0889,7.1248,7.1953,7.2595,7.3266,7.3941,7.4587,7.4886,7.4886,7.4886,7.4886,7.4886,7.4886,7.4886,7.4886,7.4886,7.4886,7.4886,7.4886,7.4886,7.4886,3.7594,3.707,3.617,3.5583,3.6296,3.7436,3.8894,4.3136,0.0,0.0,0.0,0.0,0.0,0.0,5.8218,0.0,0.0,6.0296,5.9189,5.7859,0.0,0.0,0.0,5.2809,0.0,0.0,5.044,5.0207,5.0009,5.035,5.1206,5.1427,5.2235,5.3653,5.6273,5.856,6.0475,6.1597,0.0,0.0,0.0,6.7284,6.8736,0.0,6.9871,7.0396,7.1025,7.0965,7.059,7.0576,6.9424,6.8317,7.0021,6.8629,6.6535,6.7372,6.6864,6.5877,6.5203,6.6131,6.655,6.3468,0.0,0.0,0.0,0.0,0.0,0.0,0.0,0.0,0.0,0.0,0.0,0.0,0.0,0.0,0.0,0.0,6.4919,6.649,6.7852,6.875,6.896,6.9977,7.0769,7.1218,7.1427,7.1846,7.2535,7.2565,7.2265,7.1577,7.1547,7.1338,7.0889,7.0889,7.1457,7.2565,7.2787,7.3492,7.4557,7.4796,7.4886,7.4886,7.4886,7.4886,7.4886,7.4886,7.4886,7.4886,7.4886,7.4886,7.4886,7.4886,7.4886,7.4886,3.8903,3.8769,3.7932,3.6366,3.7534,3.9289,4.1093,4.4851,0.0,0.0,5.1781,0.0,5.5779,0.0,5.9368,0.0,6.1613,6.1569,6.0266,5.9774,0.0,5.9534,5.6795,0.0,0.0,0.0,0.0,5.2324,5.1636,5.1606,5.2264,5.2456,5.3264,5.461,5.6064,5.8726,6.2121,6.2555,6.4425,0.0,0.0,6.8451,0.0,0.0,7.038,6.9828,7.1085,7.1278,7.1009,7.1683,7.0785,6.9768,7.1876,7.0201,6.7731,6.9243,6.8449,6.7103,6.7073,6.8016,6.8315,6.5443,6.5682,0.0,6.3677,0.0,0.0,0.0,0.0,0.0,0.0,0.0,0.0,0.0,0.0,0.0,0.0,6.3632,0.0,6.5518,6.6835,6.8002,6.893,6.9558,7.026,7.1188,7.1234,7.1623,7.2505,7.2757,7.2595,7.1923,7.1893,7.1593,7.0919,7.0889,7.1577,7.2907,7.2907,7.3612,7.4886,7.4886,7.4886,7.4886,7.4886,7.4886,7.4886,7.4886,7.4886,7.4886,7.4886,7.4886,7.4886,7.4886,7.4886,7.4886,4.0949,4.0738,3.9993,3.7858,3.9664,4.21,4.4162,0.0,5.0112,0.0,5.3996,5.6199,5.6175,5.8601,6.0759,6.2061,6.3318,0.0,6.2331,6.2151,0.0,0.0,6.0266,6.0086,6.2106,0.0,0.0,0.0,5.4186,5.3545,5.4179,5.3545,5.3935,5.5162,5.4538,5.7184,6.2091,6.2121,6.4844,6.9153,6.9798,7.0366,7.0829,7.0889,7.0111,6.9183,7.044,7.0889,7.1009,7.1653,7.1863,7.1863,7.1863,7.1863,7.1743,7.1098,7.0889,7.0649,6.9423,6.9093,6.8615,6.664,6.6161,6.5966,6.5263,0.0,6.5667,0.0,0.0,0.0,0.0,0.0,0.0,0.0,0.0,0.0,0.0,0.0,0.0,0.0,6.6161,6.7956,0.0,0.0,6.9095,7.1534,7.0666,7.0606,7.1893,7.2535,7.2595,7.2013,7.1983,7.1637,7.0949,7.0919,7.1577,7.2907,7.2907,7.3612,7.4886,7.4886,7.4886,7.4886,7.4886,7.4886,7.4886,7.4886,7.4886,7.4886,7.4886,7.4886,7.4886,7.4886,7.4886,7.4886,4.2438,4.2138,4.1744,4.1535,4.142,4.2286,0.0,0.0,0.0,0.0,5.4262,5.704,5.9491,6.1295,6.2644,6.3438,6.4261,0.0,0.0,0.0,0.0,6.4201,6.1433,6.0789,6.2794,5.8933,0.0,5.6868,0.0,5.3545,5.4209,5.4012,5.4401,5.5192,5.5029,5.7603,6.2121,6.2644,6.5787,7.044,7.059,7.0201,6.9602,7.053,7.0111,6.9183,7.044,7.0889,7.0919,7.1098,7.1158,7.1158,7.1158,7.1158,7.1128,7.0949,7.0889,7.0829,7.05,7.041,7.0051,6.8585,6.8226,6.7926,6.6759,6.649,6.6909,0.0,0.0,0.0,0.0,0.0,0.0,0.0,0.0,0.0,0.0,0.0,0.0,6.4171,0.0,0.0,0.0,6.86,6.9349,6.9035,7.0037,7.1248,7.2565,7.2325,7.2535,7.3343,7.2894,7.2325,7.1653,7.1158,7.1577,7.2907,7.2907,7.3612,7.4886,7.4886,7.4886,7.4886,7.4886,7.4886,7.4886,7.4886,7.4886,7.4886,7.4886,7.4886,7.4886,7.4886,7.4886,7.4886,4.3662,0.0,0.0,4.4911,0.0,0.0,4.7878,4.9214,0.0,5.383,5.6059,0.0,6.0436,6.1866,6.3033,6.3917,6.4366,0.0,6.456,0.0,0.0,6.4964,6.4066,6.3931,6.4799,6.1702,0.0,5.886,0.0,5.5089,5.464,5.464,5.485,5.5222,5.5521,5.7706,6.1417,6.4096,6.7104,7.0111,7.0679,7.047,0.0,7.062,7.047,6.9931,7.0649,7.0889,7.0889,7.0889,7.0889,7.0889,7.0889,7.0889,7.0889,7.0889,7.0889,7.0889,7.0889,7.0889,7.0739,7.0021,6.9842,6.9572,6.8541,6.8092,6.8256,6.9572,6.884,6.8391,0.0,0.0,0.0,0.0,0.0,0.0,0.0,0.0,0.0,0.0,0.0,0.0,0.0,6.8315,6.9858,6.8541,6.9961,7.1368,7.2415,7.2385,7.2804,7.3851,7.3253,7.2595,7.1923,7.1534,7.1846,7.2907,7.3206,7.3881,7.4886,7.4886,7.4886,7.4886,7.4886,7.4886,7.4886,7.4886,7.4886,7.4886,7.4886,7.4886,7.4886,7.4886,7.4886,7.4886,4.456,0.0,0.0,0.0,0.0,0.0,0.0,5.3136,0.0,5.6954,0.0,5.9608,6.028,6.1567,6.2869,6.4156,0.0,6.4515,6.4515,6.6161,6.652,6.5174,6.6969,6.7643,6.6894,6.5084,0.0,0.0,0.0,5.7111,5.5192,5.5192,5.5192,5.5222,5.5803,5.7719,6.0819,6.5847,6.8481,6.9363,7.044,7.0889,7.0889,7.0889,7.0889,7.0889,7.0889,7.0889,7.0889,7.0889,7.0889,7.0889,7.0889,7.0889,7.0889,7.0889,7.0889,7.0889,7.0889,7.0889,7.0889,7.0889,7.0889,7.0769,7.0247,6.9678,6.9602,7.0769,6.9678,6.9528,7.2894,0.0,0.0,0.0,0.0,0.0,0.0,0.0,0.0,0.0,0.0,0.0,0.0,6.7837,6.9901,6.8704,6.9871,7.1009,7.1863,7.2385,7.3073,7.4001,7.3313,7.2624,7.2042,7.1953,7.2235,7.2907,7.3582,7.4257,7.4886,7.4886,7.4886,7.4886,7.4886,7.4886,7.4886,7.4886,7.4886,7.4886,7.4886,7.4886,7.4886,7.4886,7.4886,7.4886,4.4948,0.0,0.0,0.0,0.0,5.4402,5.4946,5.5885,5.6843,5.7649,5.9512,6.1,6.1687,6.2899,6.4186,6.5533,6.6655,0.0,0.0,0.0,0.0,6.5877,6.7224,6.7433,6.6191,6.5278,6.3603,0.0,0.0,5.7111,5.5192,5.5192,5.5192,5.5222,5.5311,5.8065,6.2808,6.6461,6.899,7.059,7.0799,7.0889,7.0889,7.0889,7.0889,7.0889,7.0889,7.0889,7.0889,7.0889,7.0889,7.0889,7.0889,7.0889,7.0889,7.0889,7.0889,7.0889,7.0889,7.0889,7.0889,7.0889,7.0889,7.0889,7.0769,7.0649,7.0799,7.1547,7.1444,7.1264,7.1398,0.0,0.0,0.0,0.0,0.0,0.0,0.0,0.0,0.0,0.0,0.0,0.0,6.5937,6.7358,6.6565,6.8286,7.0081,7.1803,7.1487,7.2325,7.4646,7.3552,7.2847,7.2744,7.2176,7.2235,7.2907,7.3582,7.4257,7.4886,7.4886,7.4886,7.4886,7.4886,7.4886,7.4886,7.4886,7.4886,7.4886,7.4886,7.4886,7.4886,7.4886,7.4886,7.4886,0.0,0.0,0.0,0.0,0.0,0.0,5.731,5.9288,6.0421,5.9657,6.0756,6.1882,6.2555,6.3767,6.477,6.5428,6.6056,6.6729,6.7433,6.7808,6.7703,6.7074,6.8331,0.0,6.7074,6.7059,6.5278,6.1613,0.0,5.8471,5.5192,5.5192,5.5192,5.5281,5.6987,5.9532,6.2824,6.6461,6.875,6.9961,7.0649,7.0889,7.0889,7.0889,7.0889,7.0889,7.0889,7.0889,7.0889,7.0889,7.0889,7.0889,7.0889,7.0889,7.0889,7.0889,7.0889,7.0889,7.0889,7.1158,7.1414,7.1414,7.1667,7.1936,7.1936,7.1667,7.1517,7.1833,7.1607,7.1188,7.0546,6.9379,0.0,0.0,0.0,0.0,0.0,0.0,0.0,0.0,0.0,0.0,0.0,0.0,6.5926,6.6489,6.8046,6.9991,7.2295,7.1787,7.2491,7.4826,7.3612,7.3057,7.3432,7.2744,7.2744,7.3432,7.4108,7.4587,7.4886,7.4886,7.4886,7.4886,7.4886,7.4886,7.4886,7.4886,7.4886,7.4886,7.4886,7.4886,7.4886,7.4886,7.4886,7.4886,0.0,5.0115,0.0,0.0,5.638,5.836,5.9437,6.2218,6.3603,6.1928,6.2301,6.2929,6.3452,6.4545,6.5263,6.5428,6.5547,6.6101,6.7134,6.7852,6.8107,6.7808,6.9199,6.9379,6.8017,6.881,6.7148,0.0,0.0,6.0027,5.603,5.5461,5.5491,5.6137,5.9009,6.1387,6.3348,6.661,6.8541,6.9482,7.05,7.0889,7.0889,7.0889,7.0889,7.0889,7.0889,7.0889,7.0889,7.0889,7.0889,7.0889,7.0889,7.0889,7.0919,7.1068,7.1098,7.1128,7.1308,7.1697,7.2132,7.2132,7.2505,7.2907,7.2907,7.2505,7.2132,7.2132,7.1697,7.1009,6.9977,6.9498,6.9199,0.0,0.0,0.0,0.0,0.0,0.0,0.0,0.0,0.0,0.0,0.0,6.4544,6.6725,6.7739,6.9429,7.2113,7.2026,7.2611,7.4197,7.3373,7.3103,7.3462,7.3223,7.3373,7.3911,7.4587,7.4886,7.4886,7.4886,7.4886,7.4886,7.4886,7.4886,7.4886,7.4886,7.4886,7.4886,7.4886,7.4886,7.4886,7.4886,7.4886,7.4886,5.2242,0.0,0.0,0.0,0.0,6.1668,6.1787,6.359,6.4605,6.3827,6.4321,6.4755,6.4815,6.5458,6.6161,6.6759,6.7373,6.7762,6.7898,6.8541,6.8345,6.7164,6.896,6.9379,6.8017,6.9259,6.8511,0.0,0.0,6.0954,5.868,5.6316,5.6466,5.88,6.0312,6.3079,6.6625,6.7583,6.9049,7.0739,7.0859,7.0889,7.0889,7.0889,7.0889,7.0889,7.0889,7.0889,7.0889,7.0889,7.0889,7.0889,7.0889,7.0889,7.1009,7.1623,7.1803,7.1953,7.2565,7.2757,7.2817,7.2817,7.2847,7.2907,7.2907,7.2847,7.2817,7.2817,7.2757,7.195,6.9542,7.1427,7.2385,0.0,0.0,0.0,0.0,0.0,0.0,0.0,0.0,0.0,0.0,6.4015,6.2434,6.6176,6.6014,6.7042,7.0014,7.1278,7.1983,7.2162,7.2654,7.2654,7.2102,7.324,7.3821,7.3911,7.4587,7.4886,7.4886,7.4886,7.4886,7.4886,7.4886,7.4886,7.4886,7.4886,7.4886,7.4886,7.4886,7.4886,7.4886,7.4886,7.4886,7.4886,5.5523,5.5465,5.6322,5.9984,6.0674,6.1438,6.3516,6.4829,6.5488,6.5233,6.5428,6.5757,6.6161,6.643,6.67,6.6984,6.7254,6.7403,6.7403,6.8405,6.8585,6.7643,6.9498,7.0127,6.9229,7.0097,6.9243,0.0,0.0,6.2032,5.9681,5.8634,5.9352,6.1597,6.3707,6.5503,6.7134,6.8944,7.0201,7.0889,7.0889,7.0889,7.0889,7.0889,7.0889,7.0949,7.1354,7.1487,7.1547,7.195,7.1846,7.1487,7.1487,7.1787,7.2129,7.2415,7.2505,7.2565,7.2817,7.3176,7.3492,7.3492,7.3791,7.4108,7.4108,7.3791,7.3492,7.3492,7.2864,7.2086,7.1441,7.1128,7.1038,7.1308,0.0,0.0,0.0,0.0,0.0,0.0,0.0,0.0,0.0,0.0,6.3949,6.6174,6.4698,6.5048,6.8223,7.0235,7.1308,7.1308,7.3103,7.3582,7.2505,7.3838,7.4497,7.4497,7.4766,7.4886,7.4886,7.4886,7.4886,7.4886,7.4886,7.4886,7.4886,7.4886,7.4886,7.4886,7.4886,7.4886,7.4886,7.4886,7.4886,7.4886,5.8767,5.8075,5.8536,6.2909,6.2514,6.2453,6.492,6.5847,6.6295,6.6295,6.646,6.67,6.6969,6.7014,6.7014,6.7014,6.7194,6.7284,6.7284,6.8345,6.8794,6.8301,6.9798,0.0,7.0007,7.059,6.9991,6.8136,6.5951,6.3947,6.2106,6.1537,6.2315,6.435,6.6386,6.7613,6.8256,7.0111,7.0889,7.0889,7.0889,7.1009,7.1188,7.1188,7.1308,7.1547,7.2026,7.2176,7.2265,7.2727,7.2714,7.2461,7.2252,7.2535,7.2937,7.3146,7.3176,7.3253,7.3432,7.3821,7.418,7.418,7.4557,7.4886,7.4886,7.4527,7.4138,7.3941,7.315,7.2505,7.2595,7.1248,7.056,7.1846,7.1368,0.0,0.0,0.0,0.0,0.0,0.0,0.0,7.0822,6.644,6.451,6.6746,6.5061,6.4932,6.7251,0.0,0.0,7.1487,7.3719,7.4347,7.3223,7.451,7.5095,7.4886,7.4886,7.4886,7.4886,7.4886,7.4886,7.4886,7.4886,7.4886,7.4886,7.4886,7.4886,7.4886,7.4886,7.4886,7.4886,7.4886,7.4886,7.4886,6.1764,6.2541,6.3409,6.4755,6.5503,6.5951,6.5966,6.655,6.6984,6.6984,6.7553,6.7748,6.7074,6.7014,6.7014,6.7014,6.7628,6.7987,6.7987,6.863,6.9004,0.0,0.0,7.0007,7.0007,7.059,7.0889,7.0859,0.0,6.6954,6.6864,6.4874,6.5039,6.6984,6.7688,6.9049,7.0859,7.0889,7.0889,7.0889,7.0889,7.1308,7.1893,7.1893,7.2295,7.2877,7.2877,7.2877,7.2877,7.2907,7.3326,7.3762,7.3086,7.2877,7.3027,7.3702,7.3881,7.4031,7.4706,7.4886,7.4886,7.4886,7.4886,7.4886,7.4886,7.4886,7.4706,7.4031,7.3881,7.3462,7.2162,7.2445,7.2219,7.0336,7.1637,0.0,0.0,0.0,0.0,0.0,0.0,6.2788,6.7959,6.3901,6.3016,6.8005,0.0,0.0,0.0,0.0,0.0,7.2847,7.4197,0.0,7.3881,7.5228,7.5557,7.4886,7.4886,7.4886,7.4886,7.4886,7.4886,7.4886,7.4886,7.4886,7.4886,7.4886,7.4886,7.4886,7.4886,7.4886,7.4886,7.4886,7.4886,7.4886,6.3902,6.4261,6.468,6.5518,6.5847,6.6161,6.661,6.7254,6.7673,6.7673,6.8271,6.8585,6.8375,6.8345,6.8345,6.8345,6.8555,6.869,6.869,6.9319,6.9678,6.9678,7.026,7.062,7.062,7.0799,7.0889,7.0889,6.875,6.7673,6.7688,6.7014,6.7792,6.9662,6.9871,7.032,7.0889,7.0889,7.0889,7.0949,7.1398,7.1713,7.1953,7.2415,7.2698,7.2967,7.3432,7.3582,7.3642,7.4091,7.4407,7.4557,7.4317,7.4257,7.4317,7.4527,7.4587,7.4616,7.4826,7.4886,7.4886,7.4886,7.4886,7.4886,7.4886,7.4886,7.4826,7.4616,7.4227,7.3642,7.2744,7.2385,7.2013,7.1414,7.1816,7.2235,7.2265,0.0,0.0,0.0,6.8516,6.8119,7.1154,6.7654,6.5536,6.636,6.657,0.0,0.0,0.0,0.0,0.0,7.442,7.5048,7.3911,7.5228,7.5557,7.4886,7.4886,7.4886,7.4886,7.4886,7.4886,7.4886,7.4886,7.4886,7.4886,7.4886,7.4886,7.4886,7.4886,7.4886,7.4886,7.4886,7.4886,7.4886,6.5233,6.5398,6.5577,6.6251,6.637,6.661,6.7284,6.7748,6.8107,6.8331,6.896,6.9379,6.9379,6.9572,6.9512,6.9034,6.9213,6.9379,6.9379,6.9977,7.0336,7.0336,7.0709,7.0889,7.0889,7.0889,7.0889,7.0889,6.9678,6.9079,6.9079,6.9079,6.9738,7.0889,7.0889,7.0889,7.0889,7.0889,7.0889,7.0949,7.1623,7.2072,7.2355,7.3013,7.3432,7.3702,7.4138,7.4287,7.4347,7.4766,7.4886,7.4886,7.4886,7.4886,7.4886,7.4886,7.4886,7.4886,7.4886,7.4886,7.4886,7.4886,7.4886,7.4886,7.4886,7.4886,7.4886,7.4886,7.4557,7.4061,7.3402,7.2924,7.2581,7.2325,7.2265,7.2153,7.1833,0.0,6.9911,0.0,0.0,6.8194,7.0952,6.8608,6.7407,6.8564,6.8493,6.8924,0.0,0.0,7.2535,7.3373,7.5018,7.5497,7.4659,7.5497,7.5557,7.4886,7.4886,7.4886,7.4886,7.4886,7.4886,7.4886,7.4886,7.4886,7.4886,7.4886,7.4886,7.4886,7.4886,7.4886,7.4886,7.4886,7.4886,7.4886,6.5936,6.6116,6.634,6.6954,6.7104,6.7343,6.7972,6.8107,6.8361,6.8974,6.9648,7.0067,7.0067,7.056,7.044,6.9243,6.9692,7.0067,7.0067,7.059,7.0889,7.0889,7.0889,7.0889,7.0889,7.0889,7.0889,7.0889,7.0889,7.0889,7.0889,7.0889,7.0889,7.0889,7.0889,7.0889,7.0889,7.0889,7.0889,7.0949,7.1683,7.2325,7.2967,7.3702,7.4377,7.4886,7.4886,7.4886,7.4886,7.4886,7.4886,7.4886,7.4886,7.4886,7.4886,7.4886,7.4886,7.4886,7.4886,7.4886,7.4886,7.4886,7.4886,7.4886,7.4886,7.4886,7.4886,7.4886,7.4886,7.4706,7.4001,7.3881,7.3702,7.3057,7.2967,7.2319,7.0512,6.864,6.7103,6.6107,6.4156,6.4419,6.8387,6.7429,6.8531,7.3295,7.2602,7.2712,7.4479,7.2335,7.2535,7.5796,7.5856,7.5856,7.5916,7.5856,7.5527,7.4886,7.4886,7.4886,7.4886,7.4886,7.4886,7.4886,7.4886,7.4886,7.4886,7.4886,7.4886,7.4886,7.4886,7.4886,7.4886,7.4886,7.4886,7.4886,6.664,6.7194,6.7583,6.7748,6.8181,6.8585,6.8734,6.9199,6.9588,6.9738,7.029,7.0679,7.0679,7.0799,7.0769,7.047,7.059,7.0679,7.0679,7.0829,7.0889,7.0889,7.0889,7.0889,7.0889,7.0889,7.0889,7.0889,7.0889,7.0889,7.0889,7.0889,7.0889,7.0889,7.0889,7.0889,7.0889,7.0889,7.0889,7.1009,7.2206,7.2757,7.3027,7.4227,7.4766,7.4886,7.4886,7.4886,7.4886,7.4886,7.4886,7.4886,7.4886,7.4886,7.4886,7.4886,7.4886,7.4886,7.4886,7.4886,7.4886,7.4886,7.4886,7.4886,7.4886,7.4886,7.4886,7.4886,7.4886,7.4706,7.4001,7.3881,7.3851,7.3702,7.3672,7.3669,7.3689,7.2891,7.2174,7.1931,6.8766,6.8207,7.2192,6.9999,6.9079,7.0947,7.2059,7.2267,7.1364,7.2027,7.3475,7.5826,7.5395,7.5395,7.5916,7.5395,7.5065,7.4886,7.4886,7.4886,7.4886,7.4886,7.4886,7.4886,7.4886,7.4886,7.4886,7.4886,7.4886,7.4886,7.4886,7.4886,7.4886,7.4886,7.4886,7.4886,6.7313,6.7748,6.8107,6.8391,6.878,6.9093,6.9393,6.9768,7.0097,7.0396,7.0709,7.0889,7.0889,7.0889,7.0889,7.0889,7.0889,7.0889,7.0889,7.0889,7.0889,7.0889,7.0889,7.0889,7.0889,7.0889,7.0889,7.0889,7.0889,7.0889,7.0889,7.0889,7.0889,7.0889,7.0889,7.0889,7.0889,7.0889,7.0889,7.1009,7.2368,7.2907,7.3057,7.4377,7.4886,7.4886,7.4886,7.4886,7.4886,7.4886,7.4886,7.4886,7.4886,7.4886,7.4886,7.4886,7.4886,7.4886,7.4886,7.4886,7.4886,7.4886,7.4886,7.4886,7.4886,7.4886,7.4886,7.4886,7.4172,7.3432,7.3062,7.3003,7.2677,7.1768,7.2397,7.2777,7.2249,7.1846,7.1963,7.2869,7.0793,7.0128,7.2359,7.0062,6.8935,7.0059,7.0724,7.1307,7.186,7.3091,7.43,7.5407,7.5095,7.5065,7.5437,7.5065,7.4886,7.4886,7.4886,7.4886,7.4886,7.4886,7.4886,7.4886,7.4886,7.4886,7.4886,7.4886,7.4886,7.4886,7.4886,7.4886,7.4886,7.4886,7.4886,7.4886,6.8002,6.8227,6.8481,6.9034,6.9243,6.9482,7.0037,7.0127,7.0336,7.0829,7.0889,7.0889,7.0889,7.0889,7.0889,7.0889,7.0889,7.0889,7.0889,7.0889,7.0889,7.0889,7.0889,7.0889,7.0889,7.0889,7.0889,7.0889,7.0889,7.0889,7.0889,7.0889,7.0889,7.0889,7.0889,7.0889,7.0889,7.0889,7.0949,7.1158,7.2398,7.2967,7.3193,7.4437,7.4886,7.4886,7.4886,7.4886,7.4852,7.4547,7.4633,7.4852,7.453,7.465,7.4886,7.4886,7.4697,7.4512,7.4817,7.4886,7.4834,7.4512,7.4461,7.4374,7.4068,7.3998,7.3998,7.3998,7.2645,7.155,7.1838,7.1891,7.1322,6.9523,7.072,7.1167,6.9076,6.9095,6.9848,7.1172,7.109,7.0894,7.0878,6.9265,6.876,7.0121,6.9858,7.0791,7.3439,7.4433,7.4886,7.4886,7.4886,7.4886,7.4886,7.4886,7.4886,7.4886,7.4886,7.4886,7.4886,7.4886,7.4886,7.4886,7.4886,7.4886,7.4886,7.4886,7.4946,7.5035,7.4946,7.4946,7.5035,7.4946,7.4886,7.4886,6.8704,6.9319,6.9708,6.9828,7.026,7.0649,7.0739,7.0769,7.0799,7.0889,7.0889,7.0889,7.0889,7.0889,7.0889,7.0889,7.0889,7.0889,7.0889,7.0889,7.0889,7.0889,7.0889,7.0889,7.0889,7.0889,7.0889,7.0889,7.0889,7.0889,7.0889,7.0889,7.0889,7.0889,7.0889,7.0889,7.0889,7.0889,7.1218,7.1816,7.2595,7.3253,7.3821,7.4616,7.4886,7.4886,7.4886,7.4886,7.4633,7.2946,7.3486,7.4598,7.2893,7.3521,7.4886,7.4886,7.3707,7.2752,7.4443,7.4886,7.4495,7.2805,7.2367,7.1909,7.0208,6.982,6.982,6.982,6.9579,6.9876,7.1604,7.1891,7.1629,7.0797,7.1367,7.1024,6.8485,7.0054,7.0724,6.8826,6.9951,7.0721,7.029,6.9835,6.993,7.0715,7.2232,7.288,7.2247,7.3922,7.4886,7.4886,7.4886,7.4886,7.4886,7.4886,7.4886,7.4886,7.4886,7.4886,7.4886,7.4886,7.4886,7.4886,7.4886,7.4886,7.4886,7.4886,7.5245,7.5677,7.5125,7.5245,7.5677,7.5095,7.4886,7.4886,6.9409,6.9798,7.0097,7.0426,7.0709,7.0889,7.0889,7.0889,7.0889,7.0889,7.0889,7.0889,7.0889,7.0889,7.0889,7.0889,7.0889,7.0889,7.0889,7.0889,7.0889,7.0889,7.0889,7.0889,7.0889,7.0889,7.0889,7.0889,7.0889,7.0889,7.0889,7.0889,7.0889,7.0919,7.1278,7.1427,7.1457,7.1816,7.2176,7.2505,7.3163,7.3612,7.3971,7.4646,7.4676,7.4407,7.4766,7.3981,7.2823,7.3333,7.3416,7.331,7.3468,7.4154,7.4697,7.362,7.2616,7.1856,7.1694,7.1668,7.1441,7.0502,7.0282,6.9958,6.8716,6.8428,6.8428,6.8428,6.7546,6.7072,6.8008,6.8176,6.7738,6.6352,6.7063,6.7429,6.6507,6.8041,6.934,6.9606,7.0057,6.9992,6.9045,6.7901,6.7654,6.8708,7.0306,7.1708,7.2916,7.4183,7.5065,7.5425,7.5095,7.5065,7.5455,7.5065,7.4886,7.4886,7.4886,7.4886,7.4886,7.4886,7.4886,7.4886,7.4886,7.4886,7.4916,7.5305,7.5617,7.5916,7.5916,7.6108,7.6347,7.6036,7.5916,7.5916,7.0097,7.0217,7.0366,7.0829,7.0889,7.0889,7.0889,7.0889,7.0889,7.0889,7.0889,7.0889,7.0889,7.0889,7.0889,7.0889,7.0889,7.0889,7.0889,7.0889,7.0889,7.0889,7.0889,7.0889,7.0889,7.0889,7.0889,7.0889,7.0889,7.0889,7.0889,7.0889,7.0979,7.1158,7.1683,7.1983,7.2192,7.2684,7.2997,7.3193,7.3702,7.3971,7.4146,7.4183,7.3892,7.3438,7.3496,7.2184,7.0675,7.2247,7.21,7.1405,7.2456,7.3134,7.3205,7.1658,7.0868,7.0235,6.9187,6.8888,6.8747,6.8157,6.797,6.772,6.666,6.6431,6.6431,6.6431,6.5184,6.4272,6.473,6.4807,6.4278,6.2601,6.3383,6.4191,6.4116,6.5519,6.712,6.8721,6.9217,6.8994,6.7884,6.675,6.6389,6.7166,6.8991,7.0863,7.2641,7.4273,7.5497,7.6335,7.5574,7.5455,7.6108,7.5455,7.5215,7.5335,7.5215,7.5125,7.5125,7.4976,7.4886,7.4886,7.4886,7.4886,7.4946,7.5766,7.6108,7.6168,7.6946,7.7275,7.7275,7.7275,7.7275,7.7245,7.0709,7.0829,7.0859,7.0889,7.0889,7.0889,7.0889,7.0889,7.0889,7.0889,7.0889,7.0889,7.0889,7.0889,7.0889,7.0889,7.0889,7.0889,7.0889,7.0889,7.0889,7.0889,7.0889,7.0889,7.0889,7.0889,7.0889,7.0889,7.0889,7.0889,7.0889,7.0889,7.1218,7.1833,7.1893,7.2235,7.2817,7.2877,7.3266,7.3821,7.3881,7.4287,7.4625,7.2811,7.2078,7.1816,7.0005,6.9216,6.8776,6.7034,6.7656,6.8812,6.7041,6.7808,6.93,6.915,6.777,6.6635,6.8416,6.8888,6.8317,6.5891,6.5303,6.4668,6.2267,6.1711,6.1711,6.1711,6.1573,6.2061,6.392,6.4257,6.4061,6.3393,6.3785,6.356,6.1726,6.359,6.452,6.2865,6.5861,6.7801,6.7138,6.8568,6.9045,6.7912,7.1387,7.2269,6.9421,7.3442,7.6395,7.7604,7.6485,7.6108,7.6719,7.6108,7.6125,7.6647,7.6078,7.5826,7.5796,7.5185,7.4886,7.4886,7.4886,7.4886,7.5006,7.6228,7.6719,7.6856,7.816,7.8639,7.8639,7.8639,7.8639,7.8549,7.0859,7.0889,7.0889,7.0889,7.0889,7.0889,7.0889,7.0889,7.0889,7.0889,7.0889,7.0889,7.0889,7.0889,7.0889,7.0889,7.0889,7.0889,7.0889,7.0889,7.0889,7.0889,7.0889,7.0889,7.0889,7.0889,7.0889,7.0889,7.0889,7.0889,7.0919,7.1338,7.1653,7.1953,7.2791,7.3283,7.3552,7.3941,7.4287,7.4424,7.3167,7.2812,7.2823,7.0823,6.9771,6.9545,7.0434,6.89,6.6749,6.8853,6.8427,6.7061,6.756,6.8246,6.8643,6.7349,6.5536,6.4123,6.489,6.4867,6.4319,6.297,6.2645,6.2275,6.0941,6.0638,6.0638,6.0638,6.0638,6.0894,6.1638,6.1774,6.1697,6.1512,6.1665,6.1655,6.1254,6.3033,6.4256,6.3908,6.5146,6.6094,6.6247,6.5795,6.5805,6.6558,6.9551,7.1355,7.1326,7.4996,7.7322,7.7783,7.7322,7.7185,7.7424,7.6766,7.6377,7.6228,7.5988,7.5916,7.5886,7.5647,7.5707,7.6096,7.6096,7.5886,7.5587,7.6437,7.7065,7.7514,7.843,7.9316,8.0045,8.0045,8.0045,8.0016,7.0889,7.0889,7.0889,7.0889,7.0889,7.0889,7.0889,7.0889,7.0889,7.0889,7.0889,7.0889,7.0889,7.0889,7.0889,7.0889,7.0889,7.0889,7.0889,7.0889,7.0889,7.0889,7.0889,7.0889,7.0889,7.0889,7.0889,7.0889,7.1098,7.1218,7.1218,7.1906,7.2342,7.2581,7.3492,7.4018,7.4206,7.4028,7.3951,7.3777,7.1766,7.0959,7.074,6.8699,6.7631,6.738,6.86,6.6983,6.4737,6.7968,6.7168,6.5128,6.6526,6.6991,6.6728,6.5495,6.4163,6.3003,6.2651,6.2275,6.1868,6.1336,6.1059,6.0763,6.0166,6.0041,6.0041,6.0041,6.0166,6.0292,6.0292,6.0442,6.0588,6.0588,6.0588,6.0788,6.1366,6.2554,6.361,6.424,6.4279,6.4645,6.5699,6.4732,6.4876,6.6903,6.9517,7.2008,7.4249,7.6569,7.7921,7.81,7.81,7.81,7.81,7.7454,7.7006,7.6814,7.6604,7.6514,7.6485,7.6288,7.6407,7.6779,7.6779,7.6587,7.6258,7.7065,7.7574,7.7933,7.9238,8.0184,8.0853,8.1272,8.1441,8.1411,7.0889,7.0889,7.0889,7.0889,7.0889,7.0889,7.0889,7.0889,7.0889,7.0889,7.0889,7.0889,7.0889,7.0889,7.0889,7.0889,7.0889,7.0889,7.0889,7.0889,7.0889,7.0889,7.0889,7.0889,7.0889,7.0889,7.0889,7.0889,7.1577,7.1893,7.1923,7.2595,7.3266,7.3881,7.3928,7.427,7.4749,7.2752,7.1891,7.1694,6.9691,6.8869,6.8643,6.6585,6.5785,6.5536,6.3524,6.2802,6.2802,6.2822,6.2802,6.2802,6.2827,6.2827,6.2927,6.3525,6.3701,6.345,6.232,6.2019,6.1868,6.1316,6.0738,6.0141,5.9633,5.9508,5.9508,5.9508,5.9935,6.0317,6.0317,6.0788,6.121,6.121,6.121,6.1411,6.1943,6.1994,6.2199,6.2752,6.2802,6.3584,6.5569,6.6332,6.751,6.9591,7.2169,7.4893,7.7664,7.7813,7.81,7.8777,7.8807,7.8807,7.8807,7.813,7.813,7.8759,7.813,7.7801,7.7801,7.7125,7.6808,7.6826,7.6826,7.6808,7.6898,7.825,7.84,7.8071,8.0752,8.1381,8.0973,8.2297,8.2806,8.2687,7.0889,7.0889,7.0889,7.0889,7.0889,7.0889,7.0889,7.0889,7.0889,7.0889,7.0889,7.0889,7.0889,7.0889,7.0889,7.0889,7.0889,7.0889,7.0889,7.0889,7.0889,7.0889,7.0889,7.0889,7.0889,7.0889,7.0889,7.0889,7.1577,7.1893,7.1923,7.3073,7.3702,7.3911,7.4377,7.3942,7.277,7.2142,7.1068,6.9616,6.756,6.6713,6.648,6.4478,6.3706,6.3801,6.4591,6.4002,6.3026,6.4438,6.3982,6.2877,6.3299,6.3425,6.3525,6.4099,6.4249,6.4099,6.3375,6.2877,6.2149,6.0437,5.9859,5.9809,5.9991,6.0041,6.0166,6.0607,6.0833,6.0914,6.0914,6.1085,6.121,6.121,6.1537,6.1818,6.1994,6.2325,6.2626,6.2802,6.2802,6.3021,6.3645,6.4236,6.4853,6.5471,6.9689,7.4049,7.8298,7.8489,7.8579,7.8807,7.8807,7.8807,7.8807,7.8579,7.837,7.81,7.7921,7.7801,7.7801,7.7574,7.7753,7.819,7.819,7.7951,7.7544,7.7933,7.825,7.8579,7.9357,8.0453,8.156,8.1949,8.2417,8.2687,7.0889,7.0889,7.0889,7.0889,7.0889,7.0889,7.0889,7.0889,7.0889,7.0889,7.0889,7.0889,7.0889,7.0889,7.0889,7.0889,7.0889,7.0889,7.0889,7.0889,7.0889,7.0889,7.0889,7.0889,7.0889,7.0889,7.1038,7.1308,7.1966,7.2415,7.2731,7.3778,7.3865,7.313,7.353,7.261,7.0649,6.9829,6.8785,6.7483,6.5437,6.4591,6.4497,6.3265,6.2802,6.2965,6.4177,6.3821,6.3006,6.4197,6.3954,6.3203,6.3576,6.3847,6.4124,6.4651,6.4651,6.4446,6.4099,6.3425,6.2425,6.0889,6.0337,6.0261,6.0588,6.0663,6.0763,6.1115,6.1386,6.1517,6.1517,6.1692,6.1843,6.1843,6.2099,6.2325,6.2325,6.2601,6.2802,6.2802,6.2802,6.2902,6.3128,6.3676,6.4548,6.5821,7.0431,7.445,7.7365,7.8343,7.8807,7.8807,7.8807,7.8807,7.8807,7.8807,7.8579,7.819,7.819,7.819,7.819,7.819,7.84,7.8807,7.8807,7.8579,7.819,7.819,7.8579,7.9238,7.9477,8.0513,8.183,8.2099,8.2447,8.2687,7.0889,7.0889,7.0889,7.0889,7.0889,7.0889,7.0889,7.0889,7.0889,7.0889,7.0889,7.0889,7.0889,7.0889,7.0889,7.0889,7.0889,7.0889,7.0889,7.0889,7.0889,7.0889,7.0889,7.0919,7.0979,7.0979,7.1278,7.1893,7.2624,7.3313,7.3911,7.4386,7.3655,7.1891,7.1712,7.0502,6.8492,6.6597,6.5687,6.5378,6.3544,6.2802,6.2802,6.2802,6.2802,6.2802,6.2802,6.2802,6.2827,6.2877,6.3299,6.3776,6.3827,6.4174,6.4676,6.5229,6.5028,6.4601,6.4547,6.3726,6.2802,6.222,6.1692,6.1336,6.1285,6.1285,6.1285,6.1336,6.1718,6.2069,6.2069,6.2476,6.2802,6.2802,6.2802,6.2802,6.2802,6.2802,6.2802,6.2802,6.2852,6.3103,6.3651,6.4224,6.5976,6.9319,7.3139,7.5486,7.5874,7.7736,7.8807,7.8807,7.8807,7.8807,7.8807,7.8807,7.8807,7.8807,7.8807,7.8807,7.8807,7.8807,7.8807,7.8807,7.8807,7.8807,7.8807,7.8849,7.9238,7.9878,8.0554,8.1212,8.186,8.2507,8.2747,8.2687,7.0889,7.0889,7.0889,7.0889,7.0889,7.0889,7.0889,7.0889,7.0889,7.0889,7.0889,7.0889,7.0889,7.0889,7.0889,7.0889,7.0889,7.0889,7.0889,7.0889,7.0889,7.0889,7.0889,7.1158,7.1683,7.1683,7.1743,7.1893,7.3103,7.3762,7.3877,7.2952,7.2332,7.1838,7.0245,6.8416,6.6449,6.6,6.489,6.3402,6.2985,6.2802,6.2802,6.2802,6.2802,6.2802,6.2802,6.2802,6.2877,6.335,6.3873,6.44,6.4827,6.5032,6.5229,6.5785,6.5835,6.5559,6.4726,6.4325,6.3898,6.2877,6.2526,6.2325,6.1918,6.1818,6.1943,6.2375,6.2551,6.2626,6.2626,6.2727,6.2802,6.2802,6.2802,6.2802,6.2802,6.2802,6.2802,6.2802,6.3224,6.355,6.3676,6.4576,6.6965,7.1449,7.2636,7.461,7.7919,7.8542,7.8807,7.8807,7.8807,7.8807,7.8807,7.8807,7.8807,7.8807,7.8807,7.8807,7.8807,7.8807,7.8807,7.8807,7.8807,7.8807,7.8819,7.9387,7.9668,7.9878,8.0554,8.1212,8.183,8.1949,8.2357,8.2687,7.0889,7.0889,7.0889,7.0889,7.0889,7.0889,7.0889,7.0889,7.0889,7.0889,7.0889,7.0889,7.0889,7.0889,7.0889,7.0889,7.0889,7.0889,7.0889,7.0889,7.1038,7.1368,7.1068,7.0898,7.0947,7.1876,7.2535,7.2851,7.3552,7.3559,7.2916,7.224,7.0868,6.8954,6.7904,6.6273,6.4378,6.4378,6.3741,6.2802,6.2802,6.2802,6.2802,6.2802,6.2802,6.2852,6.3128,6.34,6.3651,6.3973,6.445,6.4927,6.5229,6.5484,6.5735,6.6036,6.5735,6.5279,6.4953,6.43,6.3626,6.3324,6.3003,6.2727,6.245,6.2375,6.245,6.2752,6.2802,6.2802,6.2802,6.2802,6.2802,6.2802,6.2802,6.2802,6.2802,6.3053,6.3229,6.3229,6.3726,6.4174,6.4429,6.5208,6.7151,7.0718,7.1903,7.3915,7.7089,7.8222,7.8807,7.8807,7.8807,7.8807,7.8807,7.8807,7.8807,7.8807,7.8807,7.8807,7.8807,7.8807,7.8807,7.8807,7.8807,7.8807,7.8849,7.9519,7.9997,8.0345,8.1003,8.168,8.2297,8.2297,8.2099,8.174,7.0919,7.0889,7.0889,7.0889,7.0889,7.0889,7.0889,7.0889,7.0889,7.0889,7.0889,7.0889,7.0889,7.0889,7.0889,7.0889,7.0889,7.0889,7.0889,7.0889,7.1188,7.1863,7.1368,7.0748,7.0081,7.2023,7.3191,7.3393,7.3512,7.3003,7.1874,7.1177,6.9066,6.5785,6.5457,6.4358,6.2802,6.2802,6.2802,6.2802,6.2802,6.2802,6.2827,6.2927,6.2952,6.3028,6.3626,6.4174,6.4647,6.4647,6.5003,6.5434,6.5434,6.5735,6.609,6.609,6.543,6.4701,6.5078,6.4078,6.3053,6.345,6.3153,6.2802,6.2802,6.2802,6.2802,6.2802,6.2802,6.2802,6.2802,6.2802,6.2802,6.2802,6.2802,6.2802,6.2802,6.3324,6.3701,6.3701,6.4249,6.4852,6.5383,6.5835,6.7146,6.9644,7.1483,7.3585,7.6005,7.7828,7.8807,7.8807,7.8807,7.8807,7.8807,7.8807,7.8807,7.8807,7.8807,7.8807,7.8807,7.8807,7.8807,7.8807,7.8807,7.8807,7.8849,7.9519,8.0117,8.0704,8.1381,8.1979,8.2477,8.2477,8.168,8.0584,7.1009,7.0889,7.0889,7.0889,7.0889,7.0889,7.0889,7.0889,7.0889,7.0889,7.0889,7.0889,7.0889,7.0889,7.0889,7.0889,7.0889,7.0889,7.0889,7.0889,7.1188,7.1863,7.1803,7.1445,7.0779,7.2736,7.295,7.1305,7.1891,7.2084,7.182,6.8294,6.6325,6.5706,6.3982,6.3042,6.2802,6.2802,6.2802,6.2802,6.2802,6.2802,6.2852,6.3375,6.3576,6.3651,6.4199,6.4726,6.5204,6.5204,6.5534,6.5986,6.5986,6.604,6.609,6.609,6.566,6.5103,6.4701,6.4099,6.3475,6.3028,6.2877,6.2802,6.2802,6.2802,6.2802,6.2802,6.2802,6.2802,6.2802,6.2802,6.2802,6.2802,6.2802,6.2802,6.2802,6.3324,6.3701,6.3701,6.4601,6.5383,6.5936,6.604,6.7754,7.1771,7.2348,7.4225,7.8149,7.8662,7.8807,7.8807,7.8807,7.8807,7.8807,7.8807,7.8807,7.8807,7.8807,7.8807,7.8807,7.8807,7.8807,7.8807,7.8807,7.8807,7.8849,7.9519,7.9848,7.9997,8.0674,8.0973,8.1063,8.1063,8.0584,7.9997,7.1427,7.1158,7.0889,7.0889,7.0889,7.0889,7.0889,7.0889,7.0889,7.0889,7.0889,7.0889,7.0889,7.0889,7.0889,7.0889,7.0889,7.0889,7.0889,7.1248,7.1593,7.1893,7.1162,7.028,6.9251,7.1199,7.0847,6.8052,7.0635,7.074,6.8464,6.6635,6.5201,6.4103,6.3204,6.2802,6.2802,6.2802,6.2802,6.2802,6.2802,6.3003,6.335,6.3601,6.3898,6.4224,6.4752,6.5283,6.576,6.576,6.5889,6.609,6.609,6.609,6.609,6.609,6.5735,6.5179,6.4647,6.4099,6.355,6.2952,6.2802,6.2802,6.2802,6.3053,6.3224,6.2877,6.2802,6.2802,6.2802,6.2802,6.2802,6.2802,6.2802,6.2927,6.3274,6.3797,6.4375,6.4982,6.5459,6.5835,6.6086,6.609,6.788,7.2189,7.2506,7.4341,7.856,7.8807,7.8807,7.8807,7.8807,7.8807,7.8807,7.8807,7.8807,7.8807,7.8807,7.8807,7.8807,7.8807,7.8807,7.8807,7.8807,7.8807,7.8849,7.9519,7.9788,7.9878,8.0554,8.0794,8.0794,8.0794,8.0614,8.0405]}]]